<?xml version="1.0" encoding="UTF-8" standalone="no" ?>
<gpx xmlns="http://www.topografix.com/GPX/1/1" xmlns:xsi="http://www.w3.org/2001/XMLSchema-instance" xsi:schemaLocation="http://www.topografix.com/GPX/1/1 http://www.topografix.com/GPX/1/1/gpx.xsd" version="1.1" creator="VisuGPX - https://www.visugpx.com">
  <metadata>
    <name>05-Abries telesiège</name>
    <desc><![CDATA[En face du camping,télésiège,retaurant et retour par une boucle vers Valpréveyre.]]></desc>
  </metadata>
  <trk>
    <name><![CDATA[ABRIES resto la grolle]]></name>
    <trkseg>
      <trkpt lat="44.79408" lon="6.92702">
        <ele>1513.25</ele>
        <time>2012-07-31T09:53:18Z</time>
      </trkpt>
      <trkpt lat="44.79407" lon="6.92703">
        <ele>1512.77</ele>
        <time>2012-07-31T09:53:19Z</time>
      </trkpt>
      <trkpt lat="44.79407" lon="6.92703">
        <ele>1512.77</ele>
        <time>2012-07-31T09:53:20Z</time>
      </trkpt>
      <trkpt lat="44.79401" lon="6.92709">
        <ele>1513.25</ele>
        <time>2012-07-31T09:53:27Z</time>
      </trkpt>
      <trkpt lat="44.79391" lon="6.92737">
        <ele>1512.77</ele>
        <time>2012-07-31T09:53:44Z</time>
      </trkpt>
      <trkpt lat="44.79386" lon="6.92748">
        <ele>1513.25</ele>
        <time>2012-07-31T09:53:59Z</time>
      </trkpt>
      <trkpt lat="44.79383" lon="6.92749">
        <ele>1517.58</ele>
        <time>2012-07-31T09:54:02Z</time>
      </trkpt>
      <trkpt lat="44.79379" lon="6.9275">
        <ele>1520.94</ele>
        <time>2012-07-31T09:54:05Z</time>
      </trkpt>
      <trkpt lat="44.79376" lon="6.92751">
        <ele>1523.83</ele>
        <time>2012-07-31T09:54:08Z</time>
      </trkpt>
      <trkpt lat="44.79373" lon="6.92751">
        <ele>1527.19</ele>
        <time>2012-07-31T09:54:12Z</time>
      </trkpt>
      <trkpt lat="44.7937" lon="6.92753">
        <ele>1530.56</ele>
        <time>2012-07-31T09:54:17Z</time>
      </trkpt>
      <trkpt lat="44.79368" lon="6.92754">
        <ele>1533.44</ele>
        <time>2012-07-31T09:54:22Z</time>
      </trkpt>
      <trkpt lat="44.79368" lon="6.92754">
        <ele>1534.4</ele>
        <time>2012-07-31T09:54:24Z</time>
      </trkpt>
      <trkpt lat="44.79368" lon="6.92754">
        <ele>1538.25</ele>
        <time>2012-07-31T09:54:27Z</time>
      </trkpt>
      <trkpt lat="44.79368" lon="6.92754">
        <ele>1536.8</ele>
        <time>2012-07-31T09:54:28Z</time>
      </trkpt>
      <trkpt lat="44.79369" lon="6.9275">
        <ele>1540.17</ele>
        <time>2012-07-31T09:54:38Z</time>
      </trkpt>
      <trkpt lat="44.79365" lon="6.92748">
        <ele>1542.57</ele>
        <time>2012-07-31T09:54:48Z</time>
      </trkpt>
      <trkpt lat="44.79357" lon="6.92743">
        <ele>1544.01</ele>
        <time>2012-07-31T09:54:57Z</time>
      </trkpt>
      <trkpt lat="44.79347" lon="6.92751">
        <ele>1544.98</ele>
        <time>2012-07-31T09:55:09Z</time>
      </trkpt>
      <trkpt lat="44.79323" lon="6.92768">
        <ele>1544.98</ele>
        <time>2012-07-31T09:55:27Z</time>
      </trkpt>
      <trkpt lat="44.79303" lon="6.92775">
        <ele>1544.01</ele>
        <time>2012-07-31T09:55:47Z</time>
      </trkpt>
      <trkpt lat="44.7928" lon="6.92787">
        <ele>1543.53</ele>
        <time>2012-07-31T09:56:10Z</time>
      </trkpt>
      <trkpt lat="44.79277" lon="6.9279">
        <ele>1543.05</ele>
        <time>2012-07-31T09:56:13Z</time>
      </trkpt>
      <trkpt lat="44.79262" lon="6.9279">
        <ele>1543.05</ele>
        <time>2012-07-31T09:56:29Z</time>
      </trkpt>
      <trkpt lat="44.79251" lon="6.92786">
        <ele>1543.05</ele>
        <time>2012-07-31T09:56:45Z</time>
      </trkpt>
      <trkpt lat="44.79241" lon="6.92781">
        <ele>1543.53</ele>
        <time>2012-07-31T09:57:04Z</time>
      </trkpt>
      <trkpt lat="44.79241" lon="6.92779">
        <ele>1544.01</ele>
        <time>2012-07-31T09:57:21Z</time>
      </trkpt>
      <trkpt lat="44.79234" lon="6.92781">
        <ele>1543.05</ele>
        <time>2012-07-31T09:57:43Z</time>
      </trkpt>
      <trkpt lat="44.79227" lon="6.92781">
        <ele>1542.57</ele>
        <time>2012-07-31T09:57:49Z</time>
      </trkpt>
      <trkpt lat="44.79204" lon="6.9279">
        <ele>1543.05</ele>
        <time>2012-07-31T09:58:11Z</time>
      </trkpt>
      <trkpt lat="44.79193" lon="6.92791">
        <ele>1544.01</ele>
        <time>2012-07-31T09:58:21Z</time>
      </trkpt>
      <trkpt lat="44.79189" lon="6.9279">
        <ele>1543.53</ele>
        <time>2012-07-31T09:58:25Z</time>
      </trkpt>
      <trkpt lat="44.79178" lon="6.92806">
        <ele>1544.01</ele>
        <time>2012-07-31T09:58:35Z</time>
      </trkpt>
      <trkpt lat="44.79174" lon="6.92811">
        <ele>1544.98</ele>
        <time>2012-07-31T09:58:40Z</time>
      </trkpt>
      <trkpt lat="44.79166" lon="6.9282">
        <ele>1544.01</ele>
        <time>2012-07-31T09:58:48Z</time>
      </trkpt>
      <trkpt lat="44.79164" lon="6.92823">
        <ele>1544.5</ele>
        <time>2012-07-31T09:58:51Z</time>
      </trkpt>
      <trkpt lat="44.79157" lon="6.92831">
        <ele>1544.01</ele>
        <time>2012-07-31T09:58:58Z</time>
      </trkpt>
      <trkpt lat="44.79148" lon="6.92849">
        <ele>1545.46</ele>
        <time>2012-07-31T09:59:09Z</time>
      </trkpt>
      <trkpt lat="44.79147" lon="6.9285">
        <ele>1544.5</ele>
        <time>2012-07-31T09:59:11Z</time>
      </trkpt>
      <trkpt lat="44.79135" lon="6.92864">
        <ele>1544.5</ele>
        <time>2012-07-31T09:59:30Z</time>
      </trkpt>
      <trkpt lat="44.79121" lon="6.92882">
        <ele>1544.01</ele>
        <time>2012-07-31T09:59:53Z</time>
      </trkpt>
      <trkpt lat="44.79113" lon="6.92891">
        <ele>1544.98</ele>
        <time>2012-07-31T10:00:11Z</time>
      </trkpt>
      <trkpt lat="44.79101" lon="6.92912">
        <ele>1545.46</ele>
        <time>2012-07-31T10:00:30Z</time>
      </trkpt>
      <trkpt lat="44.79101" lon="6.92924">
        <ele>1546.42</ele>
        <time>2012-07-31T10:00:40Z</time>
      </trkpt>
      <trkpt lat="44.79103" lon="6.92928">
        <ele>1546.42</ele>
        <time>2012-07-31T10:00:44Z</time>
      </trkpt>
      <trkpt lat="44.79111" lon="6.9294">
        <ele>1546.42</ele>
        <time>2012-07-31T10:01:03Z</time>
      </trkpt>
      <trkpt lat="44.7911" lon="6.92941">
        <ele>1547.38</ele>
        <time>2012-07-31T10:01:31Z</time>
      </trkpt>
      <trkpt lat="44.7911" lon="6.92939">
        <ele>1547.86</ele>
        <time>2012-07-31T10:02:05Z</time>
      </trkpt>
      <trkpt lat="44.7912" lon="6.9288">
        <ele>1547.86</ele>
        <time>2012-07-31T10:02:34Z</time>
      </trkpt>
      <trkpt lat="44.79112" lon="6.92926">
        <ele>1547.86</ele>
        <time>2012-07-31T10:03:03Z</time>
      </trkpt>
      <trkpt lat="44.79108" lon="6.92922">
        <ele>1547.86</ele>
        <time>2012-07-31T10:03:31Z</time>
      </trkpt>
      <trkpt lat="44.79111" lon="6.92924">
        <ele>1547.86</ele>
        <time>2012-07-31T10:03:35Z</time>
      </trkpt>
      <trkpt lat="44.79106" lon="6.92946">
        <ele>1547.38</ele>
        <time>2012-07-31T10:04:03Z</time>
      </trkpt>
      <trkpt lat="44.79103" lon="6.92955">
        <ele>1548.82</ele>
        <time>2012-07-31T10:04:25Z</time>
      </trkpt>
      <trkpt lat="44.79109" lon="6.92967">
        <ele>1548.34</ele>
        <time>2012-07-31T10:04:42Z</time>
      </trkpt>
      <trkpt lat="44.79109" lon="6.92969">
        <ele>1542.57</ele>
        <time>2012-07-31T10:04:44Z</time>
      </trkpt>
      <trkpt lat="44.79109" lon="6.9297">
        <ele>1547.86</ele>
        <time>2012-07-31T10:04:45Z</time>
      </trkpt>
      <trkpt lat="44.79109" lon="6.92971">
        <ele>1552.67</ele>
        <time>2012-07-31T10:04:46Z</time>
      </trkpt>
      <trkpt lat="44.79109" lon="6.92973">
        <ele>1548.34</ele>
        <time>2012-07-31T10:04:47Z</time>
      </trkpt>
      <trkpt lat="44.79108" lon="6.92976">
        <ele>1543.53</ele>
        <time>2012-07-31T10:04:51Z</time>
      </trkpt>
      <trkpt lat="44.79109" lon="6.92977">
        <ele>1549.78</ele>
        <time>2012-07-31T10:04:52Z</time>
      </trkpt>
      <trkpt lat="44.79109" lon="6.92977">
        <ele>1550.26</ele>
        <time>2012-07-31T10:04:53Z</time>
      </trkpt>
      <trkpt lat="44.7911" lon="6.92978">
        <ele>1545.46</ele>
        <time>2012-07-31T10:04:54Z</time>
      </trkpt>
      <trkpt lat="44.79113" lon="6.92987">
        <ele>1547.38</ele>
        <time>2012-07-31T10:04:58Z</time>
      </trkpt>
      <trkpt lat="44.79117" lon="6.93005">
        <ele>1549.3</ele>
        <time>2012-07-31T10:05:02Z</time>
      </trkpt>
      <trkpt lat="44.79119" lon="6.93017">
        <ele>1554.11</ele>
        <time>2012-07-31T10:05:05Z</time>
      </trkpt>
      <trkpt lat="44.7912" lon="6.93021">
        <ele>1553.15</ele>
        <time>2012-07-31T10:05:06Z</time>
      </trkpt>
      <trkpt lat="44.79121" lon="6.93034">
        <ele>1556.03</ele>
        <time>2012-07-31T10:05:09Z</time>
      </trkpt>
      <trkpt lat="44.79122" lon="6.93043">
        <ele>1557.47</ele>
        <time>2012-07-31T10:05:11Z</time>
      </trkpt>
      <trkpt lat="44.79123" lon="6.9305">
        <ele>1558.43</ele>
        <time>2012-07-31T10:05:13Z</time>
      </trkpt>
      <trkpt lat="44.79126" lon="6.93065">
        <ele>1562.28</ele>
        <time>2012-07-31T10:05:17Z</time>
      </trkpt>
      <trkpt lat="44.79127" lon="6.93069">
        <ele>1561.8</ele>
        <time>2012-07-31T10:05:18Z</time>
      </trkpt>
      <trkpt lat="44.79129" lon="6.93085">
        <ele>1565.16</ele>
        <time>2012-07-31T10:05:22Z</time>
      </trkpt>
      <trkpt lat="44.79132" lon="6.931">
        <ele>1567.57</ele>
        <time>2012-07-31T10:05:26Z</time>
      </trkpt>
      <trkpt lat="44.79133" lon="6.93108">
        <ele>1569.01</ele>
        <time>2012-07-31T10:05:28Z</time>
      </trkpt>
      <trkpt lat="44.79134" lon="6.93118">
        <ele>1571.89</ele>
        <time>2012-07-31T10:05:31Z</time>
      </trkpt>
      <trkpt lat="44.79135" lon="6.93122">
        <ele>1571.89</ele>
        <time>2012-07-31T10:05:32Z</time>
      </trkpt>
      <trkpt lat="44.79136" lon="6.93137">
        <ele>1576.22</ele>
        <time>2012-07-31T10:05:36Z</time>
      </trkpt>
      <trkpt lat="44.79137" lon="6.9314">
        <ele>1576.7</ele>
        <time>2012-07-31T10:05:37Z</time>
      </trkpt>
      <trkpt lat="44.7914" lon="6.93154">
        <ele>1580.06</ele>
        <time>2012-07-31T10:05:41Z</time>
      </trkpt>
      <trkpt lat="44.79142" lon="6.93169">
        <ele>1583.91</ele>
        <time>2012-07-31T10:05:45Z</time>
      </trkpt>
      <trkpt lat="44.79143" lon="6.93176">
        <ele>1585.35</ele>
        <time>2012-07-31T10:05:47Z</time>
      </trkpt>
      <trkpt lat="44.79145" lon="6.93186">
        <ele>1588.72</ele>
        <time>2012-07-31T10:05:50Z</time>
      </trkpt>
      <trkpt lat="44.79147" lon="6.93198">
        <ele>1591.12</ele>
        <time>2012-07-31T10:05:53Z</time>
      </trkpt>
      <trkpt lat="44.79149" lon="6.9321">
        <ele>1594.48</ele>
        <time>2012-07-31T10:05:56Z</time>
      </trkpt>
      <trkpt lat="44.79151" lon="6.93222">
        <ele>1597.85</ele>
        <time>2012-07-31T10:05:59Z</time>
      </trkpt>
      <trkpt lat="44.79152" lon="6.93229">
        <ele>1601.21</ele>
        <time>2012-07-31T10:06:01Z</time>
      </trkpt>
      <trkpt lat="44.79154" lon="6.93239">
        <ele>1605.06</ele>
        <time>2012-07-31T10:06:04Z</time>
      </trkpt>
      <trkpt lat="44.79156" lon="6.93249">
        <ele>1608.42</ele>
        <time>2012-07-31T10:06:07Z</time>
      </trkpt>
      <trkpt lat="44.79157" lon="6.93255">
        <ele>1611.79</ele>
        <time>2012-07-31T10:06:09Z</time>
      </trkpt>
      <trkpt lat="44.79159" lon="6.93265">
        <ele>1615.15</ele>
        <time>2012-07-31T10:06:12Z</time>
      </trkpt>
      <trkpt lat="44.79159" lon="6.93271">
        <ele>1618.04</ele>
        <time>2012-07-31T10:06:14Z</time>
      </trkpt>
      <trkpt lat="44.7916" lon="6.9328">
        <ele>1621.88</ele>
        <time>2012-07-31T10:06:17Z</time>
      </trkpt>
      <trkpt lat="44.79161" lon="6.93283">
        <ele>1621.88</ele>
        <time>2012-07-31T10:06:18Z</time>
      </trkpt>
      <trkpt lat="44.79162" lon="6.93294">
        <ele>1626.21</ele>
        <time>2012-07-31T10:06:21Z</time>
      </trkpt>
      <trkpt lat="44.79163" lon="6.93304">
        <ele>1630.05</ele>
        <time>2012-07-31T10:06:24Z</time>
      </trkpt>
      <trkpt lat="44.79164" lon="6.93311">
        <ele>1633.42</ele>
        <time>2012-07-31T10:06:26Z</time>
      </trkpt>
      <trkpt lat="44.79165" lon="6.93317">
        <ele>1636.3</ele>
        <time>2012-07-31T10:06:28Z</time>
      </trkpt>
      <trkpt lat="44.79166" lon="6.93326">
        <ele>1640.63</ele>
        <time>2012-07-31T10:06:31Z</time>
      </trkpt>
      <trkpt lat="44.79168" lon="6.93341">
        <ele>1644.47</ele>
        <time>2012-07-31T10:06:35Z</time>
      </trkpt>
      <trkpt lat="44.7917" lon="6.93352">
        <ele>1647.84</ele>
        <time>2012-07-31T10:06:38Z</time>
      </trkpt>
      <trkpt lat="44.79173" lon="6.93361">
        <ele>1651.68</ele>
        <time>2012-07-31T10:06:41Z</time>
      </trkpt>
      <trkpt lat="44.79175" lon="6.93371">
        <ele>1655.05</ele>
        <time>2012-07-31T10:06:44Z</time>
      </trkpt>
      <trkpt lat="44.79175" lon="6.93375">
        <ele>1655.05</ele>
        <time>2012-07-31T10:06:45Z</time>
      </trkpt>
      <trkpt lat="44.79177" lon="6.93382">
        <ele>1658.41</ele>
        <time>2012-07-31T10:06:47Z</time>
      </trkpt>
      <trkpt lat="44.79179" lon="6.93392">
        <ele>1662.26</ele>
        <time>2012-07-31T10:06:50Z</time>
      </trkpt>
      <trkpt lat="44.7918" lon="6.93403">
        <ele>1665.62</ele>
        <time>2012-07-31T10:06:53Z</time>
      </trkpt>
      <trkpt lat="44.79181" lon="6.93414">
        <ele>1669.95</ele>
        <time>2012-07-31T10:06:56Z</time>
      </trkpt>
      <trkpt lat="44.79182" lon="6.93425">
        <ele>1673.79</ele>
        <time>2012-07-31T10:06:59Z</time>
      </trkpt>
      <trkpt lat="44.79183" lon="6.93431">
        <ele>1676.68</ele>
        <time>2012-07-31T10:07:01Z</time>
      </trkpt>
      <trkpt lat="44.79185" lon="6.9344">
        <ele>1680.52</ele>
        <time>2012-07-31T10:07:04Z</time>
      </trkpt>
      <trkpt lat="44.79186" lon="6.93444">
        <ele>1680.52</ele>
        <time>2012-07-31T10:07:05Z</time>
      </trkpt>
      <trkpt lat="44.79188" lon="6.93454">
        <ele>1684.85</ele>
        <time>2012-07-31T10:07:08Z</time>
      </trkpt>
      <trkpt lat="44.79188" lon="6.93461">
        <ele>1688.21</ele>
        <time>2012-07-31T10:07:10Z</time>
      </trkpt>
      <trkpt lat="44.7919" lon="6.9347">
        <ele>1692.06</ele>
        <time>2012-07-31T10:07:13Z</time>
      </trkpt>
      <trkpt lat="44.79191" lon="6.93476">
        <ele>1693.5</ele>
        <time>2012-07-31T10:07:15Z</time>
      </trkpt>
      <trkpt lat="44.79193" lon="6.93488">
        <ele>1696.86</ele>
        <time>2012-07-31T10:07:18Z</time>
      </trkpt>
      <trkpt lat="44.79193" lon="6.93492">
        <ele>1697.34</ele>
        <time>2012-07-31T10:07:19Z</time>
      </trkpt>
      <trkpt lat="44.79195" lon="6.93507">
        <ele>1701.19</ele>
        <time>2012-07-31T10:07:23Z</time>
      </trkpt>
      <trkpt lat="44.79197" lon="6.93523">
        <ele>1705.04</ele>
        <time>2012-07-31T10:07:27Z</time>
      </trkpt>
      <trkpt lat="44.792" lon="6.93537">
        <ele>1707.44</ele>
        <time>2012-07-31T10:07:31Z</time>
      </trkpt>
      <trkpt lat="44.79202" lon="6.93548">
        <ele>1711.28</ele>
        <time>2012-07-31T10:07:34Z</time>
      </trkpt>
      <trkpt lat="44.79203" lon="6.93558">
        <ele>1714.17</ele>
        <time>2012-07-31T10:07:37Z</time>
      </trkpt>
      <trkpt lat="44.79205" lon="6.93569">
        <ele>1717.53</ele>
        <time>2012-07-31T10:07:40Z</time>
      </trkpt>
      <trkpt lat="44.79208" lon="6.9358">
        <ele>1719.94</ele>
        <time>2012-07-31T10:07:43Z</time>
      </trkpt>
      <trkpt lat="44.79211" lon="6.93599">
        <ele>1722.82</ele>
        <time>2012-07-31T10:07:48Z</time>
      </trkpt>
      <trkpt lat="44.79214" lon="6.93614">
        <ele>1726.67</ele>
        <time>2012-07-31T10:07:52Z</time>
      </trkpt>
      <trkpt lat="44.79217" lon="6.93627">
        <ele>1730.03</ele>
        <time>2012-07-31T10:07:56Z</time>
      </trkpt>
      <trkpt lat="44.79219" lon="6.93642">
        <ele>1733.39</ele>
        <time>2012-07-31T10:08:00Z</time>
      </trkpt>
      <trkpt lat="44.79219" lon="6.93645">
        <ele>1733.39</ele>
        <time>2012-07-31T10:08:01Z</time>
      </trkpt>
      <trkpt lat="44.79222" lon="6.9366">
        <ele>1736.28</ele>
        <time>2012-07-31T10:08:05Z</time>
      </trkpt>
      <trkpt lat="44.79224" lon="6.93672">
        <ele>1740.12</ele>
        <time>2012-07-31T10:08:08Z</time>
      </trkpt>
      <trkpt lat="44.79225" lon="6.93676">
        <ele>1740.12</ele>
        <time>2012-07-31T10:08:09Z</time>
      </trkpt>
      <trkpt lat="44.79226" lon="6.93687">
        <ele>1743.49</ele>
        <time>2012-07-31T10:08:12Z</time>
      </trkpt>
      <trkpt lat="44.79227" lon="6.93698">
        <ele>1746.85</ele>
        <time>2012-07-31T10:08:15Z</time>
      </trkpt>
      <trkpt lat="44.79229" lon="6.93708">
        <ele>1749.74</ele>
        <time>2012-07-31T10:08:18Z</time>
      </trkpt>
      <trkpt lat="44.79232" lon="6.93722">
        <ele>1752.62</ele>
        <time>2012-07-31T10:08:22Z</time>
      </trkpt>
      <trkpt lat="44.79234" lon="6.93732">
        <ele>1756.47</ele>
        <time>2012-07-31T10:08:25Z</time>
      </trkpt>
      <trkpt lat="44.79236" lon="6.93743">
        <ele>1759.83</ele>
        <time>2012-07-31T10:08:28Z</time>
      </trkpt>
      <trkpt lat="44.79239" lon="6.93755">
        <ele>1762.71</ele>
        <time>2012-07-31T10:08:31Z</time>
      </trkpt>
      <trkpt lat="44.7924" lon="6.93767">
        <ele>1767.04</ele>
        <time>2012-07-31T10:08:34Z</time>
      </trkpt>
      <trkpt lat="44.79242" lon="6.93778">
        <ele>1770.41</ele>
        <time>2012-07-31T10:08:37Z</time>
      </trkpt>
      <trkpt lat="44.79244" lon="6.93789">
        <ele>1774.25</ele>
        <time>2012-07-31T10:08:40Z</time>
      </trkpt>
      <trkpt lat="44.79246" lon="6.93798">
        <ele>1778.58</ele>
        <time>2012-07-31T10:08:43Z</time>
      </trkpt>
      <trkpt lat="44.79246" lon="6.93801">
        <ele>1778.58</ele>
        <time>2012-07-31T10:08:44Z</time>
      </trkpt>
      <trkpt lat="44.79246" lon="6.93807">
        <ele>1782.9</ele>
        <time>2012-07-31T10:08:46Z</time>
      </trkpt>
      <trkpt lat="44.79247" lon="6.93814">
        <ele>1783.86</ele>
        <time>2012-07-31T10:08:48Z</time>
      </trkpt>
      <trkpt lat="44.79249" lon="6.93825">
        <ele>1787.71</ele>
        <time>2012-07-31T10:08:51Z</time>
      </trkpt>
      <trkpt lat="44.7925" lon="6.93833">
        <ele>1791.07</ele>
        <time>2012-07-31T10:08:53Z</time>
      </trkpt>
      <trkpt lat="44.79251" lon="6.93843">
        <ele>1795.4</ele>
        <time>2012-07-31T10:08:56Z</time>
      </trkpt>
      <trkpt lat="44.79252" lon="6.93853">
        <ele>1799.24</ele>
        <time>2012-07-31T10:08:59Z</time>
      </trkpt>
      <trkpt lat="44.79254" lon="6.93862">
        <ele>1803.57</ele>
        <time>2012-07-31T10:09:02Z</time>
      </trkpt>
      <trkpt lat="44.79254" lon="6.93867">
        <ele>1806.94</ele>
        <time>2012-07-31T10:09:04Z</time>
      </trkpt>
      <trkpt lat="44.79255" lon="6.9387">
        <ele>1806.94</ele>
        <time>2012-07-31T10:09:05Z</time>
      </trkpt>
      <trkpt lat="44.79257" lon="6.93878">
        <ele>1809.82</ele>
        <time>2012-07-31T10:09:07Z</time>
      </trkpt>
      <trkpt lat="44.79259" lon="6.93884">
        <ele>1811.26</ele>
        <time>2012-07-31T10:09:09Z</time>
      </trkpt>
      <trkpt lat="44.79261" lon="6.93897">
        <ele>1813.66</ele>
        <time>2012-07-31T10:09:13Z</time>
      </trkpt>
      <trkpt lat="44.79262" lon="6.93905">
        <ele>1817.03</ele>
        <time>2012-07-31T10:09:17Z</time>
      </trkpt>
      <trkpt lat="44.79264" lon="6.93916">
        <ele>1820.87</ele>
        <time>2012-07-31T10:09:22Z</time>
      </trkpt>
      <trkpt lat="44.79265" lon="6.9392">
        <ele>1821.84</ele>
        <time>2012-07-31T10:09:24Z</time>
      </trkpt>
      <trkpt lat="44.79267" lon="6.93929">
        <ele>1824.72</ele>
        <time>2012-07-31T10:09:28Z</time>
      </trkpt>
      <trkpt lat="44.79269" lon="6.93939">
        <ele>1828.08</ele>
        <time>2012-07-31T10:09:32Z</time>
      </trkpt>
      <trkpt lat="44.7927" lon="6.93946">
        <ele>1829.53</ele>
        <time>2012-07-31T10:09:35Z</time>
      </trkpt>
      <trkpt lat="44.79273" lon="6.9396">
        <ele>1833.85</ele>
        <time>2012-07-31T10:09:40Z</time>
      </trkpt>
      <trkpt lat="44.79274" lon="6.93969">
        <ele>1836.74</ele>
        <time>2012-07-31T10:09:43Z</time>
      </trkpt>
      <trkpt lat="44.79275" lon="6.9398">
        <ele>1840.58</ele>
        <time>2012-07-31T10:09:46Z</time>
      </trkpt>
      <trkpt lat="44.79276" lon="6.93988">
        <ele>1842.5</ele>
        <time>2012-07-31T10:09:48Z</time>
      </trkpt>
      <trkpt lat="44.79277" lon="6.93995">
        <ele>1844.91</ele>
        <time>2012-07-31T10:09:50Z</time>
      </trkpt>
      <trkpt lat="44.79279" lon="6.94005">
        <ele>1848.75</ele>
        <time>2012-07-31T10:09:53Z</time>
      </trkpt>
      <trkpt lat="44.7928" lon="6.94015">
        <ele>1852.6</ele>
        <time>2012-07-31T10:09:56Z</time>
      </trkpt>
      <trkpt lat="44.79282" lon="6.94026">
        <ele>1855</ele>
        <time>2012-07-31T10:09:59Z</time>
      </trkpt>
      <trkpt lat="44.79283" lon="6.94034">
        <ele>1858.37</ele>
        <time>2012-07-31T10:10:01Z</time>
      </trkpt>
      <trkpt lat="44.79283" lon="6.94037">
        <ele>1858.37</ele>
        <time>2012-07-31T10:10:02Z</time>
      </trkpt>
      <trkpt lat="44.79284" lon="6.94044">
        <ele>1861.73</ele>
        <time>2012-07-31T10:10:04Z</time>
      </trkpt>
      <trkpt lat="44.79285" lon="6.94055">
        <ele>1866.06</ele>
        <time>2012-07-31T10:10:07Z</time>
      </trkpt>
      <trkpt lat="44.79286" lon="6.94066">
        <ele>1869.9</ele>
        <time>2012-07-31T10:10:10Z</time>
      </trkpt>
      <trkpt lat="44.79289" lon="6.94076">
        <ele>1873.27</ele>
        <time>2012-07-31T10:10:13Z</time>
      </trkpt>
      <trkpt lat="44.7929" lon="6.9408">
        <ele>1873.75</ele>
        <time>2012-07-31T10:10:14Z</time>
      </trkpt>
      <trkpt lat="44.79291" lon="6.94091">
        <ele>1877.11</ele>
        <time>2012-07-31T10:10:17Z</time>
      </trkpt>
      <trkpt lat="44.79294" lon="6.94101">
        <ele>1880</ele>
        <time>2012-07-31T10:10:21Z</time>
      </trkpt>
      <trkpt lat="44.79297" lon="6.94116">
        <ele>1883.36</ele>
        <time>2012-07-31T10:10:27Z</time>
      </trkpt>
      <trkpt lat="44.79298" lon="6.94124">
        <ele>1886.72</ele>
        <time>2012-07-31T10:10:31Z</time>
      </trkpt>
      <trkpt lat="44.79299" lon="6.94133">
        <ele>1889.61</ele>
        <time>2012-07-31T10:10:35Z</time>
      </trkpt>
      <trkpt lat="44.79301" lon="6.94145">
        <ele>1892.97</ele>
        <time>2012-07-31T10:10:40Z</time>
      </trkpt>
      <trkpt lat="44.79302" lon="6.94151">
        <ele>1894.9</ele>
        <time>2012-07-31T10:10:43Z</time>
      </trkpt>
      <trkpt lat="44.79302" lon="6.94153">
        <ele>1898.26</ele>
        <time>2012-07-31T10:10:44Z</time>
      </trkpt>
      <trkpt lat="44.79303" lon="6.94156">
        <ele>1896.82</ele>
        <time>2012-07-31T10:10:45Z</time>
      </trkpt>
      <trkpt lat="44.79304" lon="6.94163">
        <ele>1898.74</ele>
        <time>2012-07-31T10:10:48Z</time>
      </trkpt>
      <trkpt lat="44.79306" lon="6.94172">
        <ele>1902.11</ele>
        <time>2012-07-31T10:10:52Z</time>
      </trkpt>
      <trkpt lat="44.79308" lon="6.94185">
        <ele>1905.95</ele>
        <time>2012-07-31T10:10:56Z</time>
      </trkpt>
      <trkpt lat="44.79309" lon="6.94194">
        <ele>1909.32</ele>
        <time>2012-07-31T10:10:59Z</time>
      </trkpt>
      <trkpt lat="44.79311" lon="6.94204">
        <ele>1911.24</ele>
        <time>2012-07-31T10:11:02Z</time>
      </trkpt>
      <trkpt lat="44.79315" lon="6.94223">
        <ele>1914.6</ele>
        <time>2012-07-31T10:11:07Z</time>
      </trkpt>
      <trkpt lat="44.79318" lon="6.94244">
        <ele>1918.45</ele>
        <time>2012-07-31T10:11:12Z</time>
      </trkpt>
      <trkpt lat="44.7932" lon="6.94259">
        <ele>1921.81</ele>
        <time>2012-07-31T10:11:16Z</time>
      </trkpt>
      <trkpt lat="44.79321" lon="6.94269">
        <ele>1924.22</ele>
        <time>2012-07-31T10:11:19Z</time>
      </trkpt>
      <trkpt lat="44.79324" lon="6.94284">
        <ele>1928.06</ele>
        <time>2012-07-31T10:11:23Z</time>
      </trkpt>
      <trkpt lat="44.79326" lon="6.94299">
        <ele>1931.91</ele>
        <time>2012-07-31T10:11:27Z</time>
      </trkpt>
      <trkpt lat="44.79328" lon="6.94313">
        <ele>1935.75</ele>
        <time>2012-07-31T10:11:31Z</time>
      </trkpt>
      <trkpt lat="44.7933" lon="6.94327">
        <ele>1939.6</ele>
        <time>2012-07-31T10:11:35Z</time>
      </trkpt>
      <trkpt lat="44.79332" lon="6.94334">
        <ele>1940.56</ele>
        <time>2012-07-31T10:11:37Z</time>
      </trkpt>
      <trkpt lat="44.79334" lon="6.94343">
        <ele>1943.44</ele>
        <time>2012-07-31T10:11:40Z</time>
      </trkpt>
      <trkpt lat="44.79336" lon="6.94355">
        <ele>1946.81</ele>
        <time>2012-07-31T10:11:43Z</time>
      </trkpt>
      <trkpt lat="44.79338" lon="6.9437">
        <ele>1951.13</ele>
        <time>2012-07-31T10:11:47Z</time>
      </trkpt>
      <trkpt lat="44.7934" lon="6.94381">
        <ele>1954.5</ele>
        <time>2012-07-31T10:11:50Z</time>
      </trkpt>
      <trkpt lat="44.79343" lon="6.94395">
        <ele>1958.82</ele>
        <time>2012-07-31T10:11:54Z</time>
      </trkpt>
      <trkpt lat="44.79346" lon="6.9441">
        <ele>1962.19</ele>
        <time>2012-07-31T10:11:58Z</time>
      </trkpt>
      <trkpt lat="44.79349" lon="6.94426">
        <ele>1965.07</ele>
        <time>2012-07-31T10:12:02Z</time>
      </trkpt>
      <trkpt lat="44.79349" lon="6.94437">
        <ele>1968.92</ele>
        <time>2012-07-31T10:12:05Z</time>
      </trkpt>
      <trkpt lat="44.7935" lon="6.94451">
        <ele>1973.24</ele>
        <time>2012-07-31T10:12:09Z</time>
      </trkpt>
      <trkpt lat="44.79353" lon="6.94465">
        <ele>1977.09</ele>
        <time>2012-07-31T10:12:13Z</time>
      </trkpt>
      <trkpt lat="44.79354" lon="6.94477">
        <ele>1980.45</ele>
        <time>2012-07-31T10:12:16Z</time>
      </trkpt>
      <trkpt lat="44.79356" lon="6.94487">
        <ele>1983.82</ele>
        <time>2012-07-31T10:12:19Z</time>
      </trkpt>
      <trkpt lat="44.79359" lon="6.94501">
        <ele>1987.18</ele>
        <time>2012-07-31T10:12:23Z</time>
      </trkpt>
      <trkpt lat="44.7936" lon="6.94505">
        <ele>1987.18</ele>
        <time>2012-07-31T10:12:24Z</time>
      </trkpt>
      <trkpt lat="44.79361" lon="6.94513">
        <ele>1988.62</ele>
        <time>2012-07-31T10:12:26Z</time>
      </trkpt>
      <trkpt lat="44.79364" lon="6.94523">
        <ele>1990.55</ele>
        <time>2012-07-31T10:12:44Z</time>
      </trkpt>
      <trkpt lat="44.79364" lon="6.94526">
        <ele>1992.47</ele>
        <time>2012-07-31T10:13:30Z</time>
      </trkpt>
      <trkpt lat="44.79365" lon="6.94541">
        <ele>1996.32</ele>
        <time>2012-07-31T10:13:38Z</time>
      </trkpt>
      <trkpt lat="44.79366" lon="6.94552">
        <ele>2000.16</ele>
        <time>2012-07-31T10:13:43Z</time>
      </trkpt>
      <trkpt lat="44.79366" lon="6.94554">
        <ele>1999.2</ele>
        <time>2012-07-31T10:13:44Z</time>
      </trkpt>
      <trkpt lat="44.79374" lon="6.94583">
        <ele>1993.91</ele>
        <time>2012-07-31T10:14:01Z</time>
      </trkpt>
      <trkpt lat="44.79375" lon="6.94584">
        <ele>2010.25</ele>
        <time>2012-07-31T10:14:02Z</time>
      </trkpt>
      <trkpt lat="44.79375" lon="6.94586">
        <ele>2003.52</ele>
        <time>2012-07-31T10:14:03Z</time>
      </trkpt>
      <trkpt lat="44.79374" lon="6.94586">
        <ele>2001.6</ele>
        <time>2012-07-31T10:14:04Z</time>
      </trkpt>
      <trkpt lat="44.7937" lon="6.94592">
        <ele>2000.16</ele>
        <time>2012-07-31T10:14:08Z</time>
      </trkpt>
      <trkpt lat="44.7937" lon="6.94607">
        <ele>2000.16</ele>
        <time>2012-07-31T10:14:30Z</time>
      </trkpt>
      <trkpt lat="44.79377" lon="6.94599">
        <ele>2000.64</ele>
        <time>2012-07-31T10:14:53Z</time>
      </trkpt>
      <trkpt lat="44.79378" lon="6.94597">
        <ele>2002.08</ele>
        <time>2012-07-31T10:15:17Z</time>
      </trkpt>
      <trkpt lat="44.79378" lon="6.94597">
        <ele>2000.64</ele>
        <time>2012-07-31T10:15:20Z</time>
      </trkpt>
      <trkpt lat="44.79379" lon="6.94598">
        <ele>2002.08</ele>
        <time>2012-07-31T10:15:46Z</time>
      </trkpt>
      <trkpt lat="44.79385" lon="6.94598">
        <ele>2002.08</ele>
        <time>2012-07-31T10:16:15Z</time>
      </trkpt>
      <trkpt lat="44.7939" lon="6.94603">
        <ele>2002.56</ele>
        <time>2012-07-31T10:16:37Z</time>
      </trkpt>
      <trkpt lat="44.7939" lon="6.94605">
        <ele>2003.52</ele>
        <time>2012-07-31T10:16:57Z</time>
      </trkpt>
      <trkpt lat="44.79394" lon="6.94597">
        <ele>2003.52</ele>
        <time>2012-07-31T10:17:11Z</time>
      </trkpt>
      <trkpt lat="44.79401" lon="6.94584">
        <ele>2003.04</ele>
        <time>2012-07-31T10:17:30Z</time>
      </trkpt>
      <trkpt lat="44.79395" lon="6.94576">
        <ele>2001.12</ele>
        <time>2012-07-31T10:17:46Z</time>
      </trkpt>
      <trkpt lat="44.79387" lon="6.9457">
        <ele>2001.6</ele>
        <time>2012-07-31T10:18:08Z</time>
      </trkpt>
      <trkpt lat="44.79385" lon="6.94565">
        <ele>2000.64</ele>
        <time>2012-07-31T10:18:13Z</time>
      </trkpt>
      <trkpt lat="44.79389" lon="6.9456">
        <ele>2001.12</ele>
        <time>2012-07-31T10:18:31Z</time>
      </trkpt>
      <trkpt lat="44.79391" lon="6.94557">
        <ele>2001.6</ele>
        <time>2012-07-31T10:18:58Z</time>
      </trkpt>
      <trkpt lat="44.7939" lon="6.94556">
        <ele>2001.6</ele>
        <time>2012-07-31T10:19:23Z</time>
      </trkpt>
      <trkpt lat="44.7939" lon="6.94557">
        <ele>2000.16</ele>
        <time>2012-07-31T10:19:33Z</time>
      </trkpt>
      <trkpt lat="44.7939" lon="6.94558">
        <ele>1994.39</ele>
        <time>2012-07-31T10:19:35Z</time>
      </trkpt>
      <trkpt lat="44.7939" lon="6.94559">
        <ele>2008.81</ele>
        <time>2012-07-31T10:19:36Z</time>
      </trkpt>
      <trkpt lat="44.7939" lon="6.94559">
        <ele>1999.2</ele>
        <time>2012-07-31T10:19:37Z</time>
      </trkpt>
      <trkpt lat="44.7939" lon="6.94559">
        <ele>2004.49</ele>
        <time>2012-07-31T10:19:38Z</time>
      </trkpt>
      <trkpt lat="44.7939" lon="6.94558">
        <ele>2001.12</ele>
        <time>2012-07-31T10:19:40Z</time>
      </trkpt>
      <trkpt lat="44.79391" lon="6.94558">
        <ele>2001.6</ele>
        <time>2012-07-31T10:19:45Z</time>
      </trkpt>
      <trkpt lat="44.79394" lon="6.94557">
        <ele>2000.16</ele>
        <time>2012-07-31T10:20:03Z</time>
      </trkpt>
      <trkpt lat="44.79394" lon="6.94557">
        <ele>2002.08</ele>
        <time>2012-07-31T10:20:06Z</time>
      </trkpt>
      <trkpt lat="44.79395" lon="6.94557">
        <ele>2001.12</ele>
        <time>2012-07-31T10:20:34Z</time>
      </trkpt>
      <trkpt lat="44.79395" lon="6.94558">
        <ele>2002.56</ele>
        <time>2012-07-31T10:21:06Z</time>
      </trkpt>
      <trkpt lat="44.79395" lon="6.9456">
        <ele>2003.04</ele>
        <time>2012-07-31T10:21:38Z</time>
      </trkpt>
      <trkpt lat="44.79395" lon="6.9456">
        <ele>2004.49</ele>
        <time>2012-07-31T10:21:46Z</time>
      </trkpt>
      <trkpt lat="44.79395" lon="6.9456">
        <ele>2003.04</ele>
        <time>2012-07-31T10:21:47Z</time>
      </trkpt>
      <trkpt lat="44.79395" lon="6.9456">
        <ele>2004.49</ele>
        <time>2012-07-31T10:21:52Z</time>
      </trkpt>
      <trkpt lat="44.79395" lon="6.9456">
        <ele>2002.08</ele>
        <time>2012-07-31T10:21:53Z</time>
      </trkpt>
      <trkpt lat="44.79395" lon="6.9456">
        <ele>2003.52</ele>
        <time>2012-07-31T10:21:54Z</time>
      </trkpt>
      <trkpt lat="44.79395" lon="6.94561">
        <ele>2000.16</ele>
        <time>2012-07-31T10:22:05Z</time>
      </trkpt>
      <trkpt lat="44.79395" lon="6.94561">
        <ele>2004.49</ele>
        <time>2012-07-31T10:22:06Z</time>
      </trkpt>
      <trkpt lat="44.79395" lon="6.94561">
        <ele>2003.04</ele>
        <time>2012-07-31T10:22:42Z</time>
      </trkpt>
      <trkpt lat="44.79395" lon="6.94562">
        <ele>2002.08</ele>
        <time>2012-07-31T10:22:58Z</time>
      </trkpt>
      <trkpt lat="44.79395" lon="6.94563">
        <ele>2002.56</ele>
        <time>2012-07-31T10:23:07Z</time>
      </trkpt>
      <trkpt lat="44.79395" lon="6.94563">
        <ele>2004.01</ele>
        <time>2012-07-31T10:23:44Z</time>
      </trkpt>
      <trkpt lat="44.79395" lon="6.94564">
        <ele>2004.01</ele>
        <time>2012-07-31T10:24:17Z</time>
      </trkpt>
      <trkpt lat="44.79395" lon="6.94564">
        <ele>2004.97</ele>
        <time>2012-07-31T10:24:47Z</time>
      </trkpt>
      <trkpt lat="44.79395" lon="6.94564">
        <ele>2004.49</ele>
        <time>2012-07-31T10:25:24Z</time>
      </trkpt>
      <trkpt lat="44.79396" lon="6.94565">
        <ele>2001.12</ele>
        <time>2012-07-31T10:25:53Z</time>
      </trkpt>
      <trkpt lat="44.79396" lon="6.94564">
        <ele>2009.77</ele>
        <time>2012-07-31T10:25:54Z</time>
      </trkpt>
      <trkpt lat="44.79396" lon="6.94564">
        <ele>2004.97</ele>
        <time>2012-07-31T10:25:55Z</time>
      </trkpt>
      <trkpt lat="44.79397" lon="6.94566">
        <ele>2004.01</ele>
        <time>2012-07-31T10:26:32Z</time>
      </trkpt>
      <trkpt lat="44.79398" lon="6.94565">
        <ele>2000.16</ele>
        <time>2012-07-31T10:27:08Z</time>
      </trkpt>
      <trkpt lat="44.79398" lon="6.94565">
        <ele>2009.77</ele>
        <time>2012-07-31T10:27:09Z</time>
      </trkpt>
      <trkpt lat="44.79397" lon="6.94565">
        <ele>2008.33</ele>
        <time>2012-07-31T10:27:10Z</time>
      </trkpt>
      <trkpt lat="44.79397" lon="6.94565">
        <ele>2004.97</ele>
        <time>2012-07-31T10:27:12Z</time>
      </trkpt>
      <trkpt lat="44.79397" lon="6.94565">
        <ele>2004.49</ele>
        <time>2012-07-31T10:27:14Z</time>
      </trkpt>
      <trkpt lat="44.79397" lon="6.94565">
        <ele>2012.18</ele>
        <time>2012-07-31T10:27:21Z</time>
      </trkpt>
      <trkpt lat="44.79397" lon="6.94565">
        <ele>2005.93</ele>
        <time>2012-07-31T10:27:22Z</time>
      </trkpt>
      <trkpt lat="44.79396" lon="6.94568">
        <ele>2005.45</ele>
        <time>2012-07-31T10:27:50Z</time>
      </trkpt>
      <trkpt lat="44.79396" lon="6.94568">
        <ele>2000.16</ele>
        <time>2012-07-31T10:27:51Z</time>
      </trkpt>
      <trkpt lat="44.79395" lon="6.94568">
        <ele>2010.25</ele>
        <time>2012-07-31T10:27:52Z</time>
      </trkpt>
      <trkpt lat="44.79395" lon="6.94569">
        <ele>2006.41</ele>
        <time>2012-07-31T10:27:53Z</time>
      </trkpt>
      <trkpt lat="44.79396" lon="6.94568">
        <ele>2003.04</ele>
        <time>2012-07-31T10:28:07Z</time>
      </trkpt>
      <trkpt lat="44.79396" lon="6.94568">
        <ele>2003.04</ele>
        <time>2012-07-31T10:28:08Z</time>
      </trkpt>
      <trkpt lat="44.79396" lon="6.94568">
        <ele>2006.41</ele>
        <time>2012-07-31T10:28:13Z</time>
      </trkpt>
      <trkpt lat="44.79396" lon="6.94569">
        <ele>2003.04</ele>
        <time>2012-07-31T10:28:21Z</time>
      </trkpt>
      <trkpt lat="44.79396" lon="6.94569">
        <ele>2004.97</ele>
        <time>2012-07-31T10:28:22Z</time>
      </trkpt>
      <trkpt lat="44.79396" lon="6.94569">
        <ele>2005.45</ele>
        <time>2012-07-31T10:28:24Z</time>
      </trkpt>
      <trkpt lat="44.79396" lon="6.94568">
        <ele>2005.45</ele>
        <time>2012-07-31T10:28:33Z</time>
      </trkpt>
      <trkpt lat="44.79397" lon="6.94568">
        <ele>2004.01</ele>
        <time>2012-07-31T10:28:55Z</time>
      </trkpt>
      <trkpt lat="44.79397" lon="6.94567">
        <ele>2003.52</ele>
        <time>2012-07-31T10:29:18Z</time>
      </trkpt>
      <trkpt lat="44.79397" lon="6.94567">
        <ele>2007.37</ele>
        <time>2012-07-31T10:29:19Z</time>
      </trkpt>
      <trkpt lat="44.79397" lon="6.94567">
        <ele>2005.45</ele>
        <time>2012-07-31T10:29:20Z</time>
      </trkpt>
      <trkpt lat="44.79396" lon="6.94566">
        <ele>2006.41</ele>
        <time>2012-07-31T10:29:49Z</time>
      </trkpt>
      <trkpt lat="44.79397" lon="6.94567">
        <ele>2010.25</ele>
        <time>2012-07-31T10:30:05Z</time>
      </trkpt>
      <trkpt lat="44.79397" lon="6.94567">
        <ele>2006.41</ele>
        <time>2012-07-31T10:30:06Z</time>
      </trkpt>
      <trkpt lat="44.79394" lon="6.94567">
        <ele>2006.41</ele>
        <time>2012-07-31T10:30:29Z</time>
      </trkpt>
      <trkpt lat="44.79393" lon="6.94565">
        <ele>2006.41</ele>
        <time>2012-07-31T10:30:51Z</time>
      </trkpt>
      <trkpt lat="44.79393" lon="6.94565">
        <ele>2004.97</ele>
        <time>2012-07-31T10:30:56Z</time>
      </trkpt>
      <trkpt lat="44.79393" lon="6.94565">
        <ele>2006.41</ele>
        <time>2012-07-31T10:30:58Z</time>
      </trkpt>
      <trkpt lat="44.79394" lon="6.94565">
        <ele>2002.56</ele>
        <time>2012-07-31T10:31:01Z</time>
      </trkpt>
      <trkpt lat="44.79394" lon="6.94565">
        <ele>2008.81</ele>
        <time>2012-07-31T10:31:02Z</time>
      </trkpt>
      <trkpt lat="44.79394" lon="6.94565">
        <ele>2004.97</ele>
        <time>2012-07-31T10:31:03Z</time>
      </trkpt>
      <trkpt lat="44.79393" lon="6.94564">
        <ele>2007.85</ele>
        <time>2012-07-31T10:31:04Z</time>
      </trkpt>
      <trkpt lat="44.79393" lon="6.94564">
        <ele>1998.24</ele>
        <time>2012-07-31T10:31:05Z</time>
      </trkpt>
      <trkpt lat="44.79393" lon="6.94563">
        <ele>2013.62</ele>
        <time>2012-07-31T10:31:06Z</time>
      </trkpt>
      <trkpt lat="44.79393" lon="6.94563">
        <ele>2005.93</ele>
        <time>2012-07-31T10:31:07Z</time>
      </trkpt>
      <trkpt lat="44.79393" lon="6.94564">
        <ele>2006.41</ele>
        <time>2012-07-31T10:31:39Z</time>
      </trkpt>
      <trkpt lat="44.79393" lon="6.94563">
        <ele>2009.77</ele>
        <time>2012-07-31T10:31:50Z</time>
      </trkpt>
      <trkpt lat="44.79393" lon="6.94563">
        <ele>2007.37</ele>
        <time>2012-07-31T10:31:51Z</time>
      </trkpt>
      <trkpt lat="44.79394" lon="6.94563">
        <ele>2006.89</ele>
        <time>2012-07-31T10:32:23Z</time>
      </trkpt>
      <trkpt lat="44.79395" lon="6.94562">
        <ele>2006.89</ele>
        <time>2012-07-31T10:32:56Z</time>
      </trkpt>
      <trkpt lat="44.79398" lon="6.94563">
        <ele>2006.89</ele>
        <time>2012-07-31T10:33:39Z</time>
      </trkpt>
      <trkpt lat="44.79396" lon="6.94562">
        <ele>2007.37</ele>
        <time>2012-07-31T10:34:10Z</time>
      </trkpt>
      <trkpt lat="44.79397" lon="6.94561">
        <ele>2007.37</ele>
        <time>2012-07-31T10:34:35Z</time>
      </trkpt>
      <trkpt lat="44.79395" lon="6.94555">
        <ele>2009.77</ele>
        <time>2012-07-31T10:35:06Z</time>
      </trkpt>
      <trkpt lat="44.79396" lon="6.94559">
        <ele>2004.97</ele>
        <time>2012-07-31T10:35:21Z</time>
      </trkpt>
      <trkpt lat="44.79396" lon="6.94559">
        <ele>2012.18</ele>
        <time>2012-07-31T10:35:22Z</time>
      </trkpt>
      <trkpt lat="44.79396" lon="6.94559">
        <ele>2009.29</ele>
        <time>2012-07-31T10:35:23Z</time>
      </trkpt>
      <trkpt lat="44.79391" lon="6.94568">
        <ele>2008.33</ele>
        <time>2012-07-31T10:35:41Z</time>
      </trkpt>
      <trkpt lat="44.79389" lon="6.94569">
        <ele>2008.33</ele>
        <time>2012-07-31T10:35:53Z</time>
      </trkpt>
      <trkpt lat="44.7938" lon="6.94602">
        <ele>2006.89</ele>
        <time>2012-07-31T10:36:15Z</time>
      </trkpt>
      <trkpt lat="44.79379" lon="6.94605">
        <ele>2009.29</ele>
        <time>2012-07-31T10:36:17Z</time>
      </trkpt>
      <trkpt lat="44.79379" lon="6.94606">
        <ele>2005.93</ele>
        <time>2012-07-31T10:36:18Z</time>
      </trkpt>
      <trkpt lat="44.79378" lon="6.94608">
        <ele>2010.25</ele>
        <time>2012-07-31T10:36:19Z</time>
      </trkpt>
      <trkpt lat="44.79378" lon="6.94611">
        <ele>2008.33</ele>
        <time>2012-07-31T10:36:21Z</time>
      </trkpt>
      <trkpt lat="44.7938" lon="6.94561">
        <ele>2008.33</ele>
        <time>2012-07-31T10:37:37Z</time>
      </trkpt>
      <trkpt lat="44.79383" lon="6.9456">
        <ele>2008.33</ele>
        <time>2012-07-31T10:37:38Z</time>
      </trkpt>
      <trkpt lat="44.79394" lon="6.94558">
        <ele>2012.66</ele>
        <time>2012-07-31T10:37:52Z</time>
      </trkpt>
      <trkpt lat="44.79395" lon="6.94559">
        <ele>2004.49</ele>
        <time>2012-07-31T10:37:53Z</time>
      </trkpt>
      <trkpt lat="44.79395" lon="6.94559">
        <ele>2010.25</ele>
        <time>2012-07-31T10:37:54Z</time>
      </trkpt>
      <trkpt lat="44.79395" lon="6.9456">
        <ele>1997.76</ele>
        <time>2012-07-31T10:37:55Z</time>
      </trkpt>
      <trkpt lat="44.79395" lon="6.9456">
        <ele>2016.5</ele>
        <time>2012-07-31T10:37:56Z</time>
      </trkpt>
      <trkpt lat="44.79396" lon="6.9456">
        <ele>2007.85</ele>
        <time>2012-07-31T10:37:57Z</time>
      </trkpt>
      <trkpt lat="44.79391" lon="6.94564">
        <ele>2007.85</ele>
        <time>2012-07-31T10:38:24Z</time>
      </trkpt>
      <trkpt lat="44.79393" lon="6.94563">
        <ele>2008.33</ele>
        <time>2012-07-31T10:38:26Z</time>
      </trkpt>
      <trkpt lat="44.79405" lon="6.94564">
        <ele>2008.81</ele>
        <time>2012-07-31T10:38:51Z</time>
      </trkpt>
      <trkpt lat="44.79396" lon="6.94554">
        <ele>2008.81</ele>
        <time>2012-07-31T10:39:19Z</time>
      </trkpt>
      <trkpt lat="44.79396" lon="6.94554">
        <ele>2011.22</ele>
        <time>2012-07-31T10:39:46Z</time>
      </trkpt>
      <trkpt lat="44.79396" lon="6.94554">
        <ele>2008.81</ele>
        <time>2012-07-31T10:39:47Z</time>
      </trkpt>
      <trkpt lat="44.79396" lon="6.94556">
        <ele>2008.33</ele>
        <time>2012-07-31T10:40:27Z</time>
      </trkpt>
      <trkpt lat="44.79397" lon="6.94557">
        <ele>2008.81</ele>
        <time>2012-07-31T10:40:57Z</time>
      </trkpt>
      <trkpt lat="44.79396" lon="6.94558">
        <ele>2008.81</ele>
        <time>2012-07-31T10:41:29Z</time>
      </trkpt>
      <trkpt lat="44.79394" lon="6.94557">
        <ele>2008.81</ele>
        <time>2012-07-31T10:41:58Z</time>
      </trkpt>
      <trkpt lat="44.79391" lon="6.94557">
        <ele>2008.33</ele>
        <time>2012-07-31T10:42:28Z</time>
      </trkpt>
      <trkpt lat="44.79394" lon="6.94559">
        <ele>2008.81</ele>
        <time>2012-07-31T10:43:04Z</time>
      </trkpt>
      <trkpt lat="44.79394" lon="6.94558">
        <ele>2009.77</ele>
        <time>2012-07-31T10:43:39Z</time>
      </trkpt>
      <trkpt lat="44.79394" lon="6.94558">
        <ele>2009.29</ele>
        <time>2012-07-31T10:44:18Z</time>
      </trkpt>
      <trkpt lat="44.79393" lon="6.94558">
        <ele>2009.77</ele>
        <time>2012-07-31T10:44:52Z</time>
      </trkpt>
      <trkpt lat="44.79393" lon="6.9456">
        <ele>2010.73</ele>
        <time>2012-07-31T10:45:34Z</time>
      </trkpt>
      <trkpt lat="44.79393" lon="6.9456">
        <ele>2004.49</ele>
        <time>2012-07-31T10:46:01Z</time>
      </trkpt>
      <trkpt lat="44.79393" lon="6.9456">
        <ele>2010.25</ele>
        <time>2012-07-31T10:46:02Z</time>
      </trkpt>
      <trkpt lat="44.79393" lon="6.9456">
        <ele>2012.18</ele>
        <time>2012-07-31T10:46:03Z</time>
      </trkpt>
      <trkpt lat="44.79394" lon="6.94561">
        <ele>2010.73</ele>
        <time>2012-07-31T10:46:05Z</time>
      </trkpt>
      <trkpt lat="44.79395" lon="6.94563">
        <ele>2010.73</ele>
        <time>2012-07-31T10:46:08Z</time>
      </trkpt>
      <trkpt lat="44.79397" lon="6.94568">
        <ele>2014.58</ele>
        <time>2012-07-31T10:46:19Z</time>
      </trkpt>
      <trkpt lat="44.79395" lon="6.94565">
        <ele>2013.62</ele>
        <time>2012-07-31T10:46:20Z</time>
      </trkpt>
      <trkpt lat="44.79395" lon="6.94565">
        <ele>2010.73</ele>
        <time>2012-07-31T10:46:22Z</time>
      </trkpt>
      <trkpt lat="44.79392" lon="6.94563">
        <ele>2006.89</ele>
        <time>2012-07-31T10:46:29Z</time>
      </trkpt>
      <trkpt lat="44.79392" lon="6.94563">
        <ele>2008.33</ele>
        <time>2012-07-31T10:46:30Z</time>
      </trkpt>
      <trkpt lat="44.79393" lon="6.94563">
        <ele>2012.18</ele>
        <time>2012-07-31T10:46:31Z</time>
      </trkpt>
      <trkpt lat="44.79393" lon="6.94563">
        <ele>2011.7</ele>
        <time>2012-07-31T10:46:32Z</time>
      </trkpt>
      <trkpt lat="44.79393" lon="6.94563">
        <ele>2011.22</ele>
        <time>2012-07-31T10:46:34Z</time>
      </trkpt>
      <trkpt lat="44.79399" lon="6.94566">
        <ele>2012.18</ele>
        <time>2012-07-31T10:46:55Z</time>
      </trkpt>
      <trkpt lat="44.794" lon="6.94567">
        <ele>2011.22</ele>
        <time>2012-07-31T10:46:57Z</time>
      </trkpt>
      <trkpt lat="44.79397" lon="6.94565">
        <ele>2012.18</ele>
        <time>2012-07-31T10:47:21Z</time>
      </trkpt>
      <trkpt lat="44.79391" lon="6.94558">
        <ele>2014.58</ele>
        <time>2012-07-31T10:47:32Z</time>
      </trkpt>
      <trkpt lat="44.79393" lon="6.9456">
        <ele>2011.7</ele>
        <time>2012-07-31T10:47:34Z</time>
      </trkpt>
      <trkpt lat="44.79392" lon="6.94559">
        <ele>2012.18</ele>
        <time>2012-07-31T10:47:59Z</time>
      </trkpt>
      <trkpt lat="44.79392" lon="6.94559">
        <ele>2008.81</ele>
        <time>2012-07-31T10:48:00Z</time>
      </trkpt>
      <trkpt lat="44.79392" lon="6.94559">
        <ele>2013.62</ele>
        <time>2012-07-31T10:48:01Z</time>
      </trkpt>
      <trkpt lat="44.79392" lon="6.94559">
        <ele>2013.62</ele>
        <time>2012-07-31T10:48:02Z</time>
      </trkpt>
      <trkpt lat="44.79392" lon="6.9456">
        <ele>2011.7</ele>
        <time>2012-07-31T10:48:34Z</time>
      </trkpt>
      <trkpt lat="44.79391" lon="6.94561">
        <ele>2013.14</ele>
        <time>2012-07-31T10:48:56Z</time>
      </trkpt>
      <trkpt lat="44.79391" lon="6.94561">
        <ele>2006.89</ele>
        <time>2012-07-31T10:48:58Z</time>
      </trkpt>
      <trkpt lat="44.79391" lon="6.94561">
        <ele>2014.58</ele>
        <time>2012-07-31T10:48:59Z</time>
      </trkpt>
      <trkpt lat="44.79391" lon="6.94561">
        <ele>2011.22</ele>
        <time>2012-07-31T10:49:00Z</time>
      </trkpt>
      <trkpt lat="44.79391" lon="6.94561">
        <ele>2012.66</ele>
        <time>2012-07-31T10:49:01Z</time>
      </trkpt>
      <trkpt lat="44.79391" lon="6.94561">
        <ele>2010.73</ele>
        <time>2012-07-31T10:49:02Z</time>
      </trkpt>
      <trkpt lat="44.79391" lon="6.94561">
        <ele>2014.1</ele>
        <time>2012-07-31T10:49:03Z</time>
      </trkpt>
      <trkpt lat="44.79392" lon="6.94561">
        <ele>2012.66</ele>
        <time>2012-07-31T10:49:04Z</time>
      </trkpt>
      <trkpt lat="44.79393" lon="6.9456">
        <ele>2008.81</ele>
        <time>2012-07-31T10:49:11Z</time>
      </trkpt>
      <trkpt lat="44.79393" lon="6.9456">
        <ele>2014.58</ele>
        <time>2012-07-31T10:49:12Z</time>
      </trkpt>
      <trkpt lat="44.79393" lon="6.9456">
        <ele>2014.58</ele>
        <time>2012-07-31T10:49:13Z</time>
      </trkpt>
      <trkpt lat="44.79393" lon="6.94561">
        <ele>2012.18</ele>
        <time>2012-07-31T10:49:15Z</time>
      </trkpt>
      <trkpt lat="44.79394" lon="6.94561">
        <ele>2012.66</ele>
        <time>2012-07-31T10:49:49Z</time>
      </trkpt>
      <trkpt lat="44.79394" lon="6.94561">
        <ele>2013.14</ele>
        <time>2012-07-31T10:49:53Z</time>
      </trkpt>
      <trkpt lat="44.79394" lon="6.94563">
        <ele>2013.62</ele>
        <time>2012-07-31T10:50:09Z</time>
      </trkpt>
      <trkpt lat="44.79395" lon="6.94562">
        <ele>2014.1</ele>
        <time>2012-07-31T10:50:20Z</time>
      </trkpt>
      <trkpt lat="44.79395" lon="6.94562">
        <ele>2012.66</ele>
        <time>2012-07-31T10:50:22Z</time>
      </trkpt>
      <trkpt lat="44.79395" lon="6.94561">
        <ele>2011.7</ele>
        <time>2012-07-31T10:50:32Z</time>
      </trkpt>
      <trkpt lat="44.79395" lon="6.94561">
        <ele>2008.81</ele>
        <time>2012-07-31T10:50:35Z</time>
      </trkpt>
      <trkpt lat="44.79395" lon="6.94561">
        <ele>2015.54</ele>
        <time>2012-07-31T10:50:36Z</time>
      </trkpt>
      <trkpt lat="44.79395" lon="6.94561">
        <ele>2013.62</ele>
        <time>2012-07-31T10:50:37Z</time>
      </trkpt>
      <trkpt lat="44.79395" lon="6.9456">
        <ele>2009.29</ele>
        <time>2012-07-31T10:50:39Z</time>
      </trkpt>
      <trkpt lat="44.79395" lon="6.9456">
        <ele>2016.02</ele>
        <time>2012-07-31T10:50:40Z</time>
      </trkpt>
      <trkpt lat="44.79395" lon="6.9456">
        <ele>2013.62</ele>
        <time>2012-07-31T10:50:41Z</time>
      </trkpt>
      <trkpt lat="44.79395" lon="6.9456">
        <ele>2012.18</ele>
        <time>2012-07-31T10:50:42Z</time>
      </trkpt>
      <trkpt lat="44.79395" lon="6.9456">
        <ele>2009.29</ele>
        <time>2012-07-31T10:50:46Z</time>
      </trkpt>
      <trkpt lat="44.79395" lon="6.9456">
        <ele>2015.54</ele>
        <time>2012-07-31T10:50:47Z</time>
      </trkpt>
      <trkpt lat="44.79394" lon="6.9456">
        <ele>2012.66</ele>
        <time>2012-07-31T10:50:50Z</time>
      </trkpt>
      <trkpt lat="44.79394" lon="6.94559">
        <ele>2015.54</ele>
        <time>2012-07-31T10:50:55Z</time>
      </trkpt>
      <trkpt lat="44.79394" lon="6.94559">
        <ele>2012.18</ele>
        <time>2012-07-31T10:50:56Z</time>
      </trkpt>
      <trkpt lat="44.79395" lon="6.94559">
        <ele>2010.25</ele>
        <time>2012-07-31T10:51:00Z</time>
      </trkpt>
      <trkpt lat="44.79395" lon="6.94559">
        <ele>2012.66</ele>
        <time>2012-07-31T10:51:01Z</time>
      </trkpt>
      <trkpt lat="44.79395" lon="6.94559">
        <ele>2015.06</ele>
        <time>2012-07-31T10:51:02Z</time>
      </trkpt>
      <trkpt lat="44.79394" lon="6.94559">
        <ele>2012.66</ele>
        <time>2012-07-31T10:51:05Z</time>
      </trkpt>
      <trkpt lat="44.79394" lon="6.94559">
        <ele>2008.81</ele>
        <time>2012-07-31T10:51:06Z</time>
      </trkpt>
      <trkpt lat="44.79394" lon="6.94559">
        <ele>2015.06</ele>
        <time>2012-07-31T10:51:07Z</time>
      </trkpt>
      <trkpt lat="44.79394" lon="6.94559">
        <ele>2015.06</ele>
        <time>2012-07-31T10:51:08Z</time>
      </trkpt>
      <trkpt lat="44.79394" lon="6.94559">
        <ele>2012.66</ele>
        <time>2012-07-31T10:51:10Z</time>
      </trkpt>
      <trkpt lat="44.79395" lon="6.94559">
        <ele>2008.81</ele>
        <time>2012-07-31T10:51:12Z</time>
      </trkpt>
      <trkpt lat="44.79395" lon="6.94559">
        <ele>2015.54</ele>
        <time>2012-07-31T10:51:13Z</time>
      </trkpt>
      <trkpt lat="44.79395" lon="6.94559">
        <ele>2014.1</ele>
        <time>2012-07-31T10:51:14Z</time>
      </trkpt>
      <trkpt lat="44.79395" lon="6.94559">
        <ele>2012.66</ele>
        <time>2012-07-31T10:51:15Z</time>
      </trkpt>
      <trkpt lat="44.79395" lon="6.94559">
        <ele>2007.37</ele>
        <time>2012-07-31T10:51:17Z</time>
      </trkpt>
      <trkpt lat="44.79395" lon="6.94559">
        <ele>2007.37</ele>
        <time>2012-07-31T10:51:18Z</time>
      </trkpt>
      <trkpt lat="44.79395" lon="6.94559">
        <ele>2018.43</ele>
        <time>2012-07-31T10:51:19Z</time>
      </trkpt>
      <trkpt lat="44.79395" lon="6.94559">
        <ele>2014.1</ele>
        <time>2012-07-31T10:51:20Z</time>
      </trkpt>
      <trkpt lat="44.79395" lon="6.94559">
        <ele>2011.22</ele>
        <time>2012-07-31T10:51:21Z</time>
      </trkpt>
      <trkpt lat="44.79395" lon="6.94559">
        <ele>2014.1</ele>
        <time>2012-07-31T10:51:25Z</time>
      </trkpt>
      <trkpt lat="44.79394" lon="6.9456">
        <ele>2011.22</ele>
        <time>2012-07-31T10:51:31Z</time>
      </trkpt>
      <trkpt lat="44.79393" lon="6.94561">
        <ele>2014.1</ele>
        <time>2012-07-31T10:51:34Z</time>
      </trkpt>
      <trkpt lat="44.7939" lon="6.94563">
        <ele>2011.22</ele>
        <time>2012-07-31T10:51:40Z</time>
      </trkpt>
      <trkpt lat="44.7939" lon="6.94563">
        <ele>2014.1</ele>
        <time>2012-07-31T10:51:44Z</time>
      </trkpt>
      <trkpt lat="44.79389" lon="6.94562">
        <ele>2013.62</ele>
        <time>2012-07-31T10:51:52Z</time>
      </trkpt>
      <trkpt lat="44.79389" lon="6.94562">
        <ele>2013.14</ele>
        <time>2012-07-31T10:51:54Z</time>
      </trkpt>
      <trkpt lat="44.7939" lon="6.9456">
        <ele>2013.14</ele>
        <time>2012-07-31T10:52:21Z</time>
      </trkpt>
      <trkpt lat="44.79393" lon="6.94559">
        <ele>2012.18</ele>
        <time>2012-07-31T10:52:51Z</time>
      </trkpt>
      <trkpt lat="44.79394" lon="6.94559">
        <ele>1999.2</ele>
        <time>2012-07-31T10:53:00Z</time>
      </trkpt>
      <trkpt lat="44.79394" lon="6.94559">
        <ele>2021.31</ele>
        <time>2012-07-31T10:53:01Z</time>
      </trkpt>
      <trkpt lat="44.79394" lon="6.94559">
        <ele>2019.39</ele>
        <time>2012-07-31T10:53:02Z</time>
      </trkpt>
      <trkpt lat="44.79394" lon="6.94559">
        <ele>2010.73</ele>
        <time>2012-07-31T10:53:03Z</time>
      </trkpt>
      <trkpt lat="44.79394" lon="6.94559">
        <ele>2026.6</ele>
        <time>2012-07-31T10:53:06Z</time>
      </trkpt>
      <trkpt lat="44.79394" lon="6.9456">
        <ele>2014.58</ele>
        <time>2012-07-31T10:53:07Z</time>
      </trkpt>
      <trkpt lat="44.79394" lon="6.9456">
        <ele>2013.14</ele>
        <time>2012-07-31T10:53:09Z</time>
      </trkpt>
      <trkpt lat="44.79394" lon="6.9456">
        <ele>2005.45</ele>
        <time>2012-07-31T10:53:14Z</time>
      </trkpt>
      <trkpt lat="44.79394" lon="6.9456">
        <ele>2005.45</ele>
        <time>2012-07-31T10:53:15Z</time>
      </trkpt>
      <trkpt lat="44.79394" lon="6.9456">
        <ele>2019.87</ele>
        <time>2012-07-31T10:53:16Z</time>
      </trkpt>
      <trkpt lat="44.79394" lon="6.9456">
        <ele>2012.18</ele>
        <time>2012-07-31T10:53:17Z</time>
      </trkpt>
      <trkpt lat="44.79394" lon="6.9456">
        <ele>2014.1</ele>
        <time>2012-07-31T10:53:18Z</time>
      </trkpt>
      <trkpt lat="44.79394" lon="6.94559">
        <ele>2013.14</ele>
        <time>2012-07-31T10:53:44Z</time>
      </trkpt>
      <trkpt lat="44.79394" lon="6.94559">
        <ele>2010.73</ele>
        <time>2012-07-31T10:53:45Z</time>
      </trkpt>
      <trkpt lat="44.79394" lon="6.94559">
        <ele>2015.54</ele>
        <time>2012-07-31T10:53:46Z</time>
      </trkpt>
      <trkpt lat="44.79394" lon="6.94559">
        <ele>2014.1</ele>
        <time>2012-07-31T10:53:47Z</time>
      </trkpt>
      <trkpt lat="44.79394" lon="6.94559">
        <ele>2014.58</ele>
        <time>2012-07-31T10:53:51Z</time>
      </trkpt>
      <trkpt lat="44.79394" lon="6.94559">
        <ele>2013.14</ele>
        <time>2012-07-31T10:53:52Z</time>
      </trkpt>
      <trkpt lat="44.79395" lon="6.9456">
        <ele>2015.06</ele>
        <time>2012-07-31T10:53:57Z</time>
      </trkpt>
      <trkpt lat="44.79393" lon="6.94558">
        <ele>2015.06</ele>
        <time>2012-07-31T10:54:09Z</time>
      </trkpt>
      <trkpt lat="44.79393" lon="6.94558">
        <ele>2010.25</ele>
        <time>2012-07-31T10:54:10Z</time>
      </trkpt>
      <trkpt lat="44.79393" lon="6.94557">
        <ele>2015.54</ele>
        <time>2012-07-31T10:54:11Z</time>
      </trkpt>
      <trkpt lat="44.79392" lon="6.94556">
        <ele>2012.18</ele>
        <time>2012-07-31T10:54:13Z</time>
      </trkpt>
      <trkpt lat="44.79392" lon="6.94556">
        <ele>2012.18</ele>
        <time>2012-07-31T10:54:14Z</time>
      </trkpt>
      <trkpt lat="44.79392" lon="6.94556">
        <ele>2014.58</ele>
        <time>2012-07-31T10:54:15Z</time>
      </trkpt>
      <trkpt lat="44.79392" lon="6.94556">
        <ele>2016.02</ele>
        <time>2012-07-31T10:54:16Z</time>
      </trkpt>
      <trkpt lat="44.79392" lon="6.94556">
        <ele>2013.62</ele>
        <time>2012-07-31T10:54:17Z</time>
      </trkpt>
      <trkpt lat="44.79392" lon="6.94557">
        <ele>2011.7</ele>
        <time>2012-07-31T10:54:21Z</time>
      </trkpt>
      <trkpt lat="44.79392" lon="6.94557">
        <ele>2014.58</ele>
        <time>2012-07-31T10:54:23Z</time>
      </trkpt>
      <trkpt lat="44.79391" lon="6.94557">
        <ele>2016.5</ele>
        <time>2012-07-31T10:54:38Z</time>
      </trkpt>
      <trkpt lat="44.79391" lon="6.94557">
        <ele>2014.1</ele>
        <time>2012-07-31T10:54:39Z</time>
      </trkpt>
      <trkpt lat="44.79382" lon="6.94555">
        <ele>2013.62</ele>
        <time>2012-07-31T10:55:04Z</time>
      </trkpt>
      <trkpt lat="44.79376" lon="6.94564">
        <ele>2008.33</ele>
        <time>2012-07-31T10:55:12Z</time>
      </trkpt>
      <trkpt lat="44.79375" lon="6.94565">
        <ele>2016.5</ele>
        <time>2012-07-31T10:55:13Z</time>
      </trkpt>
      <trkpt lat="44.79375" lon="6.94566">
        <ele>2015.54</ele>
        <time>2012-07-31T10:55:14Z</time>
      </trkpt>
      <trkpt lat="44.79374" lon="6.94567">
        <ele>2014.1</ele>
        <time>2012-07-31T10:55:15Z</time>
      </trkpt>
      <trkpt lat="44.79375" lon="6.94562">
        <ele>2015.54</ele>
        <time>2012-07-31T10:55:39Z</time>
      </trkpt>
      <trkpt lat="44.79375" lon="6.94564">
        <ele>2014.1</ele>
        <time>2012-07-31T10:55:41Z</time>
      </trkpt>
      <trkpt lat="44.79384" lon="6.94568">
        <ele>2012.18</ele>
        <time>2012-07-31T10:56:05Z</time>
      </trkpt>
      <trkpt lat="44.79384" lon="6.94567">
        <ele>2015.54</ele>
        <time>2012-07-31T10:56:06Z</time>
      </trkpt>
      <trkpt lat="44.79384" lon="6.94565">
        <ele>2013.62</ele>
        <time>2012-07-31T10:56:09Z</time>
      </trkpt>
      <trkpt lat="44.79384" lon="6.94564">
        <ele>2015.06</ele>
        <time>2012-07-31T10:56:25Z</time>
      </trkpt>
      <trkpt lat="44.79387" lon="6.94564">
        <ele>2012.18</ele>
        <time>2012-07-31T10:56:39Z</time>
      </trkpt>
      <trkpt lat="44.79387" lon="6.94564">
        <ele>2015.06</ele>
        <time>2012-07-31T10:56:41Z</time>
      </trkpt>
      <trkpt lat="44.79389" lon="6.94564">
        <ele>2014.58</ele>
        <time>2012-07-31T10:56:42Z</time>
      </trkpt>
      <trkpt lat="44.79396" lon="6.94567">
        <ele>2014.58</ele>
        <time>2012-07-31T10:56:47Z</time>
      </trkpt>
      <trkpt lat="44.79405" lon="6.94564">
        <ele>2014.1</ele>
        <time>2012-07-31T10:56:56Z</time>
      </trkpt>
      <trkpt lat="44.794" lon="6.94557">
        <ele>2015.06</ele>
        <time>2012-07-31T10:57:04Z</time>
      </trkpt>
      <trkpt lat="44.79395" lon="6.94559">
        <ele>2013.14</ele>
        <time>2012-07-31T10:57:10Z</time>
      </trkpt>
      <trkpt lat="44.79392" lon="6.94561">
        <ele>2015.06</ele>
        <time>2012-07-31T10:57:13Z</time>
      </trkpt>
      <trkpt lat="44.79389" lon="6.94563">
        <ele>2014.1</ele>
        <time>2012-07-31T10:57:15Z</time>
      </trkpt>
      <trkpt lat="44.79385" lon="6.94563">
        <ele>2015.54</ele>
        <time>2012-07-31T10:57:20Z</time>
      </trkpt>
      <trkpt lat="44.79384" lon="6.94563">
        <ele>2013.62</ele>
        <time>2012-07-31T10:57:21Z</time>
      </trkpt>
      <trkpt lat="44.79385" lon="6.9456">
        <ele>2016.02</ele>
        <time>2012-07-31T10:57:30Z</time>
      </trkpt>
      <trkpt lat="44.79385" lon="6.9456">
        <ele>2014.58</ele>
        <time>2012-07-31T10:57:31Z</time>
      </trkpt>
      <trkpt lat="44.79385" lon="6.9456">
        <ele>2013.14</ele>
        <time>2012-07-31T10:57:32Z</time>
      </trkpt>
      <trkpt lat="44.79385" lon="6.94559">
        <ele>2011.7</ele>
        <time>2012-07-31T10:57:34Z</time>
      </trkpt>
      <trkpt lat="44.79385" lon="6.94559">
        <ele>2015.54</ele>
        <time>2012-07-31T10:57:35Z</time>
      </trkpt>
      <trkpt lat="44.79385" lon="6.94559">
        <ele>2012.66</ele>
        <time>2012-07-31T10:57:36Z</time>
      </trkpt>
      <trkpt lat="44.79385" lon="6.94559">
        <ele>2016.5</ele>
        <time>2012-07-31T10:57:37Z</time>
      </trkpt>
      <trkpt lat="44.79386" lon="6.94559">
        <ele>2014.58</ele>
        <time>2012-07-31T10:57:38Z</time>
      </trkpt>
      <trkpt lat="44.79386" lon="6.94559">
        <ele>2013.14</ele>
        <time>2012-07-31T10:57:39Z</time>
      </trkpt>
      <trkpt lat="44.79386" lon="6.94559">
        <ele>2009.77</ele>
        <time>2012-07-31T10:57:43Z</time>
      </trkpt>
      <trkpt lat="44.79386" lon="6.94559">
        <ele>2016.02</ele>
        <time>2012-07-31T10:57:44Z</time>
      </trkpt>
      <trkpt lat="44.79386" lon="6.9456">
        <ele>2012.18</ele>
        <time>2012-07-31T10:57:49Z</time>
      </trkpt>
      <trkpt lat="44.79386" lon="6.9456">
        <ele>2012.18</ele>
        <time>2012-07-31T10:57:50Z</time>
      </trkpt>
      <trkpt lat="44.79386" lon="6.94559">
        <ele>2014.1</ele>
        <time>2012-07-31T10:57:51Z</time>
      </trkpt>
      <trkpt lat="44.79385" lon="6.94559">
        <ele>2015.06</ele>
        <time>2012-07-31T10:57:57Z</time>
      </trkpt>
      <trkpt lat="44.79385" lon="6.94558">
        <ele>2013.62</ele>
        <time>2012-07-31T10:58:05Z</time>
      </trkpt>
      <trkpt lat="44.79385" lon="6.94558">
        <ele>2010.25</ele>
        <time>2012-07-31T10:58:08Z</time>
      </trkpt>
      <trkpt lat="44.79385" lon="6.94558">
        <ele>2015.54</ele>
        <time>2012-07-31T10:58:09Z</time>
      </trkpt>
      <trkpt lat="44.79385" lon="6.94558">
        <ele>2015.54</ele>
        <time>2012-07-31T10:58:10Z</time>
      </trkpt>
      <trkpt lat="44.79385" lon="6.94558">
        <ele>2014.1</ele>
        <time>2012-07-31T10:58:12Z</time>
      </trkpt>
      <trkpt lat="44.79386" lon="6.94559">
        <ele>2012.18</ele>
        <time>2012-07-31T10:58:18Z</time>
      </trkpt>
      <trkpt lat="44.79386" lon="6.94559">
        <ele>2016.98</ele>
        <time>2012-07-31T10:58:19Z</time>
      </trkpt>
      <trkpt lat="44.79386" lon="6.94559">
        <ele>2016.98</ele>
        <time>2012-07-31T10:58:20Z</time>
      </trkpt>
      <trkpt lat="44.79386" lon="6.94559">
        <ele>2014.1</ele>
        <time>2012-07-31T10:58:21Z</time>
      </trkpt>
      <trkpt lat="44.79386" lon="6.94561">
        <ele>2017.46</ele>
        <time>2012-07-31T10:58:43Z</time>
      </trkpt>
      <trkpt lat="44.79386" lon="6.94563">
        <ele>2014.1</ele>
        <time>2012-07-31T10:58:45Z</time>
      </trkpt>
      <trkpt lat="44.79388" lon="6.9457">
        <ele>2015.54</ele>
        <time>2012-07-31T10:58:53Z</time>
      </trkpt>
      <trkpt lat="44.79388" lon="6.9457">
        <ele>2014.58</ele>
        <time>2012-07-31T10:58:54Z</time>
      </trkpt>
      <trkpt lat="44.79388" lon="6.94569">
        <ele>2015.54</ele>
        <time>2012-07-31T10:59:00Z</time>
      </trkpt>
      <trkpt lat="44.79388" lon="6.94568">
        <ele>2012.18</ele>
        <time>2012-07-31T10:59:04Z</time>
      </trkpt>
      <trkpt lat="44.79388" lon="6.94567">
        <ele>2012.18</ele>
        <time>2012-07-31T10:59:05Z</time>
      </trkpt>
      <trkpt lat="44.79388" lon="6.94567">
        <ele>2017.46</ele>
        <time>2012-07-31T10:59:06Z</time>
      </trkpt>
      <trkpt lat="44.79388" lon="6.94567">
        <ele>2014.58</ele>
        <time>2012-07-31T10:59:07Z</time>
      </trkpt>
      <trkpt lat="44.79387" lon="6.94565">
        <ele>2007.85</ele>
        <time>2012-07-31T10:59:11Z</time>
      </trkpt>
      <trkpt lat="44.79387" lon="6.94565">
        <ele>2007.85</ele>
        <time>2012-07-31T10:59:12Z</time>
      </trkpt>
      <trkpt lat="44.79387" lon="6.94565">
        <ele>2018.91</ele>
        <time>2012-07-31T10:59:13Z</time>
      </trkpt>
      <trkpt lat="44.79387" lon="6.94565">
        <ele>2016.98</ele>
        <time>2012-07-31T10:59:14Z</time>
      </trkpt>
      <trkpt lat="44.79387" lon="6.94565">
        <ele>2014.1</ele>
        <time>2012-07-31T10:59:16Z</time>
      </trkpt>
      <trkpt lat="44.79387" lon="6.94564">
        <ele>2014.58</ele>
        <time>2012-07-31T10:59:31Z</time>
      </trkpt>
      <trkpt lat="44.79389" lon="6.94566">
        <ele>2013.14</ele>
        <time>2012-07-31T10:59:48Z</time>
      </trkpt>
      <trkpt lat="44.79389" lon="6.94566">
        <ele>2016.02</ele>
        <time>2012-07-31T10:59:49Z</time>
      </trkpt>
      <trkpt lat="44.79389" lon="6.94565">
        <ele>2013.14</ele>
        <time>2012-07-31T10:59:57Z</time>
      </trkpt>
      <trkpt lat="44.79389" lon="6.94565">
        <ele>2015.54</ele>
        <time>2012-07-31T11:00:00Z</time>
      </trkpt>
      <trkpt lat="44.79389" lon="6.94565">
        <ele>2013.62</ele>
        <time>2012-07-31T11:00:02Z</time>
      </trkpt>
      <trkpt lat="44.79389" lon="6.94563">
        <ele>2011.7</ele>
        <time>2012-07-31T11:00:15Z</time>
      </trkpt>
      <trkpt lat="44.79389" lon="6.94563">
        <ele>2016.02</ele>
        <time>2012-07-31T11:00:16Z</time>
      </trkpt>
      <trkpt lat="44.79389" lon="6.94563">
        <ele>2014.1</ele>
        <time>2012-07-31T11:00:19Z</time>
      </trkpt>
      <trkpt lat="44.79388" lon="6.94563">
        <ele>2012.18</ele>
        <time>2012-07-31T11:00:26Z</time>
      </trkpt>
      <trkpt lat="44.79388" lon="6.94563">
        <ele>2013.62</ele>
        <time>2012-07-31T11:00:27Z</time>
      </trkpt>
      <trkpt lat="44.79388" lon="6.94562">
        <ele>2014.1</ele>
        <time>2012-07-31T11:00:31Z</time>
      </trkpt>
      <trkpt lat="44.79388" lon="6.94562">
        <ele>2017.46</ele>
        <time>2012-07-31T11:00:34Z</time>
      </trkpt>
      <trkpt lat="44.79388" lon="6.94562">
        <ele>2014.1</ele>
        <time>2012-07-31T11:00:35Z</time>
      </trkpt>
      <trkpt lat="44.79388" lon="6.94561">
        <ele>2015.54</ele>
        <time>2012-07-31T11:00:39Z</time>
      </trkpt>
      <trkpt lat="44.79387" lon="6.94562">
        <ele>2016.98</ele>
        <time>2012-07-31T11:00:46Z</time>
      </trkpt>
      <trkpt lat="44.79387" lon="6.94561">
        <ele>2014.58</ele>
        <time>2012-07-31T11:00:47Z</time>
      </trkpt>
      <trkpt lat="44.79387" lon="6.94562">
        <ele>2011.7</ele>
        <time>2012-07-31T11:01:05Z</time>
      </trkpt>
      <trkpt lat="44.79387" lon="6.94562">
        <ele>2013.14</ele>
        <time>2012-07-31T11:01:07Z</time>
      </trkpt>
      <trkpt lat="44.79387" lon="6.94561">
        <ele>2015.06</ele>
        <time>2012-07-31T11:01:08Z</time>
      </trkpt>
      <trkpt lat="44.79387" lon="6.94561">
        <ele>2013.14</ele>
        <time>2012-07-31T11:01:14Z</time>
      </trkpt>
      <trkpt lat="44.79387" lon="6.94561">
        <ele>2015.06</ele>
        <time>2012-07-31T11:01:15Z</time>
      </trkpt>
      <trkpt lat="44.79388" lon="6.94561">
        <ele>2014.58</ele>
        <time>2012-07-31T11:01:46Z</time>
      </trkpt>
      <trkpt lat="44.79389" lon="6.94561">
        <ele>2014.1</ele>
        <time>2012-07-31T11:02:20Z</time>
      </trkpt>
      <trkpt lat="44.79389" lon="6.9456">
        <ele>2013.14</ele>
        <time>2012-07-31T11:02:37Z</time>
      </trkpt>
      <trkpt lat="44.79389" lon="6.9456">
        <ele>2016.5</ele>
        <time>2012-07-31T11:02:38Z</time>
      </trkpt>
      <trkpt lat="44.79389" lon="6.94559">
        <ele>2015.54</ele>
        <time>2012-07-31T11:02:39Z</time>
      </trkpt>
      <trkpt lat="44.79389" lon="6.94559">
        <ele>2015.06</ele>
        <time>2012-07-31T11:03:12Z</time>
      </trkpt>
      <trkpt lat="44.79391" lon="6.9456">
        <ele>2015.06</ele>
        <time>2012-07-31T11:03:47Z</time>
      </trkpt>
      <trkpt lat="44.79391" lon="6.94559">
        <ele>2014.58</ele>
        <time>2012-07-31T11:04:22Z</time>
      </trkpt>
      <trkpt lat="44.79391" lon="6.94559">
        <ele>2010.25</ele>
        <time>2012-07-31T11:04:32Z</time>
      </trkpt>
      <trkpt lat="44.79391" lon="6.94559">
        <ele>2014.1</ele>
        <time>2012-07-31T11:04:33Z</time>
      </trkpt>
      <trkpt lat="44.79391" lon="6.94559">
        <ele>2017.94</ele>
        <time>2012-07-31T11:04:41Z</time>
      </trkpt>
      <trkpt lat="44.79391" lon="6.94559">
        <ele>2014.58</ele>
        <time>2012-07-31T11:04:42Z</time>
      </trkpt>
      <trkpt lat="44.79392" lon="6.9456">
        <ele>2014.58</ele>
        <time>2012-07-31T11:05:14Z</time>
      </trkpt>
      <trkpt lat="44.79391" lon="6.94555">
        <ele>2015.54</ele>
        <time>2012-07-31T11:05:49Z</time>
      </trkpt>
      <trkpt lat="44.7939" lon="6.94555">
        <ele>2015.06</ele>
        <time>2012-07-31T11:06:20Z</time>
      </trkpt>
      <trkpt lat="44.79389" lon="6.94554">
        <ele>2015.54</ele>
        <time>2012-07-31T11:06:54Z</time>
      </trkpt>
      <trkpt lat="44.79389" lon="6.94557">
        <ele>2015.06</ele>
        <time>2012-07-31T11:07:29Z</time>
      </trkpt>
      <trkpt lat="44.79389" lon="6.94558">
        <ele>2015.54</ele>
        <time>2012-07-31T11:08:02Z</time>
      </trkpt>
      <trkpt lat="44.79389" lon="6.94559">
        <ele>2016.02</ele>
        <time>2012-07-31T11:08:35Z</time>
      </trkpt>
      <trkpt lat="44.79389" lon="6.94559">
        <ele>2016.5</ele>
        <time>2012-07-31T11:09:08Z</time>
      </trkpt>
      <trkpt lat="44.79388" lon="6.94559">
        <ele>2016.98</ele>
        <time>2012-07-31T11:09:44Z</time>
      </trkpt>
      <trkpt lat="44.79389" lon="6.94562">
        <ele>2013.62</ele>
        <time>2012-07-31T11:10:00Z</time>
      </trkpt>
      <trkpt lat="44.79389" lon="6.94562">
        <ele>2015.06</ele>
        <time>2012-07-31T11:10:01Z</time>
      </trkpt>
      <trkpt lat="44.79389" lon="6.94562">
        <ele>2016.98</ele>
        <time>2012-07-31T11:10:03Z</time>
      </trkpt>
      <trkpt lat="44.79389" lon="6.94561">
        <ele>2011.22</ele>
        <time>2012-07-31T11:10:05Z</time>
      </trkpt>
      <trkpt lat="44.79388" lon="6.9456">
        <ele>2019.39</ele>
        <time>2012-07-31T11:10:06Z</time>
      </trkpt>
      <trkpt lat="44.79388" lon="6.9456">
        <ele>2017.46</ele>
        <time>2012-07-31T11:10:08Z</time>
      </trkpt>
      <trkpt lat="44.79388" lon="6.9456">
        <ele>2015.06</ele>
        <time>2012-07-31T11:10:09Z</time>
      </trkpt>
      <trkpt lat="44.79388" lon="6.9456">
        <ele>2016.98</ele>
        <time>2012-07-31T11:10:10Z</time>
      </trkpt>
      <trkpt lat="44.7939" lon="6.9456">
        <ele>2017.46</ele>
        <time>2012-07-31T11:10:52Z</time>
      </trkpt>
      <trkpt lat="44.79391" lon="6.94559">
        <ele>2017.46</ele>
        <time>2012-07-31T11:11:29Z</time>
      </trkpt>
      <trkpt lat="44.79391" lon="6.94559">
        <ele>2016.98</ele>
        <time>2012-07-31T11:12:13Z</time>
      </trkpt>
      <trkpt lat="44.79391" lon="6.94559">
        <ele>2018.43</ele>
        <time>2012-07-31T11:12:30Z</time>
      </trkpt>
      <trkpt lat="44.79391" lon="6.9456">
        <ele>2015.06</ele>
        <time>2012-07-31T11:12:50Z</time>
      </trkpt>
      <trkpt lat="44.79391" lon="6.9456">
        <ele>2015.06</ele>
        <time>2012-07-31T11:12:51Z</time>
      </trkpt>
      <trkpt lat="44.79391" lon="6.9456">
        <ele>2016.02</ele>
        <time>2012-07-31T11:12:52Z</time>
      </trkpt>
      <trkpt lat="44.79391" lon="6.9456">
        <ele>2017.94</ele>
        <time>2012-07-31T11:12:53Z</time>
      </trkpt>
      <trkpt lat="44.79383" lon="6.94555">
        <ele>2017.46</ele>
        <time>2012-07-31T11:13:16Z</time>
      </trkpt>
      <trkpt lat="44.79384" lon="6.94554">
        <ele>2017.94</ele>
        <time>2012-07-31T11:13:31Z</time>
      </trkpt>
      <trkpt lat="44.79384" lon="6.94554">
        <ele>2017.94</ele>
        <time>2012-07-31T11:14:06Z</time>
      </trkpt>
      <trkpt lat="44.79385" lon="6.94556">
        <ele>2019.39</ele>
        <time>2012-07-31T11:14:30Z</time>
      </trkpt>
      <trkpt lat="44.79386" lon="6.94552">
        <ele>2020.35</ele>
        <time>2012-07-31T11:15:00Z</time>
      </trkpt>
      <trkpt lat="44.79389" lon="6.94557">
        <ele>2018.91</ele>
        <time>2012-07-31T11:15:36Z</time>
      </trkpt>
      <trkpt lat="44.79389" lon="6.94557">
        <ele>2018.91</ele>
        <time>2012-07-31T11:15:59Z</time>
      </trkpt>
      <trkpt lat="44.79388" lon="6.94556">
        <ele>2020.35</ele>
        <time>2012-07-31T11:16:26Z</time>
      </trkpt>
      <trkpt lat="44.79388" lon="6.94555">
        <ele>2018.91</ele>
        <time>2012-07-31T11:16:59Z</time>
      </trkpt>
      <trkpt lat="44.79388" lon="6.94555">
        <ele>2021.79</ele>
        <time>2012-07-31T11:17:01Z</time>
      </trkpt>
      <trkpt lat="44.79388" lon="6.94555">
        <ele>2020.35</ele>
        <time>2012-07-31T11:17:02Z</time>
      </trkpt>
      <trkpt lat="44.79388" lon="6.94555">
        <ele>2019.39</ele>
        <time>2012-07-31T11:17:03Z</time>
      </trkpt>
      <trkpt lat="44.79388" lon="6.9455">
        <ele>2020.35</ele>
        <time>2012-07-31T11:17:32Z</time>
      </trkpt>
      <trkpt lat="44.79388" lon="6.94551">
        <ele>2021.31</ele>
        <time>2012-07-31T11:18:05Z</time>
      </trkpt>
      <trkpt lat="44.79389" lon="6.94553">
        <ele>2011.22</ele>
        <time>2012-07-31T11:18:23Z</time>
      </trkpt>
      <trkpt lat="44.79388" lon="6.94553">
        <ele>2028.52</ele>
        <time>2012-07-31T11:18:24Z</time>
      </trkpt>
      <trkpt lat="44.79388" lon="6.94553">
        <ele>2022.27</ele>
        <time>2012-07-31T11:18:25Z</time>
      </trkpt>
      <trkpt lat="44.79389" lon="6.94553">
        <ele>2021.31</ele>
        <time>2012-07-31T11:18:27Z</time>
      </trkpt>
      <trkpt lat="44.79389" lon="6.94556">
        <ele>2020.83</ele>
        <time>2012-07-31T11:19:03Z</time>
      </trkpt>
      <trkpt lat="44.79388" lon="6.94556">
        <ele>2020.83</ele>
        <time>2012-07-31T11:19:36Z</time>
      </trkpt>
      <trkpt lat="44.79388" lon="6.94557">
        <ele>2021.31</ele>
        <time>2012-07-31T11:20:11Z</time>
      </trkpt>
      <trkpt lat="44.79388" lon="6.94557">
        <ele>2021.31</ele>
        <time>2012-07-31T11:20:56Z</time>
      </trkpt>
      <trkpt lat="44.79388" lon="6.94557">
        <ele>2022.75</ele>
        <time>2012-07-31T11:21:11Z</time>
      </trkpt>
      <trkpt lat="44.79388" lon="6.94557">
        <ele>2021.31</ele>
        <time>2012-07-31T11:21:12Z</time>
      </trkpt>
      <trkpt lat="44.79387" lon="6.94547">
        <ele>2022.27</ele>
        <time>2012-07-31T11:21:42Z</time>
      </trkpt>
      <trkpt lat="44.79389" lon="6.94545">
        <ele>2022.27</ele>
        <time>2012-07-31T11:21:46Z</time>
      </trkpt>
      <trkpt lat="44.79394" lon="6.94558">
        <ele>2023.23</ele>
        <time>2012-07-31T11:22:13Z</time>
      </trkpt>
      <trkpt lat="44.79397" lon="6.94563">
        <ele>2021.31</ele>
        <time>2012-07-31T11:22:49Z</time>
      </trkpt>
      <trkpt lat="44.79395" lon="6.94561">
        <ele>2023.71</ele>
        <time>2012-07-31T11:23:26Z</time>
      </trkpt>
      <trkpt lat="44.79393" lon="6.94561">
        <ele>2023.71</ele>
        <time>2012-07-31T11:23:55Z</time>
      </trkpt>
      <trkpt lat="44.79394" lon="6.94562">
        <ele>2024.19</ele>
        <time>2012-07-31T11:24:25Z</time>
      </trkpt>
      <trkpt lat="44.79392" lon="6.94562">
        <ele>2023.71</ele>
        <time>2012-07-31T11:24:55Z</time>
      </trkpt>
      <trkpt lat="44.7939" lon="6.94561">
        <ele>2024.19</ele>
        <time>2012-07-31T11:25:25Z</time>
      </trkpt>
      <trkpt lat="44.79391" lon="6.94561">
        <ele>2025.15</ele>
        <time>2012-07-31T11:25:55Z</time>
      </trkpt>
      <trkpt lat="44.79391" lon="6.9456">
        <ele>2024.67</ele>
        <time>2012-07-31T11:26:17Z</time>
      </trkpt>
      <trkpt lat="44.79391" lon="6.9456">
        <ele>2024.19</ele>
        <time>2012-07-31T11:26:51Z</time>
      </trkpt>
      <trkpt lat="44.79391" lon="6.9456">
        <ele>2025.64</ele>
        <time>2012-07-31T11:27:25Z</time>
      </trkpt>
      <trkpt lat="44.7939" lon="6.94559">
        <ele>2026.12</ele>
        <time>2012-07-31T11:28:01Z</time>
      </trkpt>
      <trkpt lat="44.79389" lon="6.94557">
        <ele>2025.64</ele>
        <time>2012-07-31T11:28:39Z</time>
      </trkpt>
      <trkpt lat="44.79389" lon="6.94559">
        <ele>2027.08</ele>
        <time>2012-07-31T11:29:13Z</time>
      </trkpt>
      <trkpt lat="44.7939" lon="6.94558">
        <ele>2026.6</ele>
        <time>2012-07-31T11:29:44Z</time>
      </trkpt>
      <trkpt lat="44.7939" lon="6.94559">
        <ele>2027.56</ele>
        <time>2012-07-31T11:30:00Z</time>
      </trkpt>
      <trkpt lat="44.7939" lon="6.94559">
        <ele>2027.08</ele>
        <time>2012-07-31T11:30:21Z</time>
      </trkpt>
      <trkpt lat="44.79391" lon="6.94559">
        <ele>2027.08</ele>
        <time>2012-07-31T11:30:54Z</time>
      </trkpt>
      <trkpt lat="44.79391" lon="6.94559">
        <ele>2027.08</ele>
        <time>2012-07-31T11:31:17Z</time>
      </trkpt>
      <trkpt lat="44.79391" lon="6.94559">
        <ele>2027.56</ele>
        <time>2012-07-31T11:31:53Z</time>
      </trkpt>
      <trkpt lat="44.79392" lon="6.9456">
        <ele>2027.56</ele>
        <time>2012-07-31T11:32:22Z</time>
      </trkpt>
      <trkpt lat="44.79392" lon="6.94561">
        <ele>2028.52</ele>
        <time>2012-07-31T11:32:53Z</time>
      </trkpt>
      <trkpt lat="44.79392" lon="6.94562">
        <ele>2028.52</ele>
        <time>2012-07-31T11:33:25Z</time>
      </trkpt>
      <trkpt lat="44.79392" lon="6.94562">
        <ele>2028.04</ele>
        <time>2012-07-31T11:34:00Z</time>
      </trkpt>
      <trkpt lat="44.79393" lon="6.94564">
        <ele>2029</ele>
        <time>2012-07-31T11:34:34Z</time>
      </trkpt>
      <trkpt lat="44.79393" lon="6.94564">
        <ele>2024.67</ele>
        <time>2012-07-31T11:34:39Z</time>
      </trkpt>
      <trkpt lat="44.79393" lon="6.94564">
        <ele>2029.48</ele>
        <time>2012-07-31T11:34:40Z</time>
      </trkpt>
      <trkpt lat="44.79393" lon="6.94564">
        <ele>2029.48</ele>
        <time>2012-07-31T11:34:41Z</time>
      </trkpt>
      <trkpt lat="44.79393" lon="6.94564">
        <ele>2026.6</ele>
        <time>2012-07-31T11:34:42Z</time>
      </trkpt>
      <trkpt lat="44.79393" lon="6.94564">
        <ele>2023.23</ele>
        <time>2012-07-31T11:34:43Z</time>
      </trkpt>
      <trkpt lat="44.79393" lon="6.94564">
        <ele>2029.96</ele>
        <time>2012-07-31T11:34:45Z</time>
      </trkpt>
      <trkpt lat="44.79393" lon="6.94564">
        <ele>2028.04</ele>
        <time>2012-07-31T11:34:46Z</time>
      </trkpt>
      <trkpt lat="44.79393" lon="6.94564">
        <ele>2029.48</ele>
        <time>2012-07-31T11:34:54Z</time>
      </trkpt>
      <trkpt lat="44.79393" lon="6.94564">
        <ele>2028.04</ele>
        <time>2012-07-31T11:35:12Z</time>
      </trkpt>
      <trkpt lat="44.79394" lon="6.94562">
        <ele>2028.04</ele>
        <time>2012-07-31T11:35:38Z</time>
      </trkpt>
      <trkpt lat="44.79422" lon="6.94575">
        <ele>2028.52</ele>
        <time>2012-07-31T11:36:06Z</time>
      </trkpt>
      <trkpt lat="44.7941" lon="6.9457">
        <ele>2028.04</ele>
        <time>2012-07-31T11:36:51Z</time>
      </trkpt>
      <trkpt lat="44.79402" lon="6.94568">
        <ele>2028.52</ele>
        <time>2012-07-31T11:37:16Z</time>
      </trkpt>
      <trkpt lat="44.79396" lon="6.94573">
        <ele>2028.52</ele>
        <time>2012-07-31T11:37:40Z</time>
      </trkpt>
      <trkpt lat="44.7939" lon="6.94561">
        <ele>2028.52</ele>
        <time>2012-07-31T11:37:56Z</time>
      </trkpt>
      <trkpt lat="44.79392" lon="6.94569">
        <ele>2029</ele>
        <time>2012-07-31T11:38:00Z</time>
      </trkpt>
      <trkpt lat="44.7939" lon="6.94567">
        <ele>2028.52</ele>
        <time>2012-07-31T11:38:19Z</time>
      </trkpt>
      <trkpt lat="44.79392" lon="6.94564">
        <ele>2029</ele>
        <time>2012-07-31T11:38:46Z</time>
      </trkpt>
      <trkpt lat="44.79394" lon="6.94569">
        <ele>2024.19</ele>
        <time>2012-07-31T11:39:02Z</time>
      </trkpt>
      <trkpt lat="44.79394" lon="6.94569">
        <ele>2027.56</ele>
        <time>2012-07-31T11:39:03Z</time>
      </trkpt>
      <trkpt lat="44.79393" lon="6.94568">
        <ele>2029</ele>
        <time>2012-07-31T11:39:06Z</time>
      </trkpt>
      <trkpt lat="44.79392" lon="6.94566">
        <ele>2029</ele>
        <time>2012-07-31T11:39:42Z</time>
      </trkpt>
      <trkpt lat="44.79398" lon="6.94567">
        <ele>2025.64</ele>
        <time>2012-07-31T11:39:50Z</time>
      </trkpt>
      <trkpt lat="44.79399" lon="6.9457">
        <ele>2034.77</ele>
        <time>2012-07-31T11:39:51Z</time>
      </trkpt>
      <trkpt lat="44.79399" lon="6.94571">
        <ele>2034.77</ele>
        <time>2012-07-31T11:39:52Z</time>
      </trkpt>
      <trkpt lat="44.79399" lon="6.94571">
        <ele>2029.96</ele>
        <time>2012-07-31T11:39:53Z</time>
      </trkpt>
      <trkpt lat="44.79399" lon="6.94571">
        <ele>2026.6</ele>
        <time>2012-07-31T11:39:54Z</time>
      </trkpt>
      <trkpt lat="44.79399" lon="6.94571">
        <ele>2029.96</ele>
        <time>2012-07-31T11:39:55Z</time>
      </trkpt>
      <trkpt lat="44.794" lon="6.94571">
        <ele>2029</ele>
        <time>2012-07-31T11:39:59Z</time>
      </trkpt>
      <trkpt lat="44.794" lon="6.9457">
        <ele>2029</ele>
        <time>2012-07-31T11:40:37Z</time>
      </trkpt>
      <trkpt lat="44.794" lon="6.9457">
        <ele>2029</ele>
        <time>2012-07-31T11:40:38Z</time>
      </trkpt>
      <trkpt lat="44.79402" lon="6.94571">
        <ele>2028.52</ele>
        <time>2012-07-31T11:41:21Z</time>
      </trkpt>
      <trkpt lat="44.79402" lon="6.94571">
        <ele>2031.4</ele>
        <time>2012-07-31T11:41:30Z</time>
      </trkpt>
      <trkpt lat="44.79402" lon="6.94571">
        <ele>2029.48</ele>
        <time>2012-07-31T11:41:34Z</time>
      </trkpt>
      <trkpt lat="44.79403" lon="6.94572">
        <ele>2029.48</ele>
        <time>2012-07-31T11:42:03Z</time>
      </trkpt>
      <trkpt lat="44.794" lon="6.94567">
        <ele>2030.44</ele>
        <time>2012-07-31T11:42:40Z</time>
      </trkpt>
      <trkpt lat="44.79394" lon="6.94562">
        <ele>2029</ele>
        <time>2012-07-31T11:43:11Z</time>
      </trkpt>
      <trkpt lat="44.7939" lon="6.94557">
        <ele>2029</ele>
        <time>2012-07-31T11:43:40Z</time>
      </trkpt>
      <trkpt lat="44.79392" lon="6.94561">
        <ele>2029.48</ele>
        <time>2012-07-31T11:44:09Z</time>
      </trkpt>
      <trkpt lat="44.79391" lon="6.94559">
        <ele>2029.48</ele>
        <time>2012-07-31T11:44:39Z</time>
      </trkpt>
      <trkpt lat="44.79393" lon="6.9456">
        <ele>2029</ele>
        <time>2012-07-31T11:45:14Z</time>
      </trkpt>
      <trkpt lat="44.79395" lon="6.94561">
        <ele>2029</ele>
        <time>2012-07-31T11:45:48Z</time>
      </trkpt>
      <trkpt lat="44.79397" lon="6.94563">
        <ele>2029.48</ele>
        <time>2012-07-31T11:46:16Z</time>
      </trkpt>
      <trkpt lat="44.79396" lon="6.94561">
        <ele>2029</ele>
        <time>2012-07-31T11:46:51Z</time>
      </trkpt>
      <trkpt lat="44.79397" lon="6.94559">
        <ele>2029</ele>
        <time>2012-07-31T11:47:23Z</time>
      </trkpt>
      <trkpt lat="44.79396" lon="6.94557">
        <ele>2029.96</ele>
        <time>2012-07-31T11:47:53Z</time>
      </trkpt>
      <trkpt lat="44.79396" lon="6.94557">
        <ele>2023.23</ele>
        <time>2012-07-31T11:48:06Z</time>
      </trkpt>
      <trkpt lat="44.79396" lon="6.94557">
        <ele>2026.6</ele>
        <time>2012-07-31T11:48:07Z</time>
      </trkpt>
      <trkpt lat="44.79396" lon="6.94557">
        <ele>2030.44</ele>
        <time>2012-07-31T11:48:10Z</time>
      </trkpt>
      <trkpt lat="44.79395" lon="6.94557">
        <ele>2029.48</ele>
        <time>2012-07-31T11:48:11Z</time>
      </trkpt>
      <trkpt lat="44.79394" lon="6.94557">
        <ele>2025.64</ele>
        <time>2012-07-31T11:48:50Z</time>
      </trkpt>
      <trkpt lat="44.79394" lon="6.94557">
        <ele>2028.52</ele>
        <time>2012-07-31T11:48:51Z</time>
      </trkpt>
      <trkpt lat="44.79393" lon="6.94558">
        <ele>2026.6</ele>
        <time>2012-07-31T11:49:18Z</time>
      </trkpt>
      <trkpt lat="44.79393" lon="6.94558">
        <ele>2031.4</ele>
        <time>2012-07-31T11:49:19Z</time>
      </trkpt>
      <trkpt lat="44.79393" lon="6.94558">
        <ele>2029</ele>
        <time>2012-07-31T11:49:20Z</time>
      </trkpt>
      <trkpt lat="44.79393" lon="6.94558">
        <ele>2022.75</ele>
        <time>2012-07-31T11:49:56Z</time>
      </trkpt>
      <trkpt lat="44.79393" lon="6.94558">
        <ele>2035.25</ele>
        <time>2012-07-31T11:49:57Z</time>
      </trkpt>
      <trkpt lat="44.79394" lon="6.94558">
        <ele>2029.48</ele>
        <time>2012-07-31T11:49:58Z</time>
      </trkpt>
      <trkpt lat="44.79395" lon="6.9456">
        <ele>2028.52</ele>
        <time>2012-07-31T11:50:17Z</time>
      </trkpt>
      <trkpt lat="44.79395" lon="6.94561">
        <ele>2028.52</ele>
        <time>2012-07-31T11:50:44Z</time>
      </trkpt>
      <trkpt lat="44.79392" lon="6.94559">
        <ele>2028.04</ele>
        <time>2012-07-31T11:51:06Z</time>
      </trkpt>
      <trkpt lat="44.79393" lon="6.9456">
        <ele>2024.19</ele>
        <time>2012-07-31T11:51:25Z</time>
      </trkpt>
      <trkpt lat="44.79393" lon="6.9456">
        <ele>2026.12</ele>
        <time>2012-07-31T11:51:26Z</time>
      </trkpt>
      <trkpt lat="44.79393" lon="6.9456">
        <ele>2028.04</ele>
        <time>2012-07-31T11:51:30Z</time>
      </trkpt>
      <trkpt lat="44.79394" lon="6.9456">
        <ele>2027.08</ele>
        <time>2012-07-31T11:51:47Z</time>
      </trkpt>
      <trkpt lat="44.79394" lon="6.9456">
        <ele>2028.04</ele>
        <time>2012-07-31T11:51:50Z</time>
      </trkpt>
      <trkpt lat="44.79395" lon="6.94561">
        <ele>2024.19</ele>
        <time>2012-07-31T11:52:05Z</time>
      </trkpt>
      <trkpt lat="44.79395" lon="6.94561">
        <ele>2030.44</ele>
        <time>2012-07-31T11:52:06Z</time>
      </trkpt>
      <trkpt lat="44.79395" lon="6.94561">
        <ele>2026.12</ele>
        <time>2012-07-31T11:52:10Z</time>
      </trkpt>
      <trkpt lat="44.79395" lon="6.94561">
        <ele>2028.04</ele>
        <time>2012-07-31T11:52:28Z</time>
      </trkpt>
      <trkpt lat="44.79394" lon="6.94559">
        <ele>2027.56</ele>
        <time>2012-07-31T11:52:56Z</time>
      </trkpt>
      <trkpt lat="44.79395" lon="6.94559">
        <ele>2026.12</ele>
        <time>2012-07-31T11:53:01Z</time>
      </trkpt>
      <trkpt lat="44.79394" lon="6.9456">
        <ele>2026.12</ele>
        <time>2012-07-31T11:53:19Z</time>
      </trkpt>
      <trkpt lat="44.79394" lon="6.94556">
        <ele>2029.48</ele>
        <time>2012-07-31T11:53:41Z</time>
      </trkpt>
      <trkpt lat="44.79398" lon="6.9456">
        <ele>2027.56</ele>
        <time>2012-07-31T11:54:13Z</time>
      </trkpt>
      <trkpt lat="44.79398" lon="6.94559">
        <ele>2027.56</ele>
        <time>2012-07-31T11:54:45Z</time>
      </trkpt>
      <trkpt lat="44.79398" lon="6.94558">
        <ele>2027.56</ele>
        <time>2012-07-31T11:54:49Z</time>
      </trkpt>
      <trkpt lat="44.79398" lon="6.94558">
        <ele>2031.88</ele>
        <time>2012-07-31T11:54:52Z</time>
      </trkpt>
      <trkpt lat="44.79398" lon="6.94558">
        <ele>2024.67</ele>
        <time>2012-07-31T11:54:53Z</time>
      </trkpt>
      <trkpt lat="44.79398" lon="6.94558">
        <ele>2034.29</ele>
        <time>2012-07-31T11:54:57Z</time>
      </trkpt>
      <trkpt lat="44.79398" lon="6.94558">
        <ele>2028.04</ele>
        <time>2012-07-31T11:54:58Z</time>
      </trkpt>
      <trkpt lat="44.79398" lon="6.94558">
        <ele>2025.15</ele>
        <time>2012-07-31T11:55:09Z</time>
      </trkpt>
      <trkpt lat="44.79397" lon="6.94558">
        <ele>2029.48</ele>
        <time>2012-07-31T11:55:11Z</time>
      </trkpt>
      <trkpt lat="44.79397" lon="6.94558">
        <ele>2028.52</ele>
        <time>2012-07-31T11:55:12Z</time>
      </trkpt>
      <trkpt lat="44.79397" lon="6.94558">
        <ele>2024.67</ele>
        <time>2012-07-31T11:55:14Z</time>
      </trkpt>
      <trkpt lat="44.79397" lon="6.94558">
        <ele>2028.04</ele>
        <time>2012-07-31T11:55:16Z</time>
      </trkpt>
      <trkpt lat="44.79396" lon="6.94558">
        <ele>2031.4</ele>
        <time>2012-07-31T11:55:24Z</time>
      </trkpt>
      <trkpt lat="44.79396" lon="6.94558">
        <ele>2027.56</ele>
        <time>2012-07-31T11:55:25Z</time>
      </trkpt>
      <trkpt lat="44.79397" lon="6.94558">
        <ele>2027.56</ele>
        <time>2012-07-31T11:55:47Z</time>
      </trkpt>
      <trkpt lat="44.79394" lon="6.94562">
        <ele>2027.56</ele>
        <time>2012-07-31T11:55:52Z</time>
      </trkpt>
      <trkpt lat="44.79389" lon="6.94584">
        <ele>2027.56</ele>
        <time>2012-07-31T11:56:13Z</time>
      </trkpt>
      <trkpt lat="44.79395" lon="6.94583">
        <ele>2029.48</ele>
        <time>2012-07-31T11:56:27Z</time>
      </trkpt>
      <trkpt lat="44.79407" lon="6.94585">
        <ele>2028.52</ele>
        <time>2012-07-31T11:56:43Z</time>
      </trkpt>
      <trkpt lat="44.79407" lon="6.94586">
        <ele>2029</ele>
        <time>2012-07-31T11:56:47Z</time>
      </trkpt>
      <trkpt lat="44.79404" lon="6.94595">
        <ele>2029</ele>
        <time>2012-07-31T11:56:52Z</time>
      </trkpt>
      <trkpt lat="44.79401" lon="6.94603">
        <ele>2030.44</ele>
        <time>2012-07-31T11:56:58Z</time>
      </trkpt>
      <trkpt lat="44.79405" lon="6.94611">
        <ele>2030.92</ele>
        <time>2012-07-31T11:57:07Z</time>
      </trkpt>
      <trkpt lat="44.79406" lon="6.9461">
        <ele>2027.56</ele>
        <time>2012-07-31T11:57:09Z</time>
      </trkpt>
      <trkpt lat="44.79407" lon="6.9461">
        <ele>2030.92</ele>
        <time>2012-07-31T11:57:10Z</time>
      </trkpt>
      <trkpt lat="44.79408" lon="6.94609">
        <ele>2027.08</ele>
        <time>2012-07-31T11:57:12Z</time>
      </trkpt>
      <trkpt lat="44.79409" lon="6.94608">
        <ele>2031.4</ele>
        <time>2012-07-31T11:57:13Z</time>
      </trkpt>
      <trkpt lat="44.79409" lon="6.94608">
        <ele>2028.04</ele>
        <time>2012-07-31T11:57:15Z</time>
      </trkpt>
      <trkpt lat="44.7941" lon="6.94607">
        <ele>2032.84</ele>
        <time>2012-07-31T11:57:16Z</time>
      </trkpt>
      <trkpt lat="44.79411" lon="6.94607">
        <ele>2029.48</ele>
        <time>2012-07-31T11:57:17Z</time>
      </trkpt>
      <trkpt lat="44.79412" lon="6.94606">
        <ele>2032.84</ele>
        <time>2012-07-31T11:57:19Z</time>
      </trkpt>
      <trkpt lat="44.79412" lon="6.94607">
        <ele>2029.48</ele>
        <time>2012-07-31T11:57:20Z</time>
      </trkpt>
      <trkpt lat="44.79412" lon="6.94607">
        <ele>2032.84</ele>
        <time>2012-07-31T11:57:24Z</time>
      </trkpt>
      <trkpt lat="44.79413" lon="6.94606">
        <ele>2029.48</ele>
        <time>2012-07-31T11:57:26Z</time>
      </trkpt>
      <trkpt lat="44.79413" lon="6.94605">
        <ele>2032.36</ele>
        <time>2012-07-31T11:57:27Z</time>
      </trkpt>
      <trkpt lat="44.79415" lon="6.94605">
        <ele>2027.56</ele>
        <time>2012-07-31T11:57:29Z</time>
      </trkpt>
      <trkpt lat="44.79417" lon="6.94604">
        <ele>2030.44</ele>
        <time>2012-07-31T11:57:31Z</time>
      </trkpt>
      <trkpt lat="44.79418" lon="6.94603">
        <ele>2035.73</ele>
        <time>2012-07-31T11:57:34Z</time>
      </trkpt>
      <trkpt lat="44.79419" lon="6.94602">
        <ele>2030.44</ele>
        <time>2012-07-31T11:57:35Z</time>
      </trkpt>
      <trkpt lat="44.7942" lon="6.94601">
        <ele>2033.81</ele>
        <time>2012-07-31T11:57:37Z</time>
      </trkpt>
      <trkpt lat="44.79421" lon="6.94601">
        <ele>2030.44</ele>
        <time>2012-07-31T11:57:38Z</time>
      </trkpt>
      <trkpt lat="44.79421" lon="6.94601">
        <ele>2034.29</ele>
        <time>2012-07-31T11:57:39Z</time>
      </trkpt>
      <trkpt lat="44.79423" lon="6.94601">
        <ele>2030.92</ele>
        <time>2012-07-31T11:57:41Z</time>
      </trkpt>
      <trkpt lat="44.79424" lon="6.94601">
        <ele>2034.77</ele>
        <time>2012-07-31T11:57:42Z</time>
      </trkpt>
      <trkpt lat="44.79425" lon="6.946">
        <ele>2030.44</ele>
        <time>2012-07-31T11:57:44Z</time>
      </trkpt>
      <trkpt lat="44.79426" lon="6.946">
        <ele>2035.73</ele>
        <time>2012-07-31T11:57:45Z</time>
      </trkpt>
      <trkpt lat="44.79426" lon="6.946">
        <ele>2031.88</ele>
        <time>2012-07-31T11:57:46Z</time>
      </trkpt>
      <trkpt lat="44.79426" lon="6.94602">
        <ele>2033.81</ele>
        <time>2012-07-31T11:58:05Z</time>
      </trkpt>
      <trkpt lat="44.79427" lon="6.94602">
        <ele>2030.44</ele>
        <time>2012-07-31T11:58:14Z</time>
      </trkpt>
      <trkpt lat="44.79427" lon="6.94602">
        <ele>2035.25</ele>
        <time>2012-07-31T11:58:15Z</time>
      </trkpt>
      <trkpt lat="44.79429" lon="6.94601">
        <ele>2031.88</ele>
        <time>2012-07-31T11:58:17Z</time>
      </trkpt>
      <trkpt lat="44.7943" lon="6.94601">
        <ele>2034.29</ele>
        <time>2012-07-31T11:58:18Z</time>
      </trkpt>
      <trkpt lat="44.79432" lon="6.946">
        <ele>2033.33</ele>
        <time>2012-07-31T11:58:20Z</time>
      </trkpt>
      <trkpt lat="44.79433" lon="6.946">
        <ele>2030.44</ele>
        <time>2012-07-31T11:58:21Z</time>
      </trkpt>
      <trkpt lat="44.79435" lon="6.94599">
        <ele>2036.21</ele>
        <time>2012-07-31T11:58:23Z</time>
      </trkpt>
      <trkpt lat="44.79437" lon="6.94598">
        <ele>2031.4</ele>
        <time>2012-07-31T11:58:26Z</time>
      </trkpt>
      <trkpt lat="44.79438" lon="6.94598">
        <ele>2038.61</ele>
        <time>2012-07-31T11:58:27Z</time>
      </trkpt>
      <trkpt lat="44.79439" lon="6.94598">
        <ele>2035.73</ele>
        <time>2012-07-31T11:58:28Z</time>
      </trkpt>
      <trkpt lat="44.79441" lon="6.94597">
        <ele>2033.81</ele>
        <time>2012-07-31T11:58:30Z</time>
      </trkpt>
      <trkpt lat="44.79442" lon="6.94597">
        <ele>2040.05</ele>
        <time>2012-07-31T11:58:31Z</time>
      </trkpt>
      <trkpt lat="44.79443" lon="6.94596">
        <ele>2035.25</ele>
        <time>2012-07-31T11:58:32Z</time>
      </trkpt>
      <trkpt lat="44.79446" lon="6.94598">
        <ele>2039.57</ele>
        <time>2012-07-31T11:58:35Z</time>
      </trkpt>
      <trkpt lat="44.79447" lon="6.94598">
        <ele>2036.21</ele>
        <time>2012-07-31T11:58:36Z</time>
      </trkpt>
      <trkpt lat="44.79452" lon="6.946">
        <ele>2037.17</ele>
        <time>2012-07-31T11:58:40Z</time>
      </trkpt>
      <trkpt lat="44.7946" lon="6.94601">
        <ele>2038.13</ele>
        <time>2012-07-31T11:58:49Z</time>
      </trkpt>
      <trkpt lat="44.79464" lon="6.94599">
        <ele>2036.69</ele>
        <time>2012-07-31T11:58:53Z</time>
      </trkpt>
      <trkpt lat="44.79465" lon="6.94598">
        <ele>2040.05</ele>
        <time>2012-07-31T11:58:54Z</time>
      </trkpt>
      <trkpt lat="44.79466" lon="6.94598">
        <ele>2038.13</ele>
        <time>2012-07-31T11:58:55Z</time>
      </trkpt>
      <trkpt lat="44.7948" lon="6.94579">
        <ele>2036.69</ele>
        <time>2012-07-31T11:59:14Z</time>
      </trkpt>
      <trkpt lat="44.79481" lon="6.94579">
        <ele>2038.61</ele>
        <time>2012-07-31T11:59:16Z</time>
      </trkpt>
      <trkpt lat="44.79485" lon="6.94574">
        <ele>2039.09</ele>
        <time>2012-07-31T11:59:21Z</time>
      </trkpt>
      <trkpt lat="44.7949" lon="6.9456">
        <ele>2038.61</ele>
        <time>2012-07-31T11:59:31Z</time>
      </trkpt>
      <trkpt lat="44.79491" lon="6.94559">
        <ele>2038.61</ele>
        <time>2012-07-31T11:59:32Z</time>
      </trkpt>
      <trkpt lat="44.79498" lon="6.94549">
        <ele>2036.69</ele>
        <time>2012-07-31T11:59:47Z</time>
      </trkpt>
      <trkpt lat="44.79498" lon="6.94549">
        <ele>2032.36</ele>
        <time>2012-07-31T12:00:20Z</time>
      </trkpt>
      <trkpt lat="44.79498" lon="6.94549">
        <ele>2043.9</ele>
        <time>2012-07-31T12:00:21Z</time>
      </trkpt>
      <trkpt lat="44.79498" lon="6.94549">
        <ele>2039.57</ele>
        <time>2012-07-31T12:00:22Z</time>
      </trkpt>
      <trkpt lat="44.79499" lon="6.94549">
        <ele>2038.13</ele>
        <time>2012-07-31T12:00:23Z</time>
      </trkpt>
      <trkpt lat="44.79503" lon="6.94547">
        <ele>2037.17</ele>
        <time>2012-07-31T12:00:27Z</time>
      </trkpt>
      <trkpt lat="44.79516" lon="6.9454">
        <ele>2038.61</ele>
        <time>2012-07-31T12:00:36Z</time>
      </trkpt>
      <trkpt lat="44.79543" lon="6.94523">
        <ele>2038.61</ele>
        <time>2012-07-31T12:00:58Z</time>
      </trkpt>
      <trkpt lat="44.79555" lon="6.94511">
        <ele>2038.61</ele>
        <time>2012-07-31T12:01:12Z</time>
      </trkpt>
      <trkpt lat="44.79565" lon="6.94492">
        <ele>2040.05</ele>
        <time>2012-07-31T12:01:30Z</time>
      </trkpt>
      <trkpt lat="44.79566" lon="6.94491">
        <ele>2041.02</ele>
        <time>2012-07-31T12:01:52Z</time>
      </trkpt>
      <trkpt lat="44.79575" lon="6.94479">
        <ele>2039.57</ele>
        <time>2012-07-31T12:02:08Z</time>
      </trkpt>
      <trkpt lat="44.79586" lon="6.94465">
        <ele>2039.57</ele>
        <time>2012-07-31T12:02:25Z</time>
      </trkpt>
      <trkpt lat="44.79602" lon="6.94456">
        <ele>2039.57</ele>
        <time>2012-07-31T12:02:42Z</time>
      </trkpt>
      <trkpt lat="44.79614" lon="6.94455">
        <ele>2039.09</ele>
        <time>2012-07-31T12:02:59Z</time>
      </trkpt>
      <trkpt lat="44.79629" lon="6.94451">
        <ele>2040.05</ele>
        <time>2012-07-31T12:03:19Z</time>
      </trkpt>
      <trkpt lat="44.79638" lon="6.94449">
        <ele>2040.05</ele>
        <time>2012-07-31T12:03:26Z</time>
      </trkpt>
      <trkpt lat="44.79641" lon="6.94446">
        <ele>2040.05</ele>
        <time>2012-07-31T12:03:29Z</time>
      </trkpt>
      <trkpt lat="44.79653" lon="6.9444">
        <ele>2039.09</ele>
        <time>2012-07-31T12:03:46Z</time>
      </trkpt>
      <trkpt lat="44.79653" lon="6.9444">
        <ele>2039.09</ele>
        <time>2012-07-31T12:03:47Z</time>
      </trkpt>
      <trkpt lat="44.79665" lon="6.94426">
        <ele>2041.5</ele>
        <time>2012-07-31T12:04:06Z</time>
      </trkpt>
      <trkpt lat="44.79669" lon="6.94417">
        <ele>2040.54</ele>
        <time>2012-07-31T12:04:13Z</time>
      </trkpt>
      <trkpt lat="44.79679" lon="6.94394">
        <ele>2041.5</ele>
        <time>2012-07-31T12:04:31Z</time>
      </trkpt>
      <trkpt lat="44.79687" lon="6.94384">
        <ele>2041.98</ele>
        <time>2012-07-31T12:04:41Z</time>
      </trkpt>
      <trkpt lat="44.79695" lon="6.94371">
        <ele>2041.5</ele>
        <time>2012-07-31T12:04:56Z</time>
      </trkpt>
      <trkpt lat="44.79708" lon="6.94353">
        <ele>2040.54</ele>
        <time>2012-07-31T12:05:15Z</time>
      </trkpt>
      <trkpt lat="44.79727" lon="6.94345">
        <ele>2041.98</ele>
        <time>2012-07-31T12:05:34Z</time>
      </trkpt>
      <trkpt lat="44.79746" lon="6.94329">
        <ele>2040.05</ele>
        <time>2012-07-31T12:05:51Z</time>
      </trkpt>
      <trkpt lat="44.79757" lon="6.94322">
        <ele>2036.69</ele>
        <time>2012-07-31T12:06:06Z</time>
      </trkpt>
      <trkpt lat="44.79767" lon="6.94312">
        <ele>2035.25</ele>
        <time>2012-07-31T12:06:20Z</time>
      </trkpt>
      <trkpt lat="44.79768" lon="6.94312">
        <ele>2035.25</ele>
        <time>2012-07-31T12:06:21Z</time>
      </trkpt>
      <trkpt lat="44.79773" lon="6.94309">
        <ele>2033.81</ele>
        <time>2012-07-31T12:06:27Z</time>
      </trkpt>
      <trkpt lat="44.79779" lon="6.94295">
        <ele>2031.4</ele>
        <time>2012-07-31T12:06:43Z</time>
      </trkpt>
      <trkpt lat="44.79782" lon="6.9429">
        <ele>2029.96</ele>
        <time>2012-07-31T12:07:00Z</time>
      </trkpt>
      <trkpt lat="44.79783" lon="6.94289">
        <ele>2030.44</ele>
        <time>2012-07-31T12:07:01Z</time>
      </trkpt>
      <trkpt lat="44.79789" lon="6.94283">
        <ele>2029.48</ele>
        <time>2012-07-31T12:07:08Z</time>
      </trkpt>
      <trkpt lat="44.79798" lon="6.94273">
        <ele>2027.08</ele>
        <time>2012-07-31T12:07:24Z</time>
      </trkpt>
      <trkpt lat="44.79799" lon="6.94272">
        <ele>2026.6</ele>
        <time>2012-07-31T12:07:26Z</time>
      </trkpt>
      <trkpt lat="44.79803" lon="6.94263">
        <ele>2025.64</ele>
        <time>2012-07-31T12:07:41Z</time>
      </trkpt>
      <trkpt lat="44.79809" lon="6.94253">
        <ele>2024.19</ele>
        <time>2012-07-31T12:07:49Z</time>
      </trkpt>
      <trkpt lat="44.79812" lon="6.94245">
        <ele>2022.75</ele>
        <time>2012-07-31T12:08:09Z</time>
      </trkpt>
      <trkpt lat="44.79813" lon="6.94244">
        <ele>2022.75</ele>
        <time>2012-07-31T12:08:13Z</time>
      </trkpt>
      <trkpt lat="44.79817" lon="6.9424">
        <ele>2022.75</ele>
        <time>2012-07-31T12:08:18Z</time>
      </trkpt>
      <trkpt lat="44.79825" lon="6.94234">
        <ele>2023.71</ele>
        <time>2012-07-31T12:08:36Z</time>
      </trkpt>
      <trkpt lat="44.79826" lon="6.94231">
        <ele>2021.79</ele>
        <time>2012-07-31T12:08:38Z</time>
      </trkpt>
      <trkpt lat="44.79827" lon="6.94227">
        <ele>2020.83</ele>
        <time>2012-07-31T12:08:53Z</time>
      </trkpt>
      <trkpt lat="44.79829" lon="6.94225">
        <ele>2019.87</ele>
        <time>2012-07-31T12:08:55Z</time>
      </trkpt>
      <trkpt lat="44.79827" lon="6.94226">
        <ele>2021.31</ele>
        <time>2012-07-31T12:09:07Z</time>
      </trkpt>
      <trkpt lat="44.79829" lon="6.94222">
        <ele>2019.39</ele>
        <time>2012-07-31T12:09:24Z</time>
      </trkpt>
      <trkpt lat="44.7984" lon="6.94215">
        <ele>2018.43</ele>
        <time>2012-07-31T12:09:36Z</time>
      </trkpt>
      <trkpt lat="44.79851" lon="6.9421">
        <ele>2017.94</ele>
        <time>2012-07-31T12:09:53Z</time>
      </trkpt>
      <trkpt lat="44.79857" lon="6.94204">
        <ele>2016.5</ele>
        <time>2012-07-31T12:10:10Z</time>
      </trkpt>
      <trkpt lat="44.79858" lon="6.94203">
        <ele>2017.46</ele>
        <time>2012-07-31T12:10:12Z</time>
      </trkpt>
      <trkpt lat="44.79863" lon="6.94199">
        <ele>2016.02</ele>
        <time>2012-07-31T12:10:16Z</time>
      </trkpt>
      <trkpt lat="44.79866" lon="6.94196">
        <ele>2014.58</ele>
        <time>2012-07-31T12:10:23Z</time>
      </trkpt>
      <trkpt lat="44.79873" lon="6.94192">
        <ele>2010.73</ele>
        <time>2012-07-31T12:10:33Z</time>
      </trkpt>
      <trkpt lat="44.79873" lon="6.94192">
        <ele>2014.1</ele>
        <time>2012-07-31T12:10:34Z</time>
      </trkpt>
      <trkpt lat="44.79885" lon="6.94178">
        <ele>2011.7</ele>
        <time>2012-07-31T12:10:51Z</time>
      </trkpt>
      <trkpt lat="44.79893" lon="6.94169">
        <ele>2008.81</ele>
        <time>2012-07-31T12:11:02Z</time>
      </trkpt>
      <trkpt lat="44.799" lon="6.94169">
        <ele>2005.45</ele>
        <time>2012-07-31T12:11:15Z</time>
      </trkpt>
      <trkpt lat="44.79899" lon="6.94169">
        <ele>2009.77</ele>
        <time>2012-07-31T12:11:16Z</time>
      </trkpt>
      <trkpt lat="44.79904" lon="6.94168">
        <ele>2006.41</ele>
        <time>2012-07-31T12:11:24Z</time>
      </trkpt>
      <trkpt lat="44.79923" lon="6.94159">
        <ele>2005.93</ele>
        <time>2012-07-31T12:11:42Z</time>
      </trkpt>
      <trkpt lat="44.79935" lon="6.94153">
        <ele>2004.49</ele>
        <time>2012-07-31T12:12:00Z</time>
      </trkpt>
      <trkpt lat="44.79942" lon="6.9415">
        <ele>2002.08</ele>
        <time>2012-07-31T12:12:11Z</time>
      </trkpt>
      <trkpt lat="44.79957" lon="6.94146">
        <ele>2000.16</ele>
        <time>2012-07-31T12:12:30Z</time>
      </trkpt>
      <trkpt lat="44.79959" lon="6.9414">
        <ele>2000.16</ele>
        <time>2012-07-31T12:12:55Z</time>
      </trkpt>
      <trkpt lat="44.79956" lon="6.9414">
        <ele>2000.64</ele>
        <time>2012-07-31T12:13:22Z</time>
      </trkpt>
      <trkpt lat="44.7996" lon="6.94144">
        <ele>1999.2</ele>
        <time>2012-07-31T12:13:52Z</time>
      </trkpt>
      <trkpt lat="44.79965" lon="6.94143">
        <ele>1999.68</ele>
        <time>2012-07-31T12:13:56Z</time>
      </trkpt>
      <trkpt lat="44.79987" lon="6.94146">
        <ele>1999.2</ele>
        <time>2012-07-31T12:14:15Z</time>
      </trkpt>
      <trkpt lat="44.80012" lon="6.94148">
        <ele>1997.76</ele>
        <time>2012-07-31T12:14:35Z</time>
      </trkpt>
      <trkpt lat="44.80029" lon="6.9415">
        <ele>1994.39</ele>
        <time>2012-07-31T12:14:48Z</time>
      </trkpt>
      <trkpt lat="44.80038" lon="6.94144">
        <ele>1995.35</ele>
        <time>2012-07-31T12:14:54Z</time>
      </trkpt>
      <trkpt lat="44.80041" lon="6.94146">
        <ele>1994.87</ele>
        <time>2012-07-31T12:14:56Z</time>
      </trkpt>
      <trkpt lat="44.80045" lon="6.94147">
        <ele>1995.35</ele>
        <time>2012-07-31T12:15:07Z</time>
      </trkpt>
      <trkpt lat="44.80059" lon="6.94136">
        <ele>1994.87</ele>
        <time>2012-07-31T12:15:23Z</time>
      </trkpt>
      <trkpt lat="44.80067" lon="6.94133">
        <ele>1993.43</ele>
        <time>2012-07-31T12:15:39Z</time>
      </trkpt>
      <trkpt lat="44.80076" lon="6.94125">
        <ele>1992.95</ele>
        <time>2012-07-31T12:15:52Z</time>
      </trkpt>
      <trkpt lat="44.80087" lon="6.94123">
        <ele>1990.07</ele>
        <time>2012-07-31T12:16:04Z</time>
      </trkpt>
      <trkpt lat="44.80098" lon="6.94123">
        <ele>1988.62</ele>
        <time>2012-07-31T12:16:18Z</time>
      </trkpt>
      <trkpt lat="44.80099" lon="6.94123">
        <ele>1989.1</ele>
        <time>2012-07-31T12:16:19Z</time>
      </trkpt>
      <trkpt lat="44.80107" lon="6.94125">
        <ele>1987.66</ele>
        <time>2012-07-31T12:16:27Z</time>
      </trkpt>
      <trkpt lat="44.80117" lon="6.94123">
        <ele>1986.7</ele>
        <time>2012-07-31T12:16:51Z</time>
      </trkpt>
      <trkpt lat="44.80127" lon="6.94119">
        <ele>1984.78</ele>
        <time>2012-07-31T12:17:11Z</time>
      </trkpt>
      <trkpt lat="44.80132" lon="6.94122">
        <ele>1983.82</ele>
        <time>2012-07-31T12:17:29Z</time>
      </trkpt>
      <trkpt lat="44.80149" lon="6.94111">
        <ele>1981.41</ele>
        <time>2012-07-31T12:17:47Z</time>
      </trkpt>
      <trkpt lat="44.80162" lon="6.94109">
        <ele>1978.53</ele>
        <time>2012-07-31T12:18:03Z</time>
      </trkpt>
      <trkpt lat="44.80166" lon="6.94112">
        <ele>1977.09</ele>
        <time>2012-07-31T12:18:14Z</time>
      </trkpt>
      <trkpt lat="44.80167" lon="6.94117">
        <ele>1978.53</ele>
        <time>2012-07-31T12:18:43Z</time>
      </trkpt>
      <trkpt lat="44.80174" lon="6.94117">
        <ele>1977.09</ele>
        <time>2012-07-31T12:19:06Z</time>
      </trkpt>
      <trkpt lat="44.80179" lon="6.94118">
        <ele>1976.61</ele>
        <time>2012-07-31T12:19:12Z</time>
      </trkpt>
      <trkpt lat="44.80196" lon="6.9412">
        <ele>1975.17</ele>
        <time>2012-07-31T12:19:28Z</time>
      </trkpt>
      <trkpt lat="44.80208" lon="6.94119">
        <ele>1973.24</ele>
        <time>2012-07-31T12:19:42Z</time>
      </trkpt>
      <trkpt lat="44.80226" lon="6.9412">
        <ele>1971.32</ele>
        <time>2012-07-31T12:20:00Z</time>
      </trkpt>
      <trkpt lat="44.8024" lon="6.94122">
        <ele>1968.92</ele>
        <time>2012-07-31T12:20:17Z</time>
      </trkpt>
      <trkpt lat="44.80252" lon="6.9412">
        <ele>1966.99</ele>
        <time>2012-07-31T12:20:29Z</time>
      </trkpt>
      <trkpt lat="44.80253" lon="6.9412">
        <ele>1966.99</ele>
        <time>2012-07-31T12:20:31Z</time>
      </trkpt>
      <trkpt lat="44.80267" lon="6.94119">
        <ele>1965.07</ele>
        <time>2012-07-31T12:20:44Z</time>
      </trkpt>
      <trkpt lat="44.80279" lon="6.94115">
        <ele>1963.63</ele>
        <time>2012-07-31T12:20:56Z</time>
      </trkpt>
      <trkpt lat="44.80281" lon="6.94115">
        <ele>1962.67</ele>
        <time>2012-07-31T12:20:58Z</time>
      </trkpt>
      <trkpt lat="44.80282" lon="6.94114">
        <ele>1962.67</ele>
        <time>2012-07-31T12:21:01Z</time>
      </trkpt>
      <trkpt lat="44.80286" lon="6.94111">
        <ele>1961.23</ele>
        <time>2012-07-31T12:21:17Z</time>
      </trkpt>
      <trkpt lat="44.80285" lon="6.94111">
        <ele>1961.71</ele>
        <time>2012-07-31T12:21:39Z</time>
      </trkpt>
      <trkpt lat="44.80287" lon="6.94113">
        <ele>1962.19</ele>
        <time>2012-07-31T12:22:03Z</time>
      </trkpt>
      <trkpt lat="44.80289" lon="6.94113">
        <ele>1961.71</ele>
        <time>2012-07-31T12:22:23Z</time>
      </trkpt>
      <trkpt lat="44.80297" lon="6.94111">
        <ele>1960.27</ele>
        <time>2012-07-31T12:22:34Z</time>
      </trkpt>
      <trkpt lat="44.80314" lon="6.94111">
        <ele>1958.34</ele>
        <time>2012-07-31T12:22:48Z</time>
      </trkpt>
      <trkpt lat="44.80327" lon="6.94118">
        <ele>1958.34</ele>
        <time>2012-07-31T12:22:59Z</time>
      </trkpt>
      <trkpt lat="44.80337" lon="6.94126">
        <ele>1959.3</ele>
        <time>2012-07-31T12:23:10Z</time>
      </trkpt>
      <trkpt lat="44.80353" lon="6.9414">
        <ele>1959.78</ele>
        <time>2012-07-31T12:23:29Z</time>
      </trkpt>
      <trkpt lat="44.80365" lon="6.94148">
        <ele>1959.78</ele>
        <time>2012-07-31T12:23:44Z</time>
      </trkpt>
      <trkpt lat="44.80381" lon="6.94156">
        <ele>1960.27</ele>
        <time>2012-07-31T12:24:01Z</time>
      </trkpt>
      <trkpt lat="44.80392" lon="6.94162">
        <ele>1956.42</ele>
        <time>2012-07-31T12:24:11Z</time>
      </trkpt>
      <trkpt lat="44.80393" lon="6.94163">
        <ele>1960.75</ele>
        <time>2012-07-31T12:24:12Z</time>
      </trkpt>
      <trkpt lat="44.80394" lon="6.94164">
        <ele>1960.27</ele>
        <time>2012-07-31T12:24:13Z</time>
      </trkpt>
      <trkpt lat="44.80395" lon="6.94164">
        <ele>1959.3</ele>
        <time>2012-07-31T12:24:15Z</time>
      </trkpt>
      <trkpt lat="44.8041" lon="6.94159">
        <ele>1958.34</ele>
        <time>2012-07-31T12:24:32Z</time>
      </trkpt>
      <trkpt lat="44.80417" lon="6.94156">
        <ele>1956.9</ele>
        <time>2012-07-31T12:24:38Z</time>
      </trkpt>
      <trkpt lat="44.8043" lon="6.94155">
        <ele>1957.38</ele>
        <time>2012-07-31T12:24:53Z</time>
      </trkpt>
      <trkpt lat="44.80446" lon="6.94159">
        <ele>1956.42</ele>
        <time>2012-07-31T12:25:08Z</time>
      </trkpt>
      <trkpt lat="44.80463" lon="6.94157">
        <ele>1955.46</ele>
        <time>2012-07-31T12:25:24Z</time>
      </trkpt>
      <trkpt lat="44.80476" lon="6.94146">
        <ele>1954.98</ele>
        <time>2012-07-31T12:25:35Z</time>
      </trkpt>
      <trkpt lat="44.80492" lon="6.94133">
        <ele>1955.46</ele>
        <time>2012-07-31T12:25:50Z</time>
      </trkpt>
      <trkpt lat="44.80509" lon="6.94127">
        <ele>1954.98</ele>
        <time>2012-07-31T12:26:05Z</time>
      </trkpt>
      <trkpt lat="44.80524" lon="6.94117">
        <ele>1954.5</ele>
        <time>2012-07-31T12:26:19Z</time>
      </trkpt>
      <trkpt lat="44.80539" lon="6.94113">
        <ele>1954.02</ele>
        <time>2012-07-31T12:26:35Z</time>
      </trkpt>
      <trkpt lat="44.80548" lon="6.94112">
        <ele>1954.5</ele>
        <time>2012-07-31T12:26:43Z</time>
      </trkpt>
      <trkpt lat="44.80564" lon="6.94106">
        <ele>1954.02</ele>
        <time>2012-07-31T12:26:59Z</time>
      </trkpt>
      <trkpt lat="44.80564" lon="6.94106">
        <ele>1953.54</ele>
        <time>2012-07-31T12:27:01Z</time>
      </trkpt>
      <trkpt lat="44.80584" lon="6.94111">
        <ele>1953.06</ele>
        <time>2012-07-31T12:27:20Z</time>
      </trkpt>
      <trkpt lat="44.80589" lon="6.94111">
        <ele>1953.54</ele>
        <time>2012-07-31T12:27:25Z</time>
      </trkpt>
      <trkpt lat="44.80609" lon="6.94125">
        <ele>1953.06</ele>
        <time>2012-07-31T12:27:43Z</time>
      </trkpt>
      <trkpt lat="44.80629" lon="6.94137">
        <ele>1952.57</ele>
        <time>2012-07-31T12:28:01Z</time>
      </trkpt>
      <trkpt lat="44.80633" lon="6.94136">
        <ele>1953.54</ele>
        <time>2012-07-31T12:28:05Z</time>
      </trkpt>
      <trkpt lat="44.80649" lon="6.94139">
        <ele>1953.54</ele>
        <time>2012-07-31T12:28:21Z</time>
      </trkpt>
      <trkpt lat="44.80653" lon="6.94135">
        <ele>1952.57</ele>
        <time>2012-07-31T12:28:28Z</time>
      </trkpt>
      <trkpt lat="44.80669" lon="6.94133">
        <ele>1953.06</ele>
        <time>2012-07-31T12:28:46Z</time>
      </trkpt>
      <trkpt lat="44.80687" lon="6.94129">
        <ele>1953.54</ele>
        <time>2012-07-31T12:29:03Z</time>
      </trkpt>
      <trkpt lat="44.80699" lon="6.9413">
        <ele>1954.02</ele>
        <time>2012-07-31T12:29:16Z</time>
      </trkpt>
      <trkpt lat="44.80719" lon="6.9414">
        <ele>1954.02</ele>
        <time>2012-07-31T12:29:34Z</time>
      </trkpt>
      <trkpt lat="44.80733" lon="6.94155">
        <ele>1954.98</ele>
        <time>2012-07-31T12:29:51Z</time>
      </trkpt>
      <trkpt lat="44.80743" lon="6.9417">
        <ele>1955.46</ele>
        <time>2012-07-31T12:30:07Z</time>
      </trkpt>
      <trkpt lat="44.80745" lon="6.94174">
        <ele>1955.94</ele>
        <time>2012-07-31T12:30:12Z</time>
      </trkpt>
      <trkpt lat="44.80759" lon="6.94189">
        <ele>1954.98</ele>
        <time>2012-07-31T12:30:29Z</time>
      </trkpt>
      <trkpt lat="44.80768" lon="6.94197">
        <ele>1954.02</ele>
        <time>2012-07-31T12:30:38Z</time>
      </trkpt>
      <trkpt lat="44.8077" lon="6.94199">
        <ele>1954.02</ele>
        <time>2012-07-31T12:30:40Z</time>
      </trkpt>
      <trkpt lat="44.80785" lon="6.94222">
        <ele>1954.5</ele>
        <time>2012-07-31T12:30:56Z</time>
      </trkpt>
      <trkpt lat="44.80786" lon="6.94226">
        <ele>1955.94</ele>
        <time>2012-07-31T12:30:59Z</time>
      </trkpt>
      <trkpt lat="44.80796" lon="6.94243">
        <ele>1955.94</ele>
        <time>2012-07-31T12:31:16Z</time>
      </trkpt>
      <trkpt lat="44.80806" lon="6.94248">
        <ele>1955.46</ele>
        <time>2012-07-31T12:31:26Z</time>
      </trkpt>
      <trkpt lat="44.80811" lon="6.94247">
        <ele>1956.42</ele>
        <time>2012-07-31T12:31:30Z</time>
      </trkpt>
      <trkpt lat="44.80832" lon="6.9425">
        <ele>1955.46</ele>
        <time>2012-07-31T12:31:47Z</time>
      </trkpt>
      <trkpt lat="44.80835" lon="6.94252">
        <ele>1956.9</ele>
        <time>2012-07-31T12:31:51Z</time>
      </trkpt>
      <trkpt lat="44.80841" lon="6.94253">
        <ele>1956.9</ele>
        <time>2012-07-31T12:31:58Z</time>
      </trkpt>
      <trkpt lat="44.80849" lon="6.94249">
        <ele>1956.42</ele>
        <time>2012-07-31T12:32:14Z</time>
      </trkpt>
      <trkpt lat="44.80851" lon="6.94249">
        <ele>1957.38</ele>
        <time>2012-07-31T12:32:16Z</time>
      </trkpt>
      <trkpt lat="44.80852" lon="6.94249">
        <ele>1956.42</ele>
        <time>2012-07-31T12:32:17Z</time>
      </trkpt>
      <trkpt lat="44.80872" lon="6.94246">
        <ele>1956.9</ele>
        <time>2012-07-31T12:32:36Z</time>
      </trkpt>
      <trkpt lat="44.80889" lon="6.9424">
        <ele>1956.9</ele>
        <time>2012-07-31T12:32:57Z</time>
      </trkpt>
      <trkpt lat="44.80891" lon="6.94238">
        <ele>1955.94</ele>
        <time>2012-07-31T12:32:58Z</time>
      </trkpt>
      <trkpt lat="44.80895" lon="6.94237">
        <ele>1956.9</ele>
        <time>2012-07-31T12:33:01Z</time>
      </trkpt>
      <trkpt lat="44.80913" lon="6.94238">
        <ele>1957.86</ele>
        <time>2012-07-31T12:33:17Z</time>
      </trkpt>
      <trkpt lat="44.8092" lon="6.94244">
        <ele>1957.86</ele>
        <time>2012-07-31T12:33:24Z</time>
      </trkpt>
      <trkpt lat="44.80928" lon="6.94251">
        <ele>1957.86</ele>
        <time>2012-07-31T12:33:32Z</time>
      </trkpt>
      <trkpt lat="44.80934" lon="6.94255">
        <ele>1957.86</ele>
        <time>2012-07-31T12:33:38Z</time>
      </trkpt>
      <trkpt lat="44.80948" lon="6.94266">
        <ele>1958.34</ele>
        <time>2012-07-31T12:33:52Z</time>
      </trkpt>
      <trkpt lat="44.80968" lon="6.94283">
        <ele>1957.86</ele>
        <time>2012-07-31T12:34:12Z</time>
      </trkpt>
      <trkpt lat="44.80971" lon="6.94287">
        <ele>1959.3</ele>
        <time>2012-07-31T12:34:16Z</time>
      </trkpt>
      <trkpt lat="44.8098" lon="6.94302">
        <ele>1959.3</ele>
        <time>2012-07-31T12:34:26Z</time>
      </trkpt>
      <trkpt lat="44.80984" lon="6.94311">
        <ele>1959.3</ele>
        <time>2012-07-31T12:34:34Z</time>
      </trkpt>
      <trkpt lat="44.80996" lon="6.94328">
        <ele>1957.86</ele>
        <time>2012-07-31T12:34:49Z</time>
      </trkpt>
      <trkpt lat="44.81004" lon="6.94341">
        <ele>1959.78</ele>
        <time>2012-07-31T12:35:00Z</time>
      </trkpt>
      <trkpt lat="44.8101" lon="6.94354">
        <ele>1960.27</ele>
        <time>2012-07-31T12:35:09Z</time>
      </trkpt>
      <trkpt lat="44.8102" lon="6.94377">
        <ele>1959.78</ele>
        <time>2012-07-31T12:35:26Z</time>
      </trkpt>
      <trkpt lat="44.81023" lon="6.94381">
        <ele>1959.3</ele>
        <time>2012-07-31T12:35:30Z</time>
      </trkpt>
      <trkpt lat="44.81026" lon="6.94384">
        <ele>1955.94</ele>
        <time>2012-07-31T12:35:36Z</time>
      </trkpt>
      <trkpt lat="44.81026" lon="6.94384">
        <ele>1960.27</ele>
        <time>2012-07-31T12:35:38Z</time>
      </trkpt>
      <trkpt lat="44.81026" lon="6.94384">
        <ele>1961.71</ele>
        <time>2012-07-31T12:35:41Z</time>
      </trkpt>
      <trkpt lat="44.81024" lon="6.94382">
        <ele>1955.94</ele>
        <time>2012-07-31T12:36:12Z</time>
      </trkpt>
      <trkpt lat="44.81024" lon="6.94382">
        <ele>1960.75</ele>
        <time>2012-07-31T12:36:13Z</time>
      </trkpt>
      <trkpt lat="44.81024" lon="6.94382">
        <ele>1956.9</ele>
        <time>2012-07-31T12:36:16Z</time>
      </trkpt>
      <trkpt lat="44.81024" lon="6.94382">
        <ele>1950.65</ele>
        <time>2012-07-31T12:36:17Z</time>
      </trkpt>
      <trkpt lat="44.81024" lon="6.94382">
        <ele>1961.71</ele>
        <time>2012-07-31T12:36:18Z</time>
      </trkpt>
      <trkpt lat="44.81025" lon="6.94385">
        <ele>1959.78</ele>
        <time>2012-07-31T12:36:26Z</time>
      </trkpt>
      <trkpt lat="44.81026" lon="6.94388">
        <ele>1959.3</ele>
        <time>2012-07-31T12:36:28Z</time>
      </trkpt>
      <trkpt lat="44.81037" lon="6.94409">
        <ele>1959.78</ele>
        <time>2012-07-31T12:36:44Z</time>
      </trkpt>
      <trkpt lat="44.81039" lon="6.94414">
        <ele>1959.3</ele>
        <time>2012-07-31T12:36:48Z</time>
      </trkpt>
      <trkpt lat="44.81041" lon="6.94416">
        <ele>1960.75</ele>
        <time>2012-07-31T12:36:50Z</time>
      </trkpt>
      <trkpt lat="44.81045" lon="6.94426">
        <ele>1959.78</ele>
        <time>2012-07-31T12:36:56Z</time>
      </trkpt>
      <trkpt lat="44.81055" lon="6.9444">
        <ele>1958.82</ele>
        <time>2012-07-31T12:37:10Z</time>
      </trkpt>
      <trkpt lat="44.81057" lon="6.94443">
        <ele>1960.27</ele>
        <time>2012-07-31T12:37:12Z</time>
      </trkpt>
      <trkpt lat="44.81064" lon="6.9446">
        <ele>1961.23</ele>
        <time>2012-07-31T12:37:24Z</time>
      </trkpt>
      <trkpt lat="44.81066" lon="6.94464">
        <ele>1959.78</ele>
        <time>2012-07-31T12:37:27Z</time>
      </trkpt>
      <trkpt lat="44.81068" lon="6.9447">
        <ele>1959.78</ele>
        <time>2012-07-31T12:37:31Z</time>
      </trkpt>
      <trkpt lat="44.81071" lon="6.94478">
        <ele>1960.27</ele>
        <time>2012-07-31T12:37:37Z</time>
      </trkpt>
      <trkpt lat="44.81073" lon="6.94478">
        <ele>1960.27</ele>
        <time>2012-07-31T12:37:43Z</time>
      </trkpt>
      <trkpt lat="44.81074" lon="6.94483">
        <ele>1962.19</ele>
        <time>2012-07-31T12:37:47Z</time>
      </trkpt>
      <trkpt lat="44.81076" lon="6.94487">
        <ele>1960.27</ele>
        <time>2012-07-31T12:37:50Z</time>
      </trkpt>
      <trkpt lat="44.8108" lon="6.9449">
        <ele>1960.27</ele>
        <time>2012-07-31T12:38:09Z</time>
      </trkpt>
      <trkpt lat="44.81079" lon="6.9449">
        <ele>1959.78</ele>
        <time>2012-07-31T12:38:23Z</time>
      </trkpt>
      <trkpt lat="44.81081" lon="6.94494">
        <ele>1960.27</ele>
        <time>2012-07-31T12:38:27Z</time>
      </trkpt>
      <trkpt lat="44.81087" lon="6.94503">
        <ele>1960.27</ele>
        <time>2012-07-31T12:38:36Z</time>
      </trkpt>
      <trkpt lat="44.81097" lon="6.94519">
        <ele>1959.3</ele>
        <time>2012-07-31T12:38:50Z</time>
      </trkpt>
      <trkpt lat="44.811" lon="6.94525">
        <ele>1959.78</ele>
        <time>2012-07-31T12:38:58Z</time>
      </trkpt>
      <trkpt lat="44.81108" lon="6.94537">
        <ele>1959.3</ele>
        <time>2012-07-31T12:39:10Z</time>
      </trkpt>
      <trkpt lat="44.81109" lon="6.9454">
        <ele>1961.23</ele>
        <time>2012-07-31T12:39:12Z</time>
      </trkpt>
      <trkpt lat="44.81115" lon="6.94553">
        <ele>1960.75</ele>
        <time>2012-07-31T12:39:22Z</time>
      </trkpt>
      <trkpt lat="44.81118" lon="6.94561">
        <ele>1960.75</ele>
        <time>2012-07-31T12:39:27Z</time>
      </trkpt>
      <trkpt lat="44.8113" lon="6.94587">
        <ele>1962.19</ele>
        <time>2012-07-31T12:39:44Z</time>
      </trkpt>
      <trkpt lat="44.8113" lon="6.94588">
        <ele>1962.19</ele>
        <time>2012-07-31T12:39:45Z</time>
      </trkpt>
      <trkpt lat="44.81136" lon="6.94598">
        <ele>1962.19</ele>
        <time>2012-07-31T12:39:52Z</time>
      </trkpt>
      <trkpt lat="44.81142" lon="6.94607">
        <ele>1961.71</ele>
        <time>2012-07-31T12:40:00Z</time>
      </trkpt>
      <trkpt lat="44.81147" lon="6.94619">
        <ele>1962.19</ele>
        <time>2012-07-31T12:40:08Z</time>
      </trkpt>
      <trkpt lat="44.81155" lon="6.94645">
        <ele>1961.71</ele>
        <time>2012-07-31T12:40:23Z</time>
      </trkpt>
      <trkpt lat="44.81156" lon="6.9465">
        <ele>1962.67</ele>
        <time>2012-07-31T12:40:27Z</time>
      </trkpt>
      <trkpt lat="44.81157" lon="6.94651">
        <ele>1963.15</ele>
        <time>2012-07-31T12:40:28Z</time>
      </trkpt>
      <trkpt lat="44.81157" lon="6.94657">
        <ele>1961.71</ele>
        <time>2012-07-31T12:40:32Z</time>
      </trkpt>
      <trkpt lat="44.81158" lon="6.94663">
        <ele>1962.19</ele>
        <time>2012-07-31T12:40:35Z</time>
      </trkpt>
      <trkpt lat="44.81157" lon="6.94676">
        <ele>1962.67</ele>
        <time>2012-07-31T12:40:45Z</time>
      </trkpt>
      <trkpt lat="44.81155" lon="6.94706">
        <ele>1962.67</ele>
        <time>2012-07-31T12:41:01Z</time>
      </trkpt>
      <trkpt lat="44.81152" lon="6.94724">
        <ele>1962.19</ele>
        <time>2012-07-31T12:41:12Z</time>
      </trkpt>
      <trkpt lat="44.81152" lon="6.94734">
        <ele>1961.23</ele>
        <time>2012-07-31T12:41:30Z</time>
      </trkpt>
      <trkpt lat="44.8115" lon="6.94736">
        <ele>1963.63</ele>
        <time>2012-07-31T12:41:36Z</time>
      </trkpt>
      <trkpt lat="44.81147" lon="6.94741">
        <ele>1961.23</ele>
        <time>2012-07-31T12:41:55Z</time>
      </trkpt>
      <trkpt lat="44.81147" lon="6.94743">
        <ele>1962.19</ele>
        <time>2012-07-31T12:42:12Z</time>
      </trkpt>
      <trkpt lat="44.81142" lon="6.94742">
        <ele>1962.67</ele>
        <time>2012-07-31T12:42:19Z</time>
      </trkpt>
      <trkpt lat="44.81131" lon="6.94739">
        <ele>1958.82</ele>
        <time>2012-07-31T12:42:30Z</time>
      </trkpt>
      <trkpt lat="44.8113" lon="6.94739">
        <ele>1964.59</ele>
        <time>2012-07-31T12:42:31Z</time>
      </trkpt>
      <trkpt lat="44.81136" lon="6.94736">
        <ele>1960.75</ele>
        <time>2012-07-31T12:42:32Z</time>
      </trkpt>
      <trkpt lat="44.81137" lon="6.94735">
        <ele>1961.23</ele>
        <time>2012-07-31T12:42:33Z</time>
      </trkpt>
      <trkpt lat="44.81138" lon="6.94743">
        <ele>1960.75</ele>
        <time>2012-07-31T12:42:51Z</time>
      </trkpt>
      <trkpt lat="44.81142" lon="6.94742">
        <ele>1960.27</ele>
        <time>2012-07-31T12:43:04Z</time>
      </trkpt>
      <trkpt lat="44.81145" lon="6.94742">
        <ele>1963.63</ele>
        <time>2012-07-31T12:43:13Z</time>
      </trkpt>
      <trkpt lat="44.81146" lon="6.94742">
        <ele>1960.27</ele>
        <time>2012-07-31T12:43:14Z</time>
      </trkpt>
      <trkpt lat="44.81149" lon="6.94741">
        <ele>1959.78</ele>
        <time>2012-07-31T12:43:45Z</time>
      </trkpt>
      <trkpt lat="44.81149" lon="6.94741">
        <ele>1961.71</ele>
        <time>2012-07-31T12:43:47Z</time>
      </trkpt>
      <trkpt lat="44.81151" lon="6.94739">
        <ele>1961.23</ele>
        <time>2012-07-31T12:44:21Z</time>
      </trkpt>
      <trkpt lat="44.81151" lon="6.9474">
        <ele>1961.23</ele>
        <time>2012-07-31T12:44:46Z</time>
      </trkpt>
      <trkpt lat="44.81137" lon="6.94749">
        <ele>1960.75</ele>
        <time>2012-07-31T12:45:08Z</time>
      </trkpt>
      <trkpt lat="44.81131" lon="6.94775">
        <ele>1961.23</ele>
        <time>2012-07-31T12:45:31Z</time>
      </trkpt>
      <trkpt lat="44.8113" lon="6.94805">
        <ele>1960.75</ele>
        <time>2012-07-31T12:45:54Z</time>
      </trkpt>
      <trkpt lat="44.81126" lon="6.94828">
        <ele>1960.75</ele>
        <time>2012-07-31T12:46:17Z</time>
      </trkpt>
      <trkpt lat="44.8112" lon="6.94855">
        <ele>1960.75</ele>
        <time>2012-07-31T12:46:34Z</time>
      </trkpt>
      <trkpt lat="44.81117" lon="6.94862">
        <ele>1962.67</ele>
        <time>2012-07-31T12:46:40Z</time>
      </trkpt>
      <trkpt lat="44.81103" lon="6.94879">
        <ele>1962.67</ele>
        <time>2012-07-31T12:47:02Z</time>
      </trkpt>
      <trkpt lat="44.81109" lon="6.94878">
        <ele>1962.67</ele>
        <time>2012-07-31T12:47:26Z</time>
      </trkpt>
      <trkpt lat="44.81114" lon="6.94878">
        <ele>1962.19</ele>
        <time>2012-07-31T12:47:56Z</time>
      </trkpt>
      <trkpt lat="44.81097" lon="6.94882">
        <ele>1961.23</ele>
        <time>2012-07-31T12:48:26Z</time>
      </trkpt>
      <trkpt lat="44.81102" lon="6.94886">
        <ele>1963.15</ele>
        <time>2012-07-31T12:48:44Z</time>
      </trkpt>
      <trkpt lat="44.81101" lon="6.94885">
        <ele>1961.23</ele>
        <time>2012-07-31T12:49:08Z</time>
      </trkpt>
      <trkpt lat="44.81101" lon="6.94884">
        <ele>1964.11</ele>
        <time>2012-07-31T12:49:12Z</time>
      </trkpt>
      <trkpt lat="44.81093" lon="6.94892">
        <ele>1962.19</ele>
        <time>2012-07-31T12:49:27Z</time>
      </trkpt>
      <trkpt lat="44.81091" lon="6.94893">
        <ele>1963.63</ele>
        <time>2012-07-31T12:49:29Z</time>
      </trkpt>
      <trkpt lat="44.81091" lon="6.94893">
        <ele>1962.67</ele>
        <time>2012-07-31T12:49:30Z</time>
      </trkpt>
      <trkpt lat="44.81082" lon="6.94906">
        <ele>1962.67</ele>
        <time>2012-07-31T12:49:44Z</time>
      </trkpt>
      <trkpt lat="44.81082" lon="6.94907">
        <ele>1962.67</ele>
        <time>2012-07-31T12:49:45Z</time>
      </trkpt>
      <trkpt lat="44.81076" lon="6.94922">
        <ele>1962.19</ele>
        <time>2012-07-31T12:49:56Z</time>
      </trkpt>
      <trkpt lat="44.81074" lon="6.94925">
        <ele>1963.15</ele>
        <time>2012-07-31T12:50:00Z</time>
      </trkpt>
      <trkpt lat="44.81073" lon="6.94931">
        <ele>1964.11</ele>
        <time>2012-07-31T12:50:03Z</time>
      </trkpt>
      <trkpt lat="44.81069" lon="6.94946">
        <ele>1963.63</ele>
        <time>2012-07-31T12:50:17Z</time>
      </trkpt>
      <trkpt lat="44.81061" lon="6.94971">
        <ele>1963.63</ele>
        <time>2012-07-31T12:50:37Z</time>
      </trkpt>
      <trkpt lat="44.81059" lon="6.94989">
        <ele>1963.15</ele>
        <time>2012-07-31T12:50:52Z</time>
      </trkpt>
      <trkpt lat="44.81051" lon="6.95014">
        <ele>1963.63</ele>
        <time>2012-07-31T12:51:11Z</time>
      </trkpt>
      <trkpt lat="44.8105" lon="6.95026">
        <ele>1963.63</ele>
        <time>2012-07-31T12:51:32Z</time>
      </trkpt>
      <trkpt lat="44.81044" lon="6.95032">
        <ele>1964.11</ele>
        <time>2012-07-31T12:51:54Z</time>
      </trkpt>
      <trkpt lat="44.81042" lon="6.95028">
        <ele>1963.63</ele>
        <time>2012-07-31T12:52:24Z</time>
      </trkpt>
      <trkpt lat="44.81034" lon="6.95035">
        <ele>1963.63</ele>
        <time>2012-07-31T12:52:50Z</time>
      </trkpt>
      <trkpt lat="44.81034" lon="6.95034">
        <ele>1963.15</ele>
        <time>2012-07-31T12:53:16Z</time>
      </trkpt>
      <trkpt lat="44.81036" lon="6.95048">
        <ele>1964.11</ele>
        <time>2012-07-31T12:53:42Z</time>
      </trkpt>
      <trkpt lat="44.81026" lon="6.95073">
        <ele>1964.59</ele>
        <time>2012-07-31T12:54:05Z</time>
      </trkpt>
      <trkpt lat="44.81006" lon="6.951">
        <ele>1963.63</ele>
        <time>2012-07-31T12:54:32Z</time>
      </trkpt>
      <trkpt lat="44.80988" lon="6.95126">
        <ele>1963.63</ele>
        <time>2012-07-31T12:54:55Z</time>
      </trkpt>
      <trkpt lat="44.80969" lon="6.95151">
        <ele>1964.59</ele>
        <time>2012-07-31T12:55:17Z</time>
      </trkpt>
      <trkpt lat="44.80954" lon="6.95178">
        <ele>1964.59</ele>
        <time>2012-07-31T12:55:38Z</time>
      </trkpt>
      <trkpt lat="44.80938" lon="6.95201">
        <ele>1965.55</ele>
        <time>2012-07-31T12:55:57Z</time>
      </trkpt>
      <trkpt lat="44.80937" lon="6.95204">
        <ele>1964.59</ele>
        <time>2012-07-31T12:55:59Z</time>
      </trkpt>
      <trkpt lat="44.80931" lon="6.95222">
        <ele>1964.59</ele>
        <time>2012-07-31T12:56:10Z</time>
      </trkpt>
      <trkpt lat="44.80935" lon="6.95241">
        <ele>1964.11</ele>
        <time>2012-07-31T12:56:27Z</time>
      </trkpt>
      <trkpt lat="44.80937" lon="6.95248">
        <ele>1964.11</ele>
        <time>2012-07-31T12:56:32Z</time>
      </trkpt>
      <trkpt lat="44.80941" lon="6.95275">
        <ele>1963.63</ele>
        <time>2012-07-31T12:56:48Z</time>
      </trkpt>
      <trkpt lat="44.8094" lon="6.95277">
        <ele>1964.11</ele>
        <time>2012-07-31T12:56:50Z</time>
      </trkpt>
      <trkpt lat="44.80943" lon="6.95303">
        <ele>1962.67</ele>
        <time>2012-07-31T12:57:06Z</time>
      </trkpt>
      <trkpt lat="44.80945" lon="6.95312">
        <ele>1962.67</ele>
        <time>2012-07-31T12:57:12Z</time>
      </trkpt>
      <trkpt lat="44.80949" lon="6.95327">
        <ele>1961.71</ele>
        <time>2012-07-31T12:57:24Z</time>
      </trkpt>
      <trkpt lat="44.8096" lon="6.95343">
        <ele>1960.75</ele>
        <time>2012-07-31T12:57:41Z</time>
      </trkpt>
      <trkpt lat="44.8095" lon="6.95345">
        <ele>1961.71</ele>
        <time>2012-07-31T12:58:02Z</time>
      </trkpt>
      <trkpt lat="44.8095" lon="6.95348">
        <ele>1960.75</ele>
        <time>2012-07-31T12:58:08Z</time>
      </trkpt>
      <trkpt lat="44.80947" lon="6.95358">
        <ele>1961.23</ele>
        <time>2012-07-31T12:58:18Z</time>
      </trkpt>
      <trkpt lat="44.80938" lon="6.9538">
        <ele>1959.3</ele>
        <time>2012-07-31T12:58:36Z</time>
      </trkpt>
      <trkpt lat="44.80933" lon="6.95389">
        <ele>1956.9</ele>
        <time>2012-07-31T12:58:43Z</time>
      </trkpt>
      <trkpt lat="44.80927" lon="6.95401">
        <ele>1957.86</ele>
        <time>2012-07-31T12:58:53Z</time>
      </trkpt>
      <trkpt lat="44.80925" lon="6.9541">
        <ele>1957.86</ele>
        <time>2012-07-31T12:59:04Z</time>
      </trkpt>
      <trkpt lat="44.80924" lon="6.95415">
        <ele>1959.78</ele>
        <time>2012-07-31T12:59:08Z</time>
      </trkpt>
      <trkpt lat="44.80918" lon="6.95438">
        <ele>1956.42</ele>
        <time>2012-07-31T12:59:26Z</time>
      </trkpt>
      <trkpt lat="44.80917" lon="6.95443">
        <ele>1956.9</ele>
        <time>2012-07-31T12:59:30Z</time>
      </trkpt>
      <trkpt lat="44.80911" lon="6.95466">
        <ele>1955.94</ele>
        <time>2012-07-31T12:59:48Z</time>
      </trkpt>
      <trkpt lat="44.80908" lon="6.95474">
        <ele>1955.46</ele>
        <time>2012-07-31T12:59:53Z</time>
      </trkpt>
      <trkpt lat="44.80898" lon="6.95484">
        <ele>1954.98</ele>
        <time>2012-07-31T13:00:15Z</time>
      </trkpt>
      <trkpt lat="44.80897" lon="6.95484">
        <ele>1955.46</ele>
        <time>2012-07-31T13:00:41Z</time>
      </trkpt>
      <trkpt lat="44.80897" lon="6.95485">
        <ele>1956.42</ele>
        <time>2012-07-31T13:00:43Z</time>
      </trkpt>
      <trkpt lat="44.80903" lon="6.95471">
        <ele>1955.94</ele>
        <time>2012-07-31T13:01:01Z</time>
      </trkpt>
      <trkpt lat="44.80912" lon="6.95467">
        <ele>1955.46</ele>
        <time>2012-07-31T13:01:18Z</time>
      </trkpt>
      <trkpt lat="44.80917" lon="6.95473">
        <ele>1955.94</ele>
        <time>2012-07-31T13:01:23Z</time>
      </trkpt>
      <trkpt lat="44.80917" lon="6.95477">
        <ele>1955.46</ele>
        <time>2012-07-31T13:01:25Z</time>
      </trkpt>
      <trkpt lat="44.80915" lon="6.95488">
        <ele>1954.98</ele>
        <time>2012-07-31T13:01:31Z</time>
      </trkpt>
      <trkpt lat="44.80891" lon="6.95527">
        <ele>1953.06</ele>
        <time>2012-07-31T13:01:54Z</time>
      </trkpt>
      <trkpt lat="44.80891" lon="6.95535">
        <ele>1952.09</ele>
        <time>2012-07-31T13:01:59Z</time>
      </trkpt>
      <trkpt lat="44.80891" lon="6.95543">
        <ele>1952.09</ele>
        <time>2012-07-31T13:02:03Z</time>
      </trkpt>
      <trkpt lat="44.80889" lon="6.95549">
        <ele>1951.61</ele>
        <time>2012-07-31T13:02:07Z</time>
      </trkpt>
      <trkpt lat="44.80879" lon="6.95567">
        <ele>1950.65</ele>
        <time>2012-07-31T13:02:20Z</time>
      </trkpt>
      <trkpt lat="44.80873" lon="6.95588">
        <ele>1949.69</ele>
        <time>2012-07-31T13:02:36Z</time>
      </trkpt>
      <trkpt lat="44.80862" lon="6.95611">
        <ele>1948.25</ele>
        <time>2012-07-31T13:02:58Z</time>
      </trkpt>
      <trkpt lat="44.80853" lon="6.95626">
        <ele>1948.73</ele>
        <time>2012-07-31T13:03:12Z</time>
      </trkpt>
      <trkpt lat="44.8084" lon="6.95649">
        <ele>1947.77</ele>
        <time>2012-07-31T13:03:35Z</time>
      </trkpt>
      <trkpt lat="44.8084" lon="6.95652">
        <ele>1948.25</ele>
        <time>2012-07-31T13:03:38Z</time>
      </trkpt>
      <trkpt lat="44.80843" lon="6.95666">
        <ele>1948.73</ele>
        <time>2012-07-31T13:03:55Z</time>
      </trkpt>
      <trkpt lat="44.80845" lon="6.95664">
        <ele>1947.29</ele>
        <time>2012-07-31T13:03:58Z</time>
      </trkpt>
      <trkpt lat="44.80853" lon="6.95652">
        <ele>1943.44</ele>
        <time>2012-07-31T13:04:15Z</time>
      </trkpt>
      <trkpt lat="44.80859" lon="6.95642">
        <ele>1939.6</ele>
        <time>2012-07-31T13:04:29Z</time>
      </trkpt>
      <trkpt lat="44.80865" lon="6.95633">
        <ele>1936.23</ele>
        <time>2012-07-31T13:04:42Z</time>
      </trkpt>
      <trkpt lat="44.80866" lon="6.95632">
        <ele>1935.75</ele>
        <time>2012-07-31T13:04:43Z</time>
      </trkpt>
      <trkpt lat="44.80866" lon="6.95631">
        <ele>1939.6</ele>
        <time>2012-07-31T13:04:44Z</time>
      </trkpt>
      <trkpt lat="44.80866" lon="6.95628">
        <ele>1934.79</ele>
        <time>2012-07-31T13:04:46Z</time>
      </trkpt>
      <trkpt lat="44.80866" lon="6.95627">
        <ele>1941.52</ele>
        <time>2012-07-31T13:04:47Z</time>
      </trkpt>
      <trkpt lat="44.80867" lon="6.95626">
        <ele>1937.67</ele>
        <time>2012-07-31T13:04:48Z</time>
      </trkpt>
      <trkpt lat="44.80867" lon="6.95623">
        <ele>1939.12</ele>
        <time>2012-07-31T13:04:51Z</time>
      </trkpt>
      <trkpt lat="44.80873" lon="6.95607">
        <ele>1937.67</ele>
        <time>2012-07-31T13:05:12Z</time>
      </trkpt>
      <trkpt lat="44.80874" lon="6.95593">
        <ele>1934.31</ele>
        <time>2012-07-31T13:05:28Z</time>
      </trkpt>
      <trkpt lat="44.80888" lon="6.95579">
        <ele>1932.39</ele>
        <time>2012-07-31T13:05:46Z</time>
      </trkpt>
      <trkpt lat="44.80893" lon="6.95575">
        <ele>1932.87</ele>
        <time>2012-07-31T13:05:50Z</time>
      </trkpt>
      <trkpt lat="44.80899" lon="6.95566">
        <ele>1930.95</ele>
        <time>2012-07-31T13:06:11Z</time>
      </trkpt>
      <trkpt lat="44.80907" lon="6.9556">
        <ele>1927.58</ele>
        <time>2012-07-31T13:06:25Z</time>
      </trkpt>
      <trkpt lat="44.8092" lon="6.95555">
        <ele>1924.7</ele>
        <time>2012-07-31T13:06:40Z</time>
      </trkpt>
      <trkpt lat="44.8093" lon="6.9555">
        <ele>1921.33</ele>
        <time>2012-07-31T13:06:51Z</time>
      </trkpt>
      <trkpt lat="44.80938" lon="6.95539">
        <ele>1918.45</ele>
        <time>2012-07-31T13:07:05Z</time>
      </trkpt>
      <trkpt lat="44.80946" lon="6.95527">
        <ele>1914.6</ele>
        <time>2012-07-31T13:07:19Z</time>
      </trkpt>
      <trkpt lat="44.80957" lon="6.95529">
        <ele>1915.08</ele>
        <time>2012-07-31T13:07:40Z</time>
      </trkpt>
      <trkpt lat="44.80962" lon="6.95528">
        <ele>1914.6</ele>
        <time>2012-07-31T13:08:03Z</time>
      </trkpt>
      <trkpt lat="44.80955" lon="6.95532">
        <ele>1914.12</ele>
        <time>2012-07-31T13:08:29Z</time>
      </trkpt>
      <trkpt lat="44.8097" lon="6.95526">
        <ele>1914.6</ele>
        <time>2012-07-31T13:08:58Z</time>
      </trkpt>
      <trkpt lat="44.80971" lon="6.95526">
        <ele>1913.16</ele>
        <time>2012-07-31T13:09:23Z</time>
      </trkpt>
      <trkpt lat="44.8098" lon="6.95522">
        <ele>1914.12</ele>
        <time>2012-07-31T13:09:44Z</time>
      </trkpt>
      <trkpt lat="44.80979" lon="6.9552">
        <ele>1914.12</ele>
        <time>2012-07-31T13:09:46Z</time>
      </trkpt>
      <trkpt lat="44.80977" lon="6.95518">
        <ele>1914.12</ele>
        <time>2012-07-31T13:09:48Z</time>
      </trkpt>
      <trkpt lat="44.80975" lon="6.95526">
        <ele>1913.64</ele>
        <time>2012-07-31T13:10:00Z</time>
      </trkpt>
      <trkpt lat="44.80976" lon="6.95528">
        <ele>1914.12</ele>
        <time>2012-07-31T13:10:02Z</time>
      </trkpt>
      <trkpt lat="44.80987" lon="6.95534">
        <ele>1913.64</ele>
        <time>2012-07-31T13:10:09Z</time>
      </trkpt>
      <trkpt lat="44.81007" lon="6.95529">
        <ele>1913.64</ele>
        <time>2012-07-31T13:10:29Z</time>
      </trkpt>
      <trkpt lat="44.81011" lon="6.95532">
        <ele>1913.16</ele>
        <time>2012-07-31T13:10:41Z</time>
      </trkpt>
      <trkpt lat="44.81013" lon="6.9552">
        <ele>1912.68</ele>
        <time>2012-07-31T13:11:01Z</time>
      </trkpt>
      <trkpt lat="44.81011" lon="6.95511">
        <ele>1909.32</ele>
        <time>2012-07-31T13:11:17Z</time>
      </trkpt>
      <trkpt lat="44.81001" lon="6.95492">
        <ele>1909.8</ele>
        <time>2012-07-31T13:11:39Z</time>
      </trkpt>
      <trkpt lat="44.80999" lon="6.95488">
        <ele>1906.91</ele>
        <time>2012-07-31T13:11:54Z</time>
      </trkpt>
      <trkpt lat="44.80999" lon="6.95488">
        <ele>1909.32</ele>
        <time>2012-07-31T13:11:55Z</time>
      </trkpt>
      <trkpt lat="44.81002" lon="6.95491">
        <ele>1911.72</ele>
        <time>2012-07-31T13:12:22Z</time>
      </trkpt>
      <trkpt lat="44.81008" lon="6.95489">
        <ele>1908.35</ele>
        <time>2012-07-31T13:12:52Z</time>
      </trkpt>
      <trkpt lat="44.81014" lon="6.95488">
        <ele>1907.39</ele>
        <time>2012-07-31T13:12:59Z</time>
      </trkpt>
      <trkpt lat="44.81017" lon="6.95486">
        <ele>1906.91</ele>
        <time>2012-07-31T13:13:02Z</time>
      </trkpt>
      <trkpt lat="44.81036" lon="6.95469">
        <ele>1903.07</ele>
        <time>2012-07-31T13:13:21Z</time>
      </trkpt>
      <trkpt lat="44.81038" lon="6.95465">
        <ele>1902.59</ele>
        <time>2012-07-31T13:13:26Z</time>
      </trkpt>
      <trkpt lat="44.81053" lon="6.95454">
        <ele>1899.22</ele>
        <time>2012-07-31T13:13:43Z</time>
      </trkpt>
      <trkpt lat="44.81058" lon="6.95443">
        <ele>1897.78</ele>
        <time>2012-07-31T13:13:52Z</time>
      </trkpt>
      <trkpt lat="44.81072" lon="6.95425">
        <ele>1894.42</ele>
        <time>2012-07-31T13:14:09Z</time>
      </trkpt>
      <trkpt lat="44.81076" lon="6.9542">
        <ele>1892.97</ele>
        <time>2012-07-31T13:14:16Z</time>
      </trkpt>
      <trkpt lat="44.81086" lon="6.95408">
        <ele>1889.61</ele>
        <time>2012-07-31T13:14:31Z</time>
      </trkpt>
      <trkpt lat="44.81093" lon="6.95401">
        <ele>1886.24</ele>
        <time>2012-07-31T13:14:40Z</time>
      </trkpt>
      <trkpt lat="44.81104" lon="6.95396">
        <ele>1884.32</ele>
        <time>2012-07-31T13:14:46Z</time>
      </trkpt>
      <trkpt lat="44.81105" lon="6.95395">
        <ele>1888.65</ele>
        <time>2012-07-31T13:14:47Z</time>
      </trkpt>
      <trkpt lat="44.81106" lon="6.95394">
        <ele>1885.76</ele>
        <time>2012-07-31T13:14:48Z</time>
      </trkpt>
      <trkpt lat="44.81108" lon="6.95389">
        <ele>1884.32</ele>
        <time>2012-07-31T13:14:52Z</time>
      </trkpt>
      <trkpt lat="44.81105" lon="6.95378">
        <ele>1882.4</ele>
        <time>2012-07-31T13:15:16Z</time>
      </trkpt>
      <trkpt lat="44.81107" lon="6.95359">
        <ele>1879.03</ele>
        <time>2012-07-31T13:15:31Z</time>
      </trkpt>
      <trkpt lat="44.81115" lon="6.95335">
        <ele>1875.19</ele>
        <time>2012-07-31T13:15:50Z</time>
      </trkpt>
      <trkpt lat="44.81116" lon="6.95332">
        <ele>1874.71</ele>
        <time>2012-07-31T13:15:52Z</time>
      </trkpt>
      <trkpt lat="44.81115" lon="6.9532">
        <ele>1870.86</ele>
        <time>2012-07-31T13:16:06Z</time>
      </trkpt>
      <trkpt lat="44.81117" lon="6.95319">
        <ele>1867.98</ele>
        <time>2012-07-31T13:16:10Z</time>
      </trkpt>
      <trkpt lat="44.81118" lon="6.95318">
        <ele>1871.34</ele>
        <time>2012-07-31T13:16:11Z</time>
      </trkpt>
      <trkpt lat="44.81124" lon="6.95316">
        <ele>1868.46</ele>
        <time>2012-07-31T13:16:20Z</time>
      </trkpt>
      <trkpt lat="44.81131" lon="6.95309">
        <ele>1864.61</ele>
        <time>2012-07-31T13:16:32Z</time>
      </trkpt>
      <trkpt lat="44.81133" lon="6.95308">
        <ele>1863.65</ele>
        <time>2012-07-31T13:16:35Z</time>
      </trkpt>
      <trkpt lat="44.81141" lon="6.95297">
        <ele>1860.29</ele>
        <time>2012-07-31T13:16:47Z</time>
      </trkpt>
      <trkpt lat="44.81149" lon="6.95291">
        <ele>1855.96</ele>
        <time>2012-07-31T13:17:06Z</time>
      </trkpt>
      <trkpt lat="44.81161" lon="6.95303">
        <ele>1855.48</ele>
        <time>2012-07-31T13:17:20Z</time>
      </trkpt>
      <trkpt lat="44.81162" lon="6.95307">
        <ele>1854.04</ele>
        <time>2012-07-31T13:17:23Z</time>
      </trkpt>
      <trkpt lat="44.81162" lon="6.95314">
        <ele>1854.04</ele>
        <time>2012-07-31T13:17:28Z</time>
      </trkpt>
      <trkpt lat="44.81165" lon="6.95332">
        <ele>1849.71</ele>
        <time>2012-07-31T13:17:45Z</time>
      </trkpt>
      <trkpt lat="44.81166" lon="6.95334">
        <ele>1848.75</ele>
        <time>2012-07-31T13:17:47Z</time>
      </trkpt>
      <trkpt lat="44.81168" lon="6.95346">
        <ele>1845.87</ele>
        <time>2012-07-31T13:18:00Z</time>
      </trkpt>
      <trkpt lat="44.8117" lon="6.95356">
        <ele>1842.5</ele>
        <time>2012-07-31T13:18:11Z</time>
      </trkpt>
      <trkpt lat="44.81179" lon="6.95363">
        <ele>1838.18</ele>
        <time>2012-07-31T13:18:31Z</time>
      </trkpt>
      <trkpt lat="44.81185" lon="6.95371">
        <ele>1836.74</ele>
        <time>2012-07-31T13:18:44Z</time>
      </trkpt>
      <trkpt lat="44.8119" lon="6.95365">
        <ele>1833.85</ele>
        <time>2012-07-31T13:18:57Z</time>
      </trkpt>
      <trkpt lat="44.81193" lon="6.95363">
        <ele>1832.41</ele>
        <time>2012-07-31T13:19:02Z</time>
      </trkpt>
      <trkpt lat="44.81193" lon="6.95362">
        <ele>1832.41</ele>
        <time>2012-07-31T13:19:03Z</time>
      </trkpt>
      <trkpt lat="44.81195" lon="6.9536">
        <ele>1830.97</ele>
        <time>2012-07-31T13:19:05Z</time>
      </trkpt>
      <trkpt lat="44.812" lon="6.95342">
        <ele>1829.05</ele>
        <time>2012-07-31T13:19:21Z</time>
      </trkpt>
      <trkpt lat="44.81202" lon="6.95337">
        <ele>1828.08</ele>
        <time>2012-07-31T13:19:25Z</time>
      </trkpt>
      <trkpt lat="44.81209" lon="6.95321">
        <ele>1825.2</ele>
        <time>2012-07-31T13:19:40Z</time>
      </trkpt>
      <trkpt lat="44.81219" lon="6.95301">
        <ele>1822.32</ele>
        <time>2012-07-31T13:19:58Z</time>
      </trkpt>
      <trkpt lat="44.8122" lon="6.953">
        <ele>1821.84</ele>
        <time>2012-07-31T13:19:59Z</time>
      </trkpt>
      <trkpt lat="44.81226" lon="6.95289">
        <ele>1820.39</ele>
        <time>2012-07-31T13:20:10Z</time>
      </trkpt>
      <trkpt lat="44.81234" lon="6.95268">
        <ele>1816.55</ele>
        <time>2012-07-31T13:20:27Z</time>
      </trkpt>
      <trkpt lat="44.81246" lon="6.95249">
        <ele>1814.63</ele>
        <time>2012-07-31T13:20:46Z</time>
      </trkpt>
      <trkpt lat="44.81255" lon="6.95243">
        <ele>1811.74</ele>
        <time>2012-07-31T13:20:58Z</time>
      </trkpt>
      <trkpt lat="44.8126" lon="6.95228">
        <ele>1808.38</ele>
        <time>2012-07-31T13:21:12Z</time>
      </trkpt>
      <trkpt lat="44.8126" lon="6.95219">
        <ele>1805.49</ele>
        <time>2012-07-31T13:21:23Z</time>
      </trkpt>
      <trkpt lat="44.81257" lon="6.95202">
        <ele>1802.13</ele>
        <time>2012-07-31T13:21:36Z</time>
      </trkpt>
      <trkpt lat="44.81257" lon="6.95197">
        <ele>1800.69</ele>
        <time>2012-07-31T13:21:41Z</time>
      </trkpt>
      <trkpt lat="44.81249" lon="6.95182">
        <ele>1803.09</ele>
        <time>2012-07-31T13:21:56Z</time>
      </trkpt>
      <trkpt lat="44.81242" lon="6.9518">
        <ele>1807.42</ele>
        <time>2012-07-31T13:22:06Z</time>
      </trkpt>
      <trkpt lat="44.81241" lon="6.9518">
        <ele>1801.65</ele>
        <time>2012-07-31T13:22:07Z</time>
      </trkpt>
      <trkpt lat="44.8124" lon="6.95181">
        <ele>1805.01</ele>
        <time>2012-07-31T13:22:08Z</time>
      </trkpt>
      <trkpt lat="44.81233" lon="6.95184">
        <ele>1801.65</ele>
        <time>2012-07-31T13:22:16Z</time>
      </trkpt>
      <trkpt lat="44.81233" lon="6.95184">
        <ele>1806.45</ele>
        <time>2012-07-31T13:22:17Z</time>
      </trkpt>
      <trkpt lat="44.81232" lon="6.95184">
        <ele>1800.69</ele>
        <time>2012-07-31T13:22:18Z</time>
      </trkpt>
      <trkpt lat="44.81232" lon="6.95184">
        <ele>1806.45</ele>
        <time>2012-07-31T13:22:19Z</time>
      </trkpt>
      <trkpt lat="44.81232" lon="6.95179">
        <ele>1803.09</ele>
        <time>2012-07-31T13:22:32Z</time>
      </trkpt>
      <trkpt lat="44.81231" lon="6.95179">
        <ele>1803.09</ele>
        <time>2012-07-31T13:22:36Z</time>
      </trkpt>
      <trkpt lat="44.8123" lon="6.95178">
        <ele>1804.05</ele>
        <time>2012-07-31T13:22:38Z</time>
      </trkpt>
      <trkpt lat="44.8123" lon="6.95174">
        <ele>1804.05</ele>
        <time>2012-07-31T13:22:42Z</time>
      </trkpt>
      <trkpt lat="44.81232" lon="6.95182">
        <ele>1804.05</ele>
        <time>2012-07-31T13:23:01Z</time>
      </trkpt>
      <trkpt lat="44.81233" lon="6.95179">
        <ele>1806.45</ele>
        <time>2012-07-31T13:23:24Z</time>
      </trkpt>
      <trkpt lat="44.81233" lon="6.95179">
        <ele>1801.65</ele>
        <time>2012-07-31T13:23:25Z</time>
      </trkpt>
      <trkpt lat="44.81233" lon="6.95179">
        <ele>1805.49</ele>
        <time>2012-07-31T13:23:26Z</time>
      </trkpt>
      <trkpt lat="44.81233" lon="6.95179">
        <ele>1803.57</ele>
        <time>2012-07-31T13:23:29Z</time>
      </trkpt>
      <trkpt lat="44.81239" lon="6.95169">
        <ele>1804.05</ele>
        <time>2012-07-31T13:23:48Z</time>
      </trkpt>
      <trkpt lat="44.81241" lon="6.95168">
        <ele>1804.53</ele>
        <time>2012-07-31T13:23:49Z</time>
      </trkpt>
      <trkpt lat="44.81235" lon="6.95162">
        <ele>1803.57</ele>
        <time>2012-07-31T13:24:04Z</time>
      </trkpt>
      <trkpt lat="44.81232" lon="6.95158">
        <ele>1802.61</ele>
        <time>2012-07-31T13:24:16Z</time>
      </trkpt>
      <trkpt lat="44.81233" lon="6.9515">
        <ele>1803.09</ele>
        <time>2012-07-31T13:24:22Z</time>
      </trkpt>
      <trkpt lat="44.81228" lon="6.95127">
        <ele>1802.13</ele>
        <time>2012-07-31T13:24:39Z</time>
      </trkpt>
      <trkpt lat="44.81227" lon="6.95123">
        <ele>1801.65</ele>
        <time>2012-07-31T13:24:42Z</time>
      </trkpt>
      <trkpt lat="44.81219" lon="6.95107">
        <ele>1802.13</ele>
        <time>2012-07-31T13:24:53Z</time>
      </trkpt>
      <trkpt lat="44.81218" lon="6.95104">
        <ele>1801.65</ele>
        <time>2012-07-31T13:24:57Z</time>
      </trkpt>
      <trkpt lat="44.81219" lon="6.95084">
        <ele>1801.17</ele>
        <time>2012-07-31T13:25:14Z</time>
      </trkpt>
      <trkpt lat="44.81222" lon="6.95076">
        <ele>1801.17</ele>
        <time>2012-07-31T13:25:21Z</time>
      </trkpt>
      <trkpt lat="44.81225" lon="6.95059">
        <ele>1800.21</ele>
        <time>2012-07-31T13:25:37Z</time>
      </trkpt>
      <trkpt lat="44.81226" lon="6.95058">
        <ele>1800.21</ele>
        <time>2012-07-31T13:25:38Z</time>
      </trkpt>
      <trkpt lat="44.81227" lon="6.95053">
        <ele>1800.21</ele>
        <time>2012-07-31T13:25:42Z</time>
      </trkpt>
      <trkpt lat="44.81232" lon="6.95042">
        <ele>1800.69</ele>
        <time>2012-07-31T13:25:52Z</time>
      </trkpt>
      <trkpt lat="44.81234" lon="6.95035">
        <ele>1800.69</ele>
        <time>2012-07-31T13:25:58Z</time>
      </trkpt>
      <trkpt lat="44.81239" lon="6.95028">
        <ele>1801.17</ele>
        <time>2012-07-31T13:26:06Z</time>
      </trkpt>
      <trkpt lat="44.81248" lon="6.95006">
        <ele>1799.24</ele>
        <time>2012-07-31T13:26:20Z</time>
      </trkpt>
      <trkpt lat="44.81247" lon="6.94988">
        <ele>1799.24</ele>
        <time>2012-07-31T13:26:34Z</time>
      </trkpt>
      <trkpt lat="44.81247" lon="6.94987">
        <ele>1799.73</ele>
        <time>2012-07-31T13:26:36Z</time>
      </trkpt>
      <trkpt lat="44.81253" lon="6.94968">
        <ele>1799.73</ele>
        <time>2012-07-31T13:26:53Z</time>
      </trkpt>
      <trkpt lat="44.81258" lon="6.94951">
        <ele>1796.36</ele>
        <time>2012-07-31T13:27:12Z</time>
      </trkpt>
      <trkpt lat="44.81259" lon="6.94949">
        <ele>1796.36</ele>
        <time>2012-07-31T13:27:13Z</time>
      </trkpt>
      <trkpt lat="44.81259" lon="6.94948">
        <ele>1801.65</ele>
        <time>2012-07-31T13:27:14Z</time>
      </trkpt>
      <trkpt lat="44.8126" lon="6.94947">
        <ele>1799.24</ele>
        <time>2012-07-31T13:27:15Z</time>
      </trkpt>
      <trkpt lat="44.81266" lon="6.94932">
        <ele>1799.73</ele>
        <time>2012-07-31T13:27:33Z</time>
      </trkpt>
      <trkpt lat="44.81277" lon="6.94912">
        <ele>1798.76</ele>
        <time>2012-07-31T13:27:53Z</time>
      </trkpt>
      <trkpt lat="44.81287" lon="6.94894">
        <ele>1799.73</ele>
        <time>2012-07-31T13:28:05Z</time>
      </trkpt>
      <trkpt lat="44.81291" lon="6.94883">
        <ele>1798.76</ele>
        <time>2012-07-31T13:28:14Z</time>
      </trkpt>
      <trkpt lat="44.81298" lon="6.94862">
        <ele>1799.24</ele>
        <time>2012-07-31T13:28:26Z</time>
      </trkpt>
      <trkpt lat="44.81299" lon="6.94862">
        <ele>1798.76</ele>
        <time>2012-07-31T13:28:27Z</time>
      </trkpt>
      <trkpt lat="44.81309" lon="6.94848">
        <ele>1798.76</ele>
        <time>2012-07-31T13:28:40Z</time>
      </trkpt>
      <trkpt lat="44.8131" lon="6.94845">
        <ele>1798.76</ele>
        <time>2012-07-31T13:28:56Z</time>
      </trkpt>
      <trkpt lat="44.81312" lon="6.94846">
        <ele>1799.24</ele>
        <time>2012-07-31T13:29:04Z</time>
      </trkpt>
      <trkpt lat="44.81311" lon="6.94846">
        <ele>1798.28</ele>
        <time>2012-07-31T13:29:09Z</time>
      </trkpt>
      <trkpt lat="44.81312" lon="6.94847">
        <ele>1800.69</ele>
        <time>2012-07-31T13:29:10Z</time>
      </trkpt>
      <trkpt lat="44.81312" lon="6.94847">
        <ele>1799.73</ele>
        <time>2012-07-31T13:29:11Z</time>
      </trkpt>
      <trkpt lat="44.8131" lon="6.94848">
        <ele>1800.21</ele>
        <time>2012-07-31T13:29:31Z</time>
      </trkpt>
      <trkpt lat="44.8131" lon="6.9485">
        <ele>1799.73</ele>
        <time>2012-07-31T13:30:00Z</time>
      </trkpt>
      <trkpt lat="44.81311" lon="6.94845">
        <ele>1801.17</ele>
        <time>2012-07-31T13:30:12Z</time>
      </trkpt>
      <trkpt lat="44.81312" lon="6.94845">
        <ele>1797.8</ele>
        <time>2012-07-31T13:30:18Z</time>
      </trkpt>
      <trkpt lat="44.81311" lon="6.94845">
        <ele>1800.21</ele>
        <time>2012-07-31T13:30:19Z</time>
      </trkpt>
      <trkpt lat="44.81311" lon="6.94845">
        <ele>1800.69</ele>
        <time>2012-07-31T13:30:25Z</time>
      </trkpt>
      <trkpt lat="44.81312" lon="6.94845">
        <ele>1799.24</ele>
        <time>2012-07-31T13:30:45Z</time>
      </trkpt>
      <trkpt lat="44.81308" lon="6.94846">
        <ele>1799.73</ele>
        <time>2012-07-31T13:31:07Z</time>
      </trkpt>
      <trkpt lat="44.8131" lon="6.94842">
        <ele>1799.24</ele>
        <time>2012-07-31T13:31:16Z</time>
      </trkpt>
      <trkpt lat="44.81315" lon="6.9483">
        <ele>1799.73</ele>
        <time>2012-07-31T13:31:39Z</time>
      </trkpt>
      <trkpt lat="44.81319" lon="6.94812">
        <ele>1799.24</ele>
        <time>2012-07-31T13:32:00Z</time>
      </trkpt>
      <trkpt lat="44.81328" lon="6.9479">
        <ele>1799.24</ele>
        <time>2012-07-31T13:32:16Z</time>
      </trkpt>
      <trkpt lat="44.81343" lon="6.94769">
        <ele>1799.73</ele>
        <time>2012-07-31T13:32:34Z</time>
      </trkpt>
      <trkpt lat="44.81354" lon="6.94752">
        <ele>1798.76</ele>
        <time>2012-07-31T13:32:49Z</time>
      </trkpt>
      <trkpt lat="44.8136" lon="6.94732">
        <ele>1798.28</ele>
        <time>2012-07-31T13:33:05Z</time>
      </trkpt>
      <trkpt lat="44.81366" lon="6.94722">
        <ele>1799.24</ele>
        <time>2012-07-31T13:33:20Z</time>
      </trkpt>
      <trkpt lat="44.81366" lon="6.94722">
        <ele>1797.8</ele>
        <time>2012-07-31T13:33:25Z</time>
      </trkpt>
      <trkpt lat="44.81366" lon="6.94722">
        <ele>1797.32</ele>
        <time>2012-07-31T13:33:27Z</time>
      </trkpt>
      <trkpt lat="44.81366" lon="6.94723">
        <ele>1799.24</ele>
        <time>2012-07-31T13:33:28Z</time>
      </trkpt>
      <trkpt lat="44.81366" lon="6.94724">
        <ele>1797.8</ele>
        <time>2012-07-31T13:33:34Z</time>
      </trkpt>
      <trkpt lat="44.81367" lon="6.94724">
        <ele>1800.21</ele>
        <time>2012-07-31T13:33:37Z</time>
      </trkpt>
      <trkpt lat="44.81367" lon="6.94723">
        <ele>1796.84</ele>
        <time>2012-07-31T13:33:53Z</time>
      </trkpt>
      <trkpt lat="44.81367" lon="6.94723">
        <ele>1796.84</ele>
        <time>2012-07-31T13:33:54Z</time>
      </trkpt>
      <trkpt lat="44.81367" lon="6.94723">
        <ele>1778.58</ele>
        <time>2012-07-31T13:33:55Z</time>
      </trkpt>
      <trkpt lat="44.81367" lon="6.94723">
        <ele>1801.65</ele>
        <time>2012-07-31T13:33:56Z</time>
      </trkpt>
      <trkpt lat="44.81367" lon="6.94723">
        <ele>1814.63</ele>
        <time>2012-07-31T13:33:57Z</time>
      </trkpt>
      <trkpt lat="44.81367" lon="6.94722">
        <ele>1814.63</ele>
        <time>2012-07-31T13:33:58Z</time>
      </trkpt>
      <trkpt lat="44.81368" lon="6.94722">
        <ele>1802.13</ele>
        <time>2012-07-31T13:33:59Z</time>
      </trkpt>
      <trkpt lat="44.81368" lon="6.94722">
        <ele>1799.24</ele>
        <time>2012-07-31T13:34:00Z</time>
      </trkpt>
      <trkpt lat="44.81367" lon="6.9472">
        <ele>1797.8</ele>
        <time>2012-07-31T13:34:05Z</time>
      </trkpt>
      <trkpt lat="44.81368" lon="6.9472">
        <ele>1799.24</ele>
        <time>2012-07-31T13:34:06Z</time>
      </trkpt>
      <trkpt lat="44.81369" lon="6.94718">
        <ele>1799.24</ele>
        <time>2012-07-31T13:34:08Z</time>
      </trkpt>
      <trkpt lat="44.81382" lon="6.94704">
        <ele>1796.84</ele>
        <time>2012-07-31T13:34:28Z</time>
      </trkpt>
      <trkpt lat="44.81382" lon="6.94704">
        <ele>1799.73</ele>
        <time>2012-07-31T13:34:29Z</time>
      </trkpt>
      <trkpt lat="44.81382" lon="6.94699">
        <ele>1799.73</ele>
        <time>2012-07-31T13:34:39Z</time>
      </trkpt>
      <trkpt lat="44.81382" lon="6.94699">
        <ele>1798.28</ele>
        <time>2012-07-31T13:34:40Z</time>
      </trkpt>
      <trkpt lat="44.81388" lon="6.94687">
        <ele>1798.76</ele>
        <time>2012-07-31T13:34:56Z</time>
      </trkpt>
      <trkpt lat="44.81407" lon="6.94659">
        <ele>1798.28</ele>
        <time>2012-07-31T13:35:16Z</time>
      </trkpt>
      <trkpt lat="44.81417" lon="6.94632">
        <ele>1800.21</ele>
        <time>2012-07-31T13:35:35Z</time>
      </trkpt>
      <trkpt lat="44.81425" lon="6.94608">
        <ele>1797.8</ele>
        <time>2012-07-31T13:35:51Z</time>
      </trkpt>
      <trkpt lat="44.81426" lon="6.94601">
        <ele>1798.76</ele>
        <time>2012-07-31T13:35:55Z</time>
      </trkpt>
      <trkpt lat="44.8144" lon="6.94581">
        <ele>1798.76</ele>
        <time>2012-07-31T13:36:17Z</time>
      </trkpt>
      <trkpt lat="44.81442" lon="6.94575">
        <ele>1799.73</ele>
        <time>2012-07-31T13:36:23Z</time>
      </trkpt>
      <trkpt lat="44.81442" lon="6.94571">
        <ele>1797.32</ele>
        <time>2012-07-31T13:36:26Z</time>
      </trkpt>
      <trkpt lat="44.81442" lon="6.94571">
        <ele>1799.24</ele>
        <time>2012-07-31T13:36:27Z</time>
      </trkpt>
      <trkpt lat="44.81443" lon="6.94568">
        <ele>1797.8</ele>
        <time>2012-07-31T13:36:30Z</time>
      </trkpt>
      <trkpt lat="44.81443" lon="6.94567">
        <ele>1799.24</ele>
        <time>2012-07-31T13:36:31Z</time>
      </trkpt>
      <trkpt lat="44.81446" lon="6.94548">
        <ele>1799.24</ele>
        <time>2012-07-31T13:36:56Z</time>
      </trkpt>
      <trkpt lat="44.8144" lon="6.94529">
        <ele>1798.28</ele>
        <time>2012-07-31T13:37:17Z</time>
      </trkpt>
      <trkpt lat="44.81442" lon="6.94506">
        <ele>1796.84</ele>
        <time>2012-07-31T13:37:33Z</time>
      </trkpt>
      <trkpt lat="44.81443" lon="6.94505">
        <ele>1798.28</ele>
        <time>2012-07-31T13:37:34Z</time>
      </trkpt>
      <trkpt lat="44.81443" lon="6.94504">
        <ele>1796.36</ele>
        <time>2012-07-31T13:37:35Z</time>
      </trkpt>
      <trkpt lat="44.81443" lon="6.94502">
        <ele>1799.73</ele>
        <time>2012-07-31T13:37:36Z</time>
      </trkpt>
      <trkpt lat="44.81443" lon="6.94501">
        <ele>1796.84</ele>
        <time>2012-07-31T13:37:37Z</time>
      </trkpt>
      <trkpt lat="44.81442" lon="6.945">
        <ele>1798.76</ele>
        <time>2012-07-31T13:37:38Z</time>
      </trkpt>
      <trkpt lat="44.8144" lon="6.94499">
        <ele>1795.88</ele>
        <time>2012-07-31T13:37:40Z</time>
      </trkpt>
      <trkpt lat="44.8144" lon="6.94499">
        <ele>1799.73</ele>
        <time>2012-07-31T13:37:41Z</time>
      </trkpt>
      <trkpt lat="44.81439" lon="6.94499">
        <ele>1797.32</ele>
        <time>2012-07-31T13:37:42Z</time>
      </trkpt>
      <trkpt lat="44.81436" lon="6.94498">
        <ele>1796.84</ele>
        <time>2012-07-31T13:37:48Z</time>
      </trkpt>
      <trkpt lat="44.81436" lon="6.94498">
        <ele>1800.21</ele>
        <time>2012-07-31T13:37:50Z</time>
      </trkpt>
      <trkpt lat="44.81436" lon="6.94497">
        <ele>1796.84</ele>
        <time>2012-07-31T13:37:51Z</time>
      </trkpt>
      <trkpt lat="44.81436" lon="6.94497">
        <ele>1796.84</ele>
        <time>2012-07-31T13:37:52Z</time>
      </trkpt>
      <trkpt lat="44.81436" lon="6.94495">
        <ele>1799.24</ele>
        <time>2012-07-31T13:37:54Z</time>
      </trkpt>
      <trkpt lat="44.81436" lon="6.94494">
        <ele>1796.84</ele>
        <time>2012-07-31T13:37:55Z</time>
      </trkpt>
      <trkpt lat="44.81436" lon="6.94493">
        <ele>1798.76</ele>
        <time>2012-07-31T13:37:56Z</time>
      </trkpt>
      <trkpt lat="44.81436" lon="6.94492">
        <ele>1797.32</ele>
        <time>2012-07-31T13:37:57Z</time>
      </trkpt>
      <trkpt lat="44.81436" lon="6.94492">
        <ele>1795.88</ele>
        <time>2012-07-31T13:37:58Z</time>
      </trkpt>
      <trkpt lat="44.81436" lon="6.94491">
        <ele>1798.76</ele>
        <time>2012-07-31T13:37:59Z</time>
      </trkpt>
      <trkpt lat="44.81437" lon="6.94489">
        <ele>1797.32</ele>
        <time>2012-07-31T13:38:00Z</time>
      </trkpt>
      <trkpt lat="44.81437" lon="6.94488">
        <ele>1799.73</ele>
        <time>2012-07-31T13:38:01Z</time>
      </trkpt>
      <trkpt lat="44.81437" lon="6.94487">
        <ele>1797.32</ele>
        <time>2012-07-31T13:38:02Z</time>
      </trkpt>
      <trkpt lat="44.81438" lon="6.94486">
        <ele>1798.76</ele>
        <time>2012-07-31T13:38:03Z</time>
      </trkpt>
      <trkpt lat="44.81441" lon="6.9448">
        <ele>1797.8</ele>
        <time>2012-07-31T13:38:08Z</time>
      </trkpt>
      <trkpt lat="44.81441" lon="6.94476">
        <ele>1797.8</ele>
        <time>2012-07-31T13:38:10Z</time>
      </trkpt>
      <trkpt lat="44.81442" lon="6.94474">
        <ele>1796.36</ele>
        <time>2012-07-31T13:38:11Z</time>
      </trkpt>
      <trkpt lat="44.81442" lon="6.94473">
        <ele>1797.8</ele>
        <time>2012-07-31T13:38:12Z</time>
      </trkpt>
      <trkpt lat="44.81443" lon="6.9447">
        <ele>1798.76</ele>
        <time>2012-07-31T13:38:15Z</time>
      </trkpt>
      <trkpt lat="44.81443" lon="6.94469">
        <ele>1796.84</ele>
        <time>2012-07-31T13:38:16Z</time>
      </trkpt>
      <trkpt lat="44.81444" lon="6.94447">
        <ele>1796.84</ele>
        <time>2012-07-31T13:38:36Z</time>
      </trkpt>
      <trkpt lat="44.81444" lon="6.9442">
        <ele>1797.8</ele>
        <time>2012-07-31T13:38:46Z</time>
      </trkpt>
      <trkpt lat="44.8146" lon="6.94402">
        <ele>1796.36</ele>
        <time>2012-07-31T13:39:00Z</time>
      </trkpt>
      <trkpt lat="44.81466" lon="6.944">
        <ele>1796.36</ele>
        <time>2012-07-31T13:39:03Z</time>
      </trkpt>
      <trkpt lat="44.81477" lon="6.94401">
        <ele>1796.36</ele>
        <time>2012-07-31T13:39:13Z</time>
      </trkpt>
      <trkpt lat="44.81478" lon="6.94399">
        <ele>1796.36</ele>
        <time>2012-07-31T13:39:16Z</time>
      </trkpt>
      <trkpt lat="44.81475" lon="6.94387">
        <ele>1796.84</ele>
        <time>2012-07-31T13:39:30Z</time>
      </trkpt>
      <trkpt lat="44.81469" lon="6.94369">
        <ele>1797.32</ele>
        <time>2012-07-31T13:39:45Z</time>
      </trkpt>
      <trkpt lat="44.81463" lon="6.94364">
        <ele>1796.36</ele>
        <time>2012-07-31T13:39:50Z</time>
      </trkpt>
      <trkpt lat="44.8145" lon="6.9435">
        <ele>1795.88</ele>
        <time>2012-07-31T13:40:05Z</time>
      </trkpt>
      <trkpt lat="44.81447" lon="6.94337">
        <ele>1793</ele>
        <time>2012-07-31T13:40:13Z</time>
      </trkpt>
      <trkpt lat="44.81446" lon="6.94335">
        <ele>1796.84</ele>
        <time>2012-07-31T13:40:14Z</time>
      </trkpt>
      <trkpt lat="44.81446" lon="6.94334">
        <ele>1794.92</ele>
        <time>2012-07-31T13:40:15Z</time>
      </trkpt>
      <trkpt lat="44.8144" lon="6.94311">
        <ele>1795.88</ele>
        <time>2012-07-31T13:40:35Z</time>
      </trkpt>
      <trkpt lat="44.81437" lon="6.943">
        <ele>1796.84</ele>
        <time>2012-07-31T13:40:44Z</time>
      </trkpt>
      <trkpt lat="44.81438" lon="6.94281">
        <ele>1795.88</ele>
        <time>2012-07-31T13:40:57Z</time>
      </trkpt>
      <trkpt lat="44.8143" lon="6.94252">
        <ele>1795.88</ele>
        <time>2012-07-31T13:41:17Z</time>
      </trkpt>
      <trkpt lat="44.8142" lon="6.94245">
        <ele>1796.36</ele>
        <time>2012-07-31T13:41:19Z</time>
      </trkpt>
      <trkpt lat="44.81407" lon="6.94231">
        <ele>1795.4</ele>
        <time>2012-07-31T13:41:34Z</time>
      </trkpt>
      <trkpt lat="44.81392" lon="6.94221">
        <ele>1794.92</ele>
        <time>2012-07-31T13:41:52Z</time>
      </trkpt>
      <trkpt lat="44.81391" lon="6.9421">
        <ele>1795.4</ele>
        <time>2012-07-31T13:42:02Z</time>
      </trkpt>
      <trkpt lat="44.81389" lon="6.94192">
        <ele>1794.92</ele>
        <time>2012-07-31T13:42:20Z</time>
      </trkpt>
      <trkpt lat="44.81388" lon="6.94178">
        <ele>1794.44</ele>
        <time>2012-07-31T13:42:31Z</time>
      </trkpt>
      <trkpt lat="44.81388" lon="6.94175">
        <ele>1794.44</ele>
        <time>2012-07-31T13:42:33Z</time>
      </trkpt>
      <trkpt lat="44.81378" lon="6.94172">
        <ele>1794.44</ele>
        <time>2012-07-31T13:42:51Z</time>
      </trkpt>
      <trkpt lat="44.81377" lon="6.94164">
        <ele>1794.44</ele>
        <time>2012-07-31T13:42:57Z</time>
      </trkpt>
      <trkpt lat="44.81372" lon="6.9415">
        <ele>1793.96</ele>
        <time>2012-07-31T13:43:10Z</time>
      </trkpt>
      <trkpt lat="44.81368" lon="6.94132">
        <ele>1793.48</ele>
        <time>2012-07-31T13:43:26Z</time>
      </trkpt>
      <trkpt lat="44.8137" lon="6.94122">
        <ele>1793.96</ele>
        <time>2012-07-31T13:43:49Z</time>
      </trkpt>
      <trkpt lat="44.81371" lon="6.94122">
        <ele>1794.92</ele>
        <time>2012-07-31T13:43:53Z</time>
      </trkpt>
      <trkpt lat="44.8137" lon="6.9412">
        <ele>1794.92</ele>
        <time>2012-07-31T13:44:02Z</time>
      </trkpt>
      <trkpt lat="44.81369" lon="6.9412">
        <ele>1793.48</ele>
        <time>2012-07-31T13:44:04Z</time>
      </trkpt>
      <trkpt lat="44.81367" lon="6.94121">
        <ele>1794.92</ele>
        <time>2012-07-31T13:44:13Z</time>
      </trkpt>
      <trkpt lat="44.81367" lon="6.94121">
        <ele>1793.48</ele>
        <time>2012-07-31T13:44:14Z</time>
      </trkpt>
      <trkpt lat="44.81366" lon="6.94121">
        <ele>1794.92</ele>
        <time>2012-07-31T13:44:20Z</time>
      </trkpt>
      <trkpt lat="44.81349" lon="6.94103">
        <ele>1793.96</ele>
        <time>2012-07-31T13:44:43Z</time>
      </trkpt>
      <trkpt lat="44.81344" lon="6.94099">
        <ele>1794.92</ele>
        <time>2012-07-31T13:45:10Z</time>
      </trkpt>
      <trkpt lat="44.81341" lon="6.94094">
        <ele>1794.92</ele>
        <time>2012-07-31T13:45:23Z</time>
      </trkpt>
      <trkpt lat="44.81336" lon="6.94085">
        <ele>1794.92</ele>
        <time>2012-07-31T13:45:40Z</time>
      </trkpt>
      <trkpt lat="44.81335" lon="6.94085">
        <ele>1793.48</ele>
        <time>2012-07-31T13:45:42Z</time>
      </trkpt>
      <trkpt lat="44.81331" lon="6.94083">
        <ele>1791.55</ele>
        <time>2012-07-31T13:45:51Z</time>
      </trkpt>
      <trkpt lat="44.81331" lon="6.94083">
        <ele>1793.96</ele>
        <time>2012-07-31T13:45:52Z</time>
      </trkpt>
      <trkpt lat="44.81329" lon="6.94082">
        <ele>1796.36</ele>
        <time>2012-07-31T13:45:56Z</time>
      </trkpt>
      <trkpt lat="44.81329" lon="6.94082">
        <ele>1793.96</ele>
        <time>2012-07-31T13:45:57Z</time>
      </trkpt>
      <trkpt lat="44.81331" lon="6.94079">
        <ele>1792.03</ele>
        <time>2012-07-31T13:46:06Z</time>
      </trkpt>
      <trkpt lat="44.81331" lon="6.94078">
        <ele>1793.96</ele>
        <time>2012-07-31T13:46:08Z</time>
      </trkpt>
      <trkpt lat="44.8133" lon="6.94078">
        <ele>1793.48</ele>
        <time>2012-07-31T13:46:13Z</time>
      </trkpt>
      <trkpt lat="44.8133" lon="6.94078">
        <ele>1791.07</ele>
        <time>2012-07-31T13:46:21Z</time>
      </trkpt>
      <trkpt lat="44.8133" lon="6.94078">
        <ele>1794.92</ele>
        <time>2012-07-31T13:46:23Z</time>
      </trkpt>
      <trkpt lat="44.8133" lon="6.94078">
        <ele>1799.73</ele>
        <time>2012-07-31T13:46:24Z</time>
      </trkpt>
      <trkpt lat="44.8133" lon="6.94078">
        <ele>1794.44</ele>
        <time>2012-07-31T13:46:25Z</time>
      </trkpt>
      <trkpt lat="44.8133" lon="6.9407">
        <ele>1792.03</ele>
        <time>2012-07-31T13:46:34Z</time>
      </trkpt>
      <trkpt lat="44.81329" lon="6.9407">
        <ele>1793.96</ele>
        <time>2012-07-31T13:46:37Z</time>
      </trkpt>
      <trkpt lat="44.81328" lon="6.94074">
        <ele>1793.48</ele>
        <time>2012-07-31T13:46:51Z</time>
      </trkpt>
      <trkpt lat="44.81327" lon="6.94076">
        <ele>1793.96</ele>
        <time>2012-07-31T13:46:53Z</time>
      </trkpt>
      <trkpt lat="44.81325" lon="6.9408">
        <ele>1790.11</ele>
        <time>2012-07-31T13:47:04Z</time>
      </trkpt>
      <trkpt lat="44.81324" lon="6.9408">
        <ele>1794.92</ele>
        <time>2012-07-31T13:47:07Z</time>
      </trkpt>
      <trkpt lat="44.81324" lon="6.9408">
        <ele>1794.44</ele>
        <time>2012-07-31T13:47:08Z</time>
      </trkpt>
      <trkpt lat="44.81322" lon="6.94083">
        <ele>1802.61</ele>
        <time>2012-07-31T13:47:20Z</time>
      </trkpt>
      <trkpt lat="44.81322" lon="6.94082">
        <ele>1796.36</ele>
        <time>2012-07-31T13:47:21Z</time>
      </trkpt>
      <trkpt lat="44.81323" lon="6.94077">
        <ele>1793.96</ele>
        <time>2012-07-31T13:47:23Z</time>
      </trkpt>
      <trkpt lat="44.81321" lon="6.94046">
        <ele>1793.48</ele>
        <time>2012-07-31T13:47:46Z</time>
      </trkpt>
      <trkpt lat="44.81316" lon="6.9402">
        <ele>1793.48</ele>
        <time>2012-07-31T13:48:12Z</time>
      </trkpt>
      <trkpt lat="44.81317" lon="6.94019">
        <ele>1793</ele>
        <time>2012-07-31T13:48:13Z</time>
      </trkpt>
      <trkpt lat="44.81302" lon="6.93996">
        <ele>1793.48</ele>
        <time>2012-07-31T13:48:35Z</time>
      </trkpt>
      <trkpt lat="44.81272" lon="6.93972">
        <ele>1793.48</ele>
        <time>2012-07-31T13:49:01Z</time>
      </trkpt>
      <trkpt lat="44.81248" lon="6.93972">
        <ele>1792.52</ele>
        <time>2012-07-31T13:49:17Z</time>
      </trkpt>
      <trkpt lat="44.8124" lon="6.93971">
        <ele>1793.48</ele>
        <time>2012-07-31T13:49:23Z</time>
      </trkpt>
      <trkpt lat="44.81223" lon="6.93948">
        <ele>1792.52</ele>
        <time>2012-07-31T13:49:47Z</time>
      </trkpt>
      <trkpt lat="44.81199" lon="6.93944">
        <ele>1792.03</ele>
        <time>2012-07-31T13:50:13Z</time>
      </trkpt>
      <trkpt lat="44.81208" lon="6.9394">
        <ele>1792.03</ele>
        <time>2012-07-31T13:50:33Z</time>
      </trkpt>
      <trkpt lat="44.81201" lon="6.93923">
        <ele>1792.52</ele>
        <time>2012-07-31T13:50:55Z</time>
      </trkpt>
      <trkpt lat="44.81186" lon="6.93894">
        <ele>1792.03</ele>
        <time>2012-07-31T13:51:19Z</time>
      </trkpt>
      <trkpt lat="44.81178" lon="6.9389">
        <ele>1790.59</ele>
        <time>2012-07-31T13:51:40Z</time>
      </trkpt>
      <trkpt lat="44.81178" lon="6.9389">
        <ele>1792.03</ele>
        <time>2012-07-31T13:51:42Z</time>
      </trkpt>
      <trkpt lat="44.81178" lon="6.93889">
        <ele>1793.48</ele>
        <time>2012-07-31T13:51:45Z</time>
      </trkpt>
      <trkpt lat="44.81178" lon="6.93886">
        <ele>1789.15</ele>
        <time>2012-07-31T13:52:09Z</time>
      </trkpt>
      <trkpt lat="44.81178" lon="6.93886">
        <ele>1794.44</ele>
        <time>2012-07-31T13:52:10Z</time>
      </trkpt>
      <trkpt lat="44.81178" lon="6.93887">
        <ele>1794.44</ele>
        <time>2012-07-31T13:52:11Z</time>
      </trkpt>
      <trkpt lat="44.81176" lon="6.93881">
        <ele>1791.55</ele>
        <time>2012-07-31T13:52:23Z</time>
      </trkpt>
      <trkpt lat="44.81164" lon="6.93881">
        <ele>1788.19</ele>
        <time>2012-07-31T13:52:33Z</time>
      </trkpt>
      <trkpt lat="44.81163" lon="6.93881">
        <ele>1782.42</ele>
        <time>2012-07-31T13:52:34Z</time>
      </trkpt>
      <trkpt lat="44.81162" lon="6.93881">
        <ele>1792.03</ele>
        <time>2012-07-31T13:52:35Z</time>
      </trkpt>
      <trkpt lat="44.81161" lon="6.93881">
        <ele>1787.23</ele>
        <time>2012-07-31T13:52:36Z</time>
      </trkpt>
      <trkpt lat="44.81161" lon="6.93881">
        <ele>1791.55</ele>
        <time>2012-07-31T13:52:37Z</time>
      </trkpt>
      <trkpt lat="44.81161" lon="6.93881">
        <ele>1792.52</ele>
        <time>2012-07-31T13:52:39Z</time>
      </trkpt>
      <trkpt lat="44.81161" lon="6.93881">
        <ele>1795.4</ele>
        <time>2012-07-31T13:52:40Z</time>
      </trkpt>
      <trkpt lat="44.81161" lon="6.93881">
        <ele>1787.23</ele>
        <time>2012-07-31T13:52:41Z</time>
      </trkpt>
      <trkpt lat="44.81161" lon="6.93881">
        <ele>1793.96</ele>
        <time>2012-07-31T13:52:42Z</time>
      </trkpt>
      <trkpt lat="44.81161" lon="6.93881">
        <ele>1789.63</ele>
        <time>2012-07-31T13:52:43Z</time>
      </trkpt>
      <trkpt lat="44.81162" lon="6.93882">
        <ele>1803.57</ele>
        <time>2012-07-31T13:52:46Z</time>
      </trkpt>
      <trkpt lat="44.81162" lon="6.93883">
        <ele>1794.92</ele>
        <time>2012-07-31T13:52:47Z</time>
      </trkpt>
      <trkpt lat="44.81163" lon="6.93883">
        <ele>1791.55</ele>
        <time>2012-07-31T13:52:48Z</time>
      </trkpt>
      <trkpt lat="44.81164" lon="6.93884">
        <ele>1787.71</ele>
        <time>2012-07-31T13:52:49Z</time>
      </trkpt>
      <trkpt lat="44.81164" lon="6.93884">
        <ele>1790.11</ele>
        <time>2012-07-31T13:52:50Z</time>
      </trkpt>
      <trkpt lat="44.81165" lon="6.93885">
        <ele>1782.42</ele>
        <time>2012-07-31T13:52:51Z</time>
      </trkpt>
      <trkpt lat="44.81166" lon="6.93885">
        <ele>1792.03</ele>
        <time>2012-07-31T13:52:52Z</time>
      </trkpt>
      <trkpt lat="44.81171" lon="6.93886">
        <ele>1805.97</ele>
        <time>2012-07-31T13:52:58Z</time>
      </trkpt>
      <trkpt lat="44.81172" lon="6.93886">
        <ele>1793</ele>
        <time>2012-07-31T13:52:59Z</time>
      </trkpt>
      <trkpt lat="44.81173" lon="6.93886">
        <ele>1791.55</ele>
        <time>2012-07-31T13:53:01Z</time>
      </trkpt>
      <trkpt lat="44.81173" lon="6.93885">
        <ele>1787.71</ele>
        <time>2012-07-31T13:53:04Z</time>
      </trkpt>
      <trkpt lat="44.81173" lon="6.93885">
        <ele>1791.55</ele>
        <time>2012-07-31T13:53:05Z</time>
      </trkpt>
      <trkpt lat="44.81173" lon="6.93884">
        <ele>1792.52</ele>
        <time>2012-07-31T13:53:11Z</time>
      </trkpt>
      <trkpt lat="44.81173" lon="6.93884">
        <ele>1790.59</ele>
        <time>2012-07-31T13:53:13Z</time>
      </trkpt>
      <trkpt lat="44.81145" lon="6.93875">
        <ele>1791.07</ele>
        <time>2012-07-31T13:53:34Z</time>
      </trkpt>
      <trkpt lat="44.81133" lon="6.93874">
        <ele>1771.85</ele>
        <time>2012-07-31T13:53:46Z</time>
      </trkpt>
      <trkpt lat="44.81132" lon="6.93873">
        <ele>1787.23</ele>
        <time>2012-07-31T13:53:47Z</time>
      </trkpt>
      <trkpt lat="44.81131" lon="6.93872">
        <ele>1794.44</ele>
        <time>2012-07-31T13:53:48Z</time>
      </trkpt>
      <trkpt lat="44.81131" lon="6.93871">
        <ele>1791.07</ele>
        <time>2012-07-31T13:53:49Z</time>
      </trkpt>
      <trkpt lat="44.81131" lon="6.93868">
        <ele>1809.34</ele>
        <time>2012-07-31T13:53:51Z</time>
      </trkpt>
      <trkpt lat="44.8113" lon="6.93866">
        <ele>1794.44</ele>
        <time>2012-07-31T13:53:52Z</time>
      </trkpt>
      <trkpt lat="44.8113" lon="6.93864">
        <ele>1791.07</ele>
        <time>2012-07-31T13:53:53Z</time>
      </trkpt>
      <trkpt lat="44.8113" lon="6.93863">
        <ele>1791.55</ele>
        <time>2012-07-31T13:53:54Z</time>
      </trkpt>
      <trkpt lat="44.81132" lon="6.93866">
        <ele>1774.73</ele>
        <time>2012-07-31T13:54:11Z</time>
      </trkpt>
      <trkpt lat="44.81132" lon="6.93865">
        <ele>1778.58</ele>
        <time>2012-07-31T13:54:12Z</time>
      </trkpt>
      <trkpt lat="44.81132" lon="6.93864">
        <ele>1796.84</ele>
        <time>2012-07-31T13:54:13Z</time>
      </trkpt>
      <trkpt lat="44.81131" lon="6.93863">
        <ele>1791.07</ele>
        <time>2012-07-31T13:54:14Z</time>
      </trkpt>
      <trkpt lat="44.8113" lon="6.9386">
        <ele>1783.86</ele>
        <time>2012-07-31T13:54:16Z</time>
      </trkpt>
      <trkpt lat="44.8113" lon="6.93859">
        <ele>1793.48</ele>
        <time>2012-07-31T13:54:17Z</time>
      </trkpt>
      <trkpt lat="44.81129" lon="6.93858">
        <ele>1793.48</ele>
        <time>2012-07-31T13:54:18Z</time>
      </trkpt>
      <trkpt lat="44.81125" lon="6.93852">
        <ele>1795.4</ele>
        <time>2012-07-31T13:54:23Z</time>
      </trkpt>
      <trkpt lat="44.81124" lon="6.9385">
        <ele>1798.76</ele>
        <time>2012-07-31T13:54:24Z</time>
      </trkpt>
      <trkpt lat="44.81122" lon="6.93848">
        <ele>1793</ele>
        <time>2012-07-31T13:54:26Z</time>
      </trkpt>
      <trkpt lat="44.81122" lon="6.93847">
        <ele>1779.06</ele>
        <time>2012-07-31T13:54:27Z</time>
      </trkpt>
      <trkpt lat="44.81121" lon="6.93845">
        <ele>1793.96</ele>
        <time>2012-07-31T13:54:28Z</time>
      </trkpt>
      <trkpt lat="44.81119" lon="6.93843">
        <ele>1790.59</ele>
        <time>2012-07-31T13:54:30Z</time>
      </trkpt>
      <trkpt lat="44.81117" lon="6.9384">
        <ele>1798.28</ele>
        <time>2012-07-31T13:54:32Z</time>
      </trkpt>
      <trkpt lat="44.81117" lon="6.93839">
        <ele>1805.01</ele>
        <time>2012-07-31T13:54:33Z</time>
      </trkpt>
      <trkpt lat="44.81116" lon="6.93838">
        <ele>1793.96</ele>
        <time>2012-07-31T13:54:34Z</time>
      </trkpt>
      <trkpt lat="44.81114" lon="6.93835">
        <ele>1792.52</ele>
        <time>2012-07-31T13:54:36Z</time>
      </trkpt>
      <trkpt lat="44.81112" lon="6.93833">
        <ele>1786.75</ele>
        <time>2012-07-31T13:54:38Z</time>
      </trkpt>
      <trkpt lat="44.81111" lon="6.93855">
        <ele>1780.02</ele>
        <time>2012-07-31T13:54:39Z</time>
      </trkpt>
      <trkpt lat="44.81111" lon="6.93857">
        <ele>1794.92</ele>
        <time>2012-07-31T13:54:40Z</time>
      </trkpt>
      <trkpt lat="44.81111" lon="6.93858">
        <ele>1791.07</ele>
        <time>2012-07-31T13:54:41Z</time>
      </trkpt>
      <trkpt lat="44.81118" lon="6.93865">
        <ele>1797.32</ele>
        <time>2012-07-31T13:54:49Z</time>
      </trkpt>
      <trkpt lat="44.81121" lon="6.93868">
        <ele>1776.65</ele>
        <time>2012-07-31T13:54:50Z</time>
      </trkpt>
      <trkpt lat="44.81123" lon="6.93869">
        <ele>1796.84</ele>
        <time>2012-07-31T13:54:51Z</time>
      </trkpt>
      <trkpt lat="44.81123" lon="6.93869">
        <ele>1805.01</ele>
        <time>2012-07-31T13:54:52Z</time>
      </trkpt>
      <trkpt lat="44.81123" lon="6.9387">
        <ele>1792.52</ele>
        <time>2012-07-31T13:54:53Z</time>
      </trkpt>
      <trkpt lat="44.8112" lon="6.93872">
        <ele>1793.96</ele>
        <time>2012-07-31T13:55:09Z</time>
      </trkpt>
      <trkpt lat="44.8112" lon="6.93872">
        <ele>1791.07</ele>
        <time>2012-07-31T13:55:10Z</time>
      </trkpt>
      <trkpt lat="44.8112" lon="6.93872">
        <ele>1789.63</ele>
        <time>2012-07-31T13:55:12Z</time>
      </trkpt>
      <trkpt lat="44.8112" lon="6.93872">
        <ele>1801.17</ele>
        <time>2012-07-31T13:55:14Z</time>
      </trkpt>
      <trkpt lat="44.8112" lon="6.93872">
        <ele>1801.17</ele>
        <time>2012-07-31T13:55:15Z</time>
      </trkpt>
      <trkpt lat="44.81121" lon="6.93873">
        <ele>1793.48</ele>
        <time>2012-07-31T13:55:16Z</time>
      </trkpt>
      <trkpt lat="44.81121" lon="6.93874">
        <ele>1788.67</ele>
        <time>2012-07-31T13:55:18Z</time>
      </trkpt>
      <trkpt lat="44.81121" lon="6.93874">
        <ele>1781.94</ele>
        <time>2012-07-31T13:55:19Z</time>
      </trkpt>
      <trkpt lat="44.8112" lon="6.93875">
        <ele>1793</ele>
        <time>2012-07-31T13:55:20Z</time>
      </trkpt>
      <trkpt lat="44.81119" lon="6.93875">
        <ele>1792.03</ele>
        <time>2012-07-31T13:55:21Z</time>
      </trkpt>
      <trkpt lat="44.81118" lon="6.93873">
        <ele>1793.48</ele>
        <time>2012-07-31T13:55:24Z</time>
      </trkpt>
      <trkpt lat="44.81117" lon="6.93869">
        <ele>1796.36</ele>
        <time>2012-07-31T13:55:27Z</time>
      </trkpt>
      <trkpt lat="44.81116" lon="6.93869">
        <ele>1793</ele>
        <time>2012-07-31T13:55:28Z</time>
      </trkpt>
      <trkpt lat="44.81116" lon="6.93868">
        <ele>1789.63</ele>
        <time>2012-07-31T13:55:29Z</time>
      </trkpt>
      <trkpt lat="44.81116" lon="6.93866">
        <ele>1793</ele>
        <time>2012-07-31T13:55:30Z</time>
      </trkpt>
      <trkpt lat="44.81115" lon="6.93865">
        <ele>1798.76</ele>
        <time>2012-07-31T13:55:31Z</time>
      </trkpt>
      <trkpt lat="44.81115" lon="6.93864">
        <ele>1793.96</ele>
        <time>2012-07-31T13:55:33Z</time>
      </trkpt>
      <trkpt lat="44.81134" lon="6.93866">
        <ele>1790.59</ele>
        <time>2012-07-31T13:55:45Z</time>
      </trkpt>
      <trkpt lat="44.81118" lon="6.93855">
        <ele>1791.55</ele>
        <time>2012-07-31T13:56:07Z</time>
      </trkpt>
      <trkpt lat="44.81125" lon="6.93857">
        <ele>1792.03</ele>
        <time>2012-07-31T13:56:30Z</time>
      </trkpt>
      <trkpt lat="44.81125" lon="6.93863">
        <ele>1792.03</ele>
        <time>2012-07-31T13:56:57Z</time>
      </trkpt>
      <trkpt lat="44.81127" lon="6.93854">
        <ele>1791.55</ele>
        <time>2012-07-31T13:57:20Z</time>
      </trkpt>
      <trkpt lat="44.81131" lon="6.93852">
        <ele>1791.07</ele>
        <time>2012-07-31T13:57:31Z</time>
      </trkpt>
      <trkpt lat="44.8113" lon="6.93832">
        <ele>1792.52</ele>
        <time>2012-07-31T13:57:57Z</time>
      </trkpt>
      <trkpt lat="44.81084" lon="6.93802">
        <ele>1791.55</ele>
        <time>2012-07-31T13:58:21Z</time>
      </trkpt>
      <trkpt lat="44.81054" lon="6.93778">
        <ele>1792.03</ele>
        <time>2012-07-31T13:58:43Z</time>
      </trkpt>
      <trkpt lat="44.81032" lon="6.93749">
        <ele>1793.48</ele>
        <time>2012-07-31T13:59:06Z</time>
      </trkpt>
      <trkpt lat="44.81025" lon="6.93736">
        <ele>1792.03</ele>
        <time>2012-07-31T13:59:13Z</time>
      </trkpt>
      <trkpt lat="44.81018" lon="6.93728">
        <ele>1792.52</ele>
        <time>2012-07-31T13:59:30Z</time>
      </trkpt>
      <trkpt lat="44.81011" lon="6.9372">
        <ele>1793.48</ele>
        <time>2012-07-31T13:59:49Z</time>
      </trkpt>
      <trkpt lat="44.81011" lon="6.93719">
        <ele>1792.52</ele>
        <time>2012-07-31T13:59:50Z</time>
      </trkpt>
      <trkpt lat="44.80996" lon="6.93708">
        <ele>1791.55</ele>
        <time>2012-07-31T14:00:04Z</time>
      </trkpt>
      <trkpt lat="44.80994" lon="6.93708">
        <ele>1792.03</ele>
        <time>2012-07-31T14:00:27Z</time>
      </trkpt>
      <trkpt lat="44.80995" lon="6.93711">
        <ele>1789.15</ele>
        <time>2012-07-31T14:00:37Z</time>
      </trkpt>
      <trkpt lat="44.80995" lon="6.93711">
        <ele>1793.96</ele>
        <time>2012-07-31T14:00:38Z</time>
      </trkpt>
      <trkpt lat="44.80995" lon="6.9371">
        <ele>1790.11</ele>
        <time>2012-07-31T14:00:43Z</time>
      </trkpt>
      <trkpt lat="44.80995" lon="6.93711">
        <ele>1793.96</ele>
        <time>2012-07-31T14:00:45Z</time>
      </trkpt>
      <trkpt lat="44.80996" lon="6.93714">
        <ele>1790.11</ele>
        <time>2012-07-31T14:00:50Z</time>
      </trkpt>
      <trkpt lat="44.80996" lon="6.93714">
        <ele>1793.48</ele>
        <time>2012-07-31T14:00:51Z</time>
      </trkpt>
      <trkpt lat="44.80996" lon="6.93714">
        <ele>1790.11</ele>
        <time>2012-07-31T14:00:55Z</time>
      </trkpt>
      <trkpt lat="44.80996" lon="6.93714">
        <ele>1793.96</ele>
        <time>2012-07-31T14:00:56Z</time>
      </trkpt>
      <trkpt lat="44.80996" lon="6.93714">
        <ele>1790.59</ele>
        <time>2012-07-31T14:00:59Z</time>
      </trkpt>
      <trkpt lat="44.80996" lon="6.93714">
        <ele>1793.48</ele>
        <time>2012-07-31T14:01:00Z</time>
      </trkpt>
      <trkpt lat="44.80996" lon="6.93714">
        <ele>1790.11</ele>
        <time>2012-07-31T14:01:05Z</time>
      </trkpt>
      <trkpt lat="44.80996" lon="6.93713">
        <ele>1793.48</ele>
        <time>2012-07-31T14:01:14Z</time>
      </trkpt>
      <trkpt lat="44.80996" lon="6.93713">
        <ele>1790.11</ele>
        <time>2012-07-31T14:01:15Z</time>
      </trkpt>
      <trkpt lat="44.80996" lon="6.93713">
        <ele>1792.03</ele>
        <time>2012-07-31T14:01:18Z</time>
      </trkpt>
      <trkpt lat="44.80993" lon="6.93708">
        <ele>1791.55</ele>
        <time>2012-07-31T14:01:34Z</time>
      </trkpt>
      <trkpt lat="44.80985" lon="6.93692">
        <ele>1791.55</ele>
        <time>2012-07-31T14:01:51Z</time>
      </trkpt>
      <trkpt lat="44.80969" lon="6.93679">
        <ele>1791.07</ele>
        <time>2012-07-31T14:02:10Z</time>
      </trkpt>
      <trkpt lat="44.80968" lon="6.93678">
        <ele>1790.59</ele>
        <time>2012-07-31T14:02:11Z</time>
      </trkpt>
      <trkpt lat="44.80951" lon="6.93673">
        <ele>1790.59</ele>
        <time>2012-07-31T14:02:32Z</time>
      </trkpt>
      <trkpt lat="44.80939" lon="6.93674">
        <ele>1791.07</ele>
        <time>2012-07-31T14:02:55Z</time>
      </trkpt>
      <trkpt lat="44.80933" lon="6.93666">
        <ele>1791.07</ele>
        <time>2012-07-31T14:03:12Z</time>
      </trkpt>
      <trkpt lat="44.80932" lon="6.93666">
        <ele>1790.59</ele>
        <time>2012-07-31T14:03:13Z</time>
      </trkpt>
      <trkpt lat="44.8092" lon="6.93664">
        <ele>1790.11</ele>
        <time>2012-07-31T14:03:31Z</time>
      </trkpt>
      <trkpt lat="44.80899" lon="6.93663">
        <ele>1790.59</ele>
        <time>2012-07-31T14:03:49Z</time>
      </trkpt>
      <trkpt lat="44.80892" lon="6.93662">
        <ele>1790.11</ele>
        <time>2012-07-31T14:04:05Z</time>
      </trkpt>
      <trkpt lat="44.8089" lon="6.93661">
        <ele>1789.15</ele>
        <time>2012-07-31T14:04:09Z</time>
      </trkpt>
      <trkpt lat="44.80884" lon="6.93656">
        <ele>1790.59</ele>
        <time>2012-07-31T14:04:28Z</time>
      </trkpt>
      <trkpt lat="44.80883" lon="6.93656">
        <ele>1790.59</ele>
        <time>2012-07-31T14:04:50Z</time>
      </trkpt>
      <trkpt lat="44.8088" lon="6.93655">
        <ele>1791.07</ele>
        <time>2012-07-31T14:04:59Z</time>
      </trkpt>
      <trkpt lat="44.80871" lon="6.93653">
        <ele>1790.59</ele>
        <time>2012-07-31T14:05:10Z</time>
      </trkpt>
      <trkpt lat="44.80866" lon="6.93653">
        <ele>1790.11</ele>
        <time>2012-07-31T14:05:18Z</time>
      </trkpt>
      <trkpt lat="44.80866" lon="6.93655">
        <ele>1791.55</ele>
        <time>2012-07-31T14:05:30Z</time>
      </trkpt>
      <trkpt lat="44.80866" lon="6.93654">
        <ele>1790.11</ele>
        <time>2012-07-31T14:05:31Z</time>
      </trkpt>
      <trkpt lat="44.80866" lon="6.93653">
        <ele>1789.63</ele>
        <time>2012-07-31T14:05:37Z</time>
      </trkpt>
      <trkpt lat="44.80866" lon="6.93653">
        <ele>1791.07</ele>
        <time>2012-07-31T14:05:38Z</time>
      </trkpt>
      <trkpt lat="44.80861" lon="6.93652">
        <ele>1790.11</ele>
        <time>2012-07-31T14:05:58Z</time>
      </trkpt>
      <trkpt lat="44.80834" lon="6.93673">
        <ele>1790.59</ele>
        <time>2012-07-31T14:06:19Z</time>
      </trkpt>
      <trkpt lat="44.80814" lon="6.93671">
        <ele>1791.07</ele>
        <time>2012-07-31T14:06:39Z</time>
      </trkpt>
      <trkpt lat="44.80795" lon="6.93676">
        <ele>1790.11</ele>
        <time>2012-07-31T14:07:04Z</time>
      </trkpt>
      <trkpt lat="44.80787" lon="6.93668">
        <ele>1790.11</ele>
        <time>2012-07-31T14:07:29Z</time>
      </trkpt>
      <trkpt lat="44.80783" lon="6.93667">
        <ele>1790.59</ele>
        <time>2012-07-31T14:07:33Z</time>
      </trkpt>
      <trkpt lat="44.80777" lon="6.93659">
        <ele>1790.11</ele>
        <time>2012-07-31T14:07:41Z</time>
      </trkpt>
      <trkpt lat="44.80761" lon="6.9364">
        <ele>1790.59</ele>
        <time>2012-07-31T14:07:58Z</time>
      </trkpt>
      <trkpt lat="44.80757" lon="6.93639">
        <ele>1790.59</ele>
        <time>2012-07-31T14:08:13Z</time>
      </trkpt>
      <trkpt lat="44.80778" lon="6.93635">
        <ele>1791.07</ele>
        <time>2012-07-31T14:08:41Z</time>
      </trkpt>
      <trkpt lat="44.80778" lon="6.93633">
        <ele>1790.59</ele>
        <time>2012-07-31T14:09:11Z</time>
      </trkpt>
      <trkpt lat="44.80772" lon="6.93631">
        <ele>1791.07</ele>
        <time>2012-07-31T14:09:27Z</time>
      </trkpt>
      <trkpt lat="44.80763" lon="6.93627">
        <ele>1791.07</ele>
        <time>2012-07-31T14:09:40Z</time>
      </trkpt>
      <trkpt lat="44.80747" lon="6.93621">
        <ele>1790.59</ele>
        <time>2012-07-31T14:10:02Z</time>
      </trkpt>
      <trkpt lat="44.80733" lon="6.93617">
        <ele>1790.11</ele>
        <time>2012-07-31T14:10:15Z</time>
      </trkpt>
      <trkpt lat="44.80716" lon="6.93616">
        <ele>1790.11</ele>
        <time>2012-07-31T14:10:31Z</time>
      </trkpt>
      <trkpt lat="44.80698" lon="6.93602">
        <ele>1790.11</ele>
        <time>2012-07-31T14:10:49Z</time>
      </trkpt>
      <trkpt lat="44.80691" lon="6.93595">
        <ele>1789.63</ele>
        <time>2012-07-31T14:10:56Z</time>
      </trkpt>
      <trkpt lat="44.80677" lon="6.93585">
        <ele>1790.11</ele>
        <time>2012-07-31T14:11:11Z</time>
      </trkpt>
      <trkpt lat="44.80662" lon="6.93579">
        <ele>1790.11</ele>
        <time>2012-07-31T14:11:26Z</time>
      </trkpt>
      <trkpt lat="44.8065" lon="6.93579">
        <ele>1791.07</ele>
        <time>2012-07-31T14:11:44Z</time>
      </trkpt>
      <trkpt lat="44.80652" lon="6.93579">
        <ele>1790.59</ele>
        <time>2012-07-31T14:12:01Z</time>
      </trkpt>
      <trkpt lat="44.80645" lon="6.93575">
        <ele>1790.11</ele>
        <time>2012-07-31T14:12:26Z</time>
      </trkpt>
      <trkpt lat="44.80639" lon="6.93574">
        <ele>1790.59</ele>
        <time>2012-07-31T14:12:31Z</time>
      </trkpt>
      <trkpt lat="44.80626" lon="6.93572">
        <ele>1791.07</ele>
        <time>2012-07-31T14:12:41Z</time>
      </trkpt>
      <trkpt lat="44.80622" lon="6.93568">
        <ele>1790.59</ele>
        <time>2012-07-31T14:12:46Z</time>
      </trkpt>
      <trkpt lat="44.80615" lon="6.93565">
        <ele>1790.59</ele>
        <time>2012-07-31T14:12:54Z</time>
      </trkpt>
      <trkpt lat="44.80604" lon="6.93562">
        <ele>1790.59</ele>
        <time>2012-07-31T14:13:12Z</time>
      </trkpt>
      <trkpt lat="44.80589" lon="6.93551">
        <ele>1790.11</ele>
        <time>2012-07-31T14:13:32Z</time>
      </trkpt>
      <trkpt lat="44.80586" lon="6.93547">
        <ele>1790.11</ele>
        <time>2012-07-31T14:13:38Z</time>
      </trkpt>
      <trkpt lat="44.80584" lon="6.93546">
        <ele>1789.63</ele>
        <time>2012-07-31T14:13:40Z</time>
      </trkpt>
      <trkpt lat="44.80577" lon="6.93543">
        <ele>1790.11</ele>
        <time>2012-07-31T14:13:46Z</time>
      </trkpt>
      <trkpt lat="44.80563" lon="6.93542">
        <ele>1790.59</ele>
        <time>2012-07-31T14:14:04Z</time>
      </trkpt>
      <trkpt lat="44.80548" lon="6.93532">
        <ele>1790.11</ele>
        <time>2012-07-31T14:14:24Z</time>
      </trkpt>
      <trkpt lat="44.80543" lon="6.93525">
        <ele>1789.63</ele>
        <time>2012-07-31T14:14:37Z</time>
      </trkpt>
      <trkpt lat="44.8054" lon="6.93523">
        <ele>1791.07</ele>
        <time>2012-07-31T14:14:43Z</time>
      </trkpt>
      <trkpt lat="44.80537" lon="6.93517">
        <ele>1790.59</ele>
        <time>2012-07-31T14:14:47Z</time>
      </trkpt>
      <trkpt lat="44.80532" lon="6.9351">
        <ele>1790.11</ele>
        <time>2012-07-31T14:14:53Z</time>
      </trkpt>
      <trkpt lat="44.80512" lon="6.93494">
        <ele>1790.11</ele>
        <time>2012-07-31T14:15:13Z</time>
      </trkpt>
      <trkpt lat="44.80496" lon="6.93474">
        <ele>1793</ele>
        <time>2012-07-31T14:15:31Z</time>
      </trkpt>
      <trkpt lat="44.80488" lon="6.93471">
        <ele>1789.63</ele>
        <time>2012-07-31T14:15:34Z</time>
      </trkpt>
      <trkpt lat="44.80478" lon="6.93468">
        <ele>1790.11</ele>
        <time>2012-07-31T14:15:43Z</time>
      </trkpt>
      <trkpt lat="44.80463" lon="6.93473">
        <ele>1787.71</ele>
        <time>2012-07-31T14:15:56Z</time>
      </trkpt>
      <trkpt lat="44.80462" lon="6.93473">
        <ele>1793</ele>
        <time>2012-07-31T14:15:57Z</time>
      </trkpt>
      <trkpt lat="44.80461" lon="6.93474">
        <ele>1790.59</ele>
        <time>2012-07-31T14:15:58Z</time>
      </trkpt>
      <trkpt lat="44.8045" lon="6.93478">
        <ele>1790.11</ele>
        <time>2012-07-31T14:16:12Z</time>
      </trkpt>
      <trkpt lat="44.80448" lon="6.93477">
        <ele>1790.59</ele>
        <time>2012-07-31T14:16:16Z</time>
      </trkpt>
      <trkpt lat="44.80429" lon="6.93464">
        <ele>1791.07</ele>
        <time>2012-07-31T14:16:35Z</time>
      </trkpt>
      <trkpt lat="44.80423" lon="6.93461">
        <ele>1788.67</ele>
        <time>2012-07-31T14:16:42Z</time>
      </trkpt>
      <trkpt lat="44.8042" lon="6.9346">
        <ele>1789.63</ele>
        <time>2012-07-31T14:16:44Z</time>
      </trkpt>
      <trkpt lat="44.80409" lon="6.93458">
        <ele>1791.07</ele>
        <time>2012-07-31T14:16:49Z</time>
      </trkpt>
      <trkpt lat="44.80394" lon="6.93457">
        <ele>1790.59</ele>
        <time>2012-07-31T14:17:06Z</time>
      </trkpt>
      <trkpt lat="44.80387" lon="6.93452">
        <ele>1791.07</ele>
        <time>2012-07-31T14:17:23Z</time>
      </trkpt>
      <trkpt lat="44.80387" lon="6.93452">
        <ele>1791.07</ele>
        <time>2012-07-31T14:17:27Z</time>
      </trkpt>
      <trkpt lat="44.80383" lon="6.93446">
        <ele>1790.59</ele>
        <time>2012-07-31T14:17:35Z</time>
      </trkpt>
      <trkpt lat="44.80367" lon="6.93434">
        <ele>1791.07</ele>
        <time>2012-07-31T14:17:53Z</time>
      </trkpt>
      <trkpt lat="44.8036" lon="6.93424">
        <ele>1790.11</ele>
        <time>2012-07-31T14:18:00Z</time>
      </trkpt>
      <trkpt lat="44.80353" lon="6.93421">
        <ele>1790.11</ele>
        <time>2012-07-31T14:18:09Z</time>
      </trkpt>
      <trkpt lat="44.80343" lon="6.93418">
        <ele>1790.11</ele>
        <time>2012-07-31T14:18:17Z</time>
      </trkpt>
      <trkpt lat="44.8033" lon="6.93413">
        <ele>1790.11</ele>
        <time>2012-07-31T14:18:28Z</time>
      </trkpt>
      <trkpt lat="44.80307" lon="6.93403">
        <ele>1790.11</ele>
        <time>2012-07-31T14:18:44Z</time>
      </trkpt>
      <trkpt lat="44.80302" lon="6.93401">
        <ele>1790.11</ele>
        <time>2012-07-31T14:18:49Z</time>
      </trkpt>
      <trkpt lat="44.803" lon="6.93401">
        <ele>1790.11</ele>
        <time>2012-07-31T14:18:51Z</time>
      </trkpt>
      <trkpt lat="44.80283" lon="6.93409">
        <ele>1790.11</ele>
        <time>2012-07-31T14:19:07Z</time>
      </trkpt>
      <trkpt lat="44.80273" lon="6.93419">
        <ele>1788.67</ele>
        <time>2012-07-31T14:19:16Z</time>
      </trkpt>
      <trkpt lat="44.80266" lon="6.93421">
        <ele>1789.63</ele>
        <time>2012-07-31T14:19:23Z</time>
      </trkpt>
      <trkpt lat="44.80246" lon="6.93428">
        <ele>1790.59</ele>
        <time>2012-07-31T14:19:39Z</time>
      </trkpt>
      <trkpt lat="44.80234" lon="6.9344">
        <ele>1791.07</ele>
        <time>2012-07-31T14:19:48Z</time>
      </trkpt>
      <trkpt lat="44.80225" lon="6.93452">
        <ele>1788.19</ele>
        <time>2012-07-31T14:19:58Z</time>
      </trkpt>
      <trkpt lat="44.80224" lon="6.93453">
        <ele>1789.63</ele>
        <time>2012-07-31T14:20:00Z</time>
      </trkpt>
      <trkpt lat="44.80219" lon="6.9346">
        <ele>1789.15</ele>
        <time>2012-07-31T14:20:07Z</time>
      </trkpt>
      <trkpt lat="44.80214" lon="6.93468">
        <ele>1789.63</ele>
        <time>2012-07-31T14:20:15Z</time>
      </trkpt>
      <trkpt lat="44.80208" lon="6.93473">
        <ele>1790.11</ele>
        <time>2012-07-31T14:20:19Z</time>
      </trkpt>
      <trkpt lat="44.80206" lon="6.93475">
        <ele>1789.63</ele>
        <time>2012-07-31T14:20:21Z</time>
      </trkpt>
      <trkpt lat="44.80187" lon="6.93494">
        <ele>1789.15</ele>
        <time>2012-07-31T14:20:41Z</time>
      </trkpt>
      <trkpt lat="44.80177" lon="6.93499">
        <ele>1789.15</ele>
        <time>2012-07-31T14:20:48Z</time>
      </trkpt>
      <trkpt lat="44.80169" lon="6.93495">
        <ele>1789.15</ele>
        <time>2012-07-31T14:20:59Z</time>
      </trkpt>
      <trkpt lat="44.80166" lon="6.93493">
        <ele>1789.63</ele>
        <time>2012-07-31T14:21:02Z</time>
      </trkpt>
      <trkpt lat="44.80146" lon="6.93484">
        <ele>1789.15</ele>
        <time>2012-07-31T14:21:22Z</time>
      </trkpt>
      <trkpt lat="44.8014" lon="6.93479">
        <ele>1789.63</ele>
        <time>2012-07-31T14:21:28Z</time>
      </trkpt>
      <trkpt lat="44.80129" lon="6.93472">
        <ele>1788.67</ele>
        <time>2012-07-31T14:21:43Z</time>
      </trkpt>
      <trkpt lat="44.80121" lon="6.93472">
        <ele>1788.67</ele>
        <time>2012-07-31T14:22:00Z</time>
      </trkpt>
      <trkpt lat="44.8012" lon="6.93471">
        <ele>1787.23</ele>
        <time>2012-07-31T14:22:04Z</time>
      </trkpt>
      <trkpt lat="44.8012" lon="6.93471">
        <ele>1791.07</ele>
        <time>2012-07-31T14:22:05Z</time>
      </trkpt>
      <trkpt lat="44.8012" lon="6.93471">
        <ele>1789.15</ele>
        <time>2012-07-31T14:22:06Z</time>
      </trkpt>
      <trkpt lat="44.80121" lon="6.93469">
        <ele>1789.63</ele>
        <time>2012-07-31T14:22:33Z</time>
      </trkpt>
      <trkpt lat="44.80119" lon="6.9347">
        <ele>1789.63</ele>
        <time>2012-07-31T14:22:59Z</time>
      </trkpt>
      <trkpt lat="44.80118" lon="6.93471">
        <ele>1790.59</ele>
        <time>2012-07-31T14:23:17Z</time>
      </trkpt>
      <trkpt lat="44.80118" lon="6.93471">
        <ele>1789.15</ele>
        <time>2012-07-31T14:23:19Z</time>
      </trkpt>
      <trkpt lat="44.80117" lon="6.93472">
        <ele>1788.67</ele>
        <time>2012-07-31T14:23:46Z</time>
      </trkpt>
      <trkpt lat="44.80121" lon="6.93472">
        <ele>1788.67</ele>
        <time>2012-07-31T14:24:16Z</time>
      </trkpt>
      <trkpt lat="44.80121" lon="6.93472">
        <ele>1789.15</ele>
        <time>2012-07-31T14:24:45Z</time>
      </trkpt>
      <trkpt lat="44.80122" lon="6.93472">
        <ele>1789.15</ele>
        <time>2012-07-31T14:25:13Z</time>
      </trkpt>
      <trkpt lat="44.80119" lon="6.9347">
        <ele>1789.15</ele>
        <time>2012-07-31T14:25:44Z</time>
      </trkpt>
      <trkpt lat="44.80116" lon="6.93471">
        <ele>1788.67</ele>
        <time>2012-07-31T14:26:20Z</time>
      </trkpt>
      <trkpt lat="44.80117" lon="6.93471">
        <ele>1788.67</ele>
        <time>2012-07-31T14:26:50Z</time>
      </trkpt>
      <trkpt lat="44.80118" lon="6.93473">
        <ele>1788.67</ele>
        <time>2012-07-31T14:27:19Z</time>
      </trkpt>
      <trkpt lat="44.80116" lon="6.93473">
        <ele>1788.67</ele>
        <time>2012-07-31T14:27:50Z</time>
      </trkpt>
      <trkpt lat="44.8011" lon="6.93466">
        <ele>1785.79</ele>
        <time>2012-07-31T14:28:06Z</time>
      </trkpt>
      <trkpt lat="44.80108" lon="6.93459">
        <ele>1781.46</ele>
        <time>2012-07-31T14:28:19Z</time>
      </trkpt>
      <trkpt lat="44.80098" lon="6.93453">
        <ele>1778.1</ele>
        <time>2012-07-31T14:28:34Z</time>
      </trkpt>
      <trkpt lat="44.80088" lon="6.93457">
        <ele>1775.21</ele>
        <time>2012-07-31T14:28:49Z</time>
      </trkpt>
      <trkpt lat="44.80088" lon="6.93449">
        <ele>1771.85</ele>
        <time>2012-07-31T14:29:09Z</time>
      </trkpt>
      <trkpt lat="44.80084" lon="6.93435">
        <ele>1768.48</ele>
        <time>2012-07-31T14:29:28Z</time>
      </trkpt>
      <trkpt lat="44.80095" lon="6.93415">
        <ele>1765.12</ele>
        <time>2012-07-31T14:29:46Z</time>
      </trkpt>
      <trkpt lat="44.80099" lon="6.9339">
        <ele>1761.75</ele>
        <time>2012-07-31T14:30:07Z</time>
      </trkpt>
      <trkpt lat="44.80098" lon="6.93373">
        <ele>1758.87</ele>
        <time>2012-07-31T14:30:19Z</time>
      </trkpt>
      <trkpt lat="44.80094" lon="6.93365">
        <ele>1757.43</ele>
        <time>2012-07-31T14:30:41Z</time>
      </trkpt>
      <trkpt lat="44.80086" lon="6.93347">
        <ele>1754.06</ele>
        <time>2012-07-31T14:30:58Z</time>
      </trkpt>
      <trkpt lat="44.80078" lon="6.9334">
        <ele>1751.18</ele>
        <time>2012-07-31T14:31:16Z</time>
      </trkpt>
      <trkpt lat="44.80065" lon="6.9333">
        <ele>1745.41</ele>
        <time>2012-07-31T14:31:34Z</time>
      </trkpt>
      <trkpt lat="44.80065" lon="6.9333">
        <ele>1752.14</ele>
        <time>2012-07-31T14:31:35Z</time>
      </trkpt>
      <trkpt lat="44.80065" lon="6.9333">
        <ele>1748.78</ele>
        <time>2012-07-31T14:31:36Z</time>
      </trkpt>
      <trkpt lat="44.80064" lon="6.93329">
        <ele>1743.49</ele>
        <time>2012-07-31T14:31:38Z</time>
      </trkpt>
      <trkpt lat="44.80064" lon="6.93329">
        <ele>1750.7</ele>
        <time>2012-07-31T14:31:39Z</time>
      </trkpt>
      <trkpt lat="44.80062" lon="6.93328">
        <ele>1748.78</ele>
        <time>2012-07-31T14:31:42Z</time>
      </trkpt>
      <trkpt lat="44.80062" lon="6.93324">
        <ele>1748.29</ele>
        <time>2012-07-31T14:32:09Z</time>
      </trkpt>
      <trkpt lat="44.80057" lon="6.93321">
        <ele>1745.89</ele>
        <time>2012-07-31T14:32:37Z</time>
      </trkpt>
      <trkpt lat="44.80048" lon="6.93318">
        <ele>1743.01</ele>
        <time>2012-07-31T14:32:54Z</time>
      </trkpt>
      <trkpt lat="44.80045" lon="6.93317">
        <ele>1739.64</ele>
        <time>2012-07-31T14:33:20Z</time>
      </trkpt>
      <trkpt lat="44.80041" lon="6.93313">
        <ele>1737.72</ele>
        <time>2012-07-31T14:33:45Z</time>
      </trkpt>
      <trkpt lat="44.80035" lon="6.93302">
        <ele>1734.84</ele>
        <time>2012-07-31T14:34:13Z</time>
      </trkpt>
      <trkpt lat="44.80033" lon="6.93291">
        <ele>1731.47</ele>
        <time>2012-07-31T14:34:27Z</time>
      </trkpt>
      <trkpt lat="44.80022" lon="6.93283">
        <ele>1729.55</ele>
        <time>2012-07-31T14:34:39Z</time>
      </trkpt>
      <trkpt lat="44.80004" lon="6.93262">
        <ele>1725.7</ele>
        <time>2012-07-31T14:34:58Z</time>
      </trkpt>
      <trkpt lat="44.79988" lon="6.93256">
        <ele>1724.74</ele>
        <time>2012-07-31T14:35:17Z</time>
      </trkpt>
      <trkpt lat="44.79979" lon="6.93261">
        <ele>1723.78</ele>
        <time>2012-07-31T14:35:25Z</time>
      </trkpt>
      <trkpt lat="44.79958" lon="6.93262">
        <ele>1720.42</ele>
        <time>2012-07-31T14:35:45Z</time>
      </trkpt>
      <trkpt lat="44.79951" lon="6.9326">
        <ele>1718.49</ele>
        <time>2012-07-31T14:35:54Z</time>
      </trkpt>
      <trkpt lat="44.79943" lon="6.93249">
        <ele>1715.61</ele>
        <time>2012-07-31T14:36:07Z</time>
      </trkpt>
      <trkpt lat="44.79935" lon="6.93244">
        <ele>1714.65</ele>
        <time>2012-07-31T14:36:16Z</time>
      </trkpt>
      <trkpt lat="44.79911" lon="6.93231">
        <ele>1711.76</ele>
        <time>2012-07-31T14:36:36Z</time>
      </trkpt>
      <trkpt lat="44.79886" lon="6.93233">
        <ele>1709.36</ele>
        <time>2012-07-31T14:36:59Z</time>
      </trkpt>
      <trkpt lat="44.79884" lon="6.93233">
        <ele>1708.4</ele>
        <time>2012-07-31T14:37:03Z</time>
      </trkpt>
      <trkpt lat="44.79867" lon="6.93234">
        <ele>1705.52</ele>
        <time>2012-07-31T14:37:22Z</time>
      </trkpt>
      <trkpt lat="44.79868" lon="6.9323">
        <ele>1703.59</ele>
        <time>2012-07-31T14:37:31Z</time>
      </trkpt>
      <trkpt lat="44.79866" lon="6.93222">
        <ele>1699.75</ele>
        <time>2012-07-31T14:37:48Z</time>
      </trkpt>
      <trkpt lat="44.79858" lon="6.9322">
        <ele>1698.79</ele>
        <time>2012-07-31T14:37:57Z</time>
      </trkpt>
      <trkpt lat="44.79832" lon="6.9321">
        <ele>1697.34</ele>
        <time>2012-07-31T14:38:18Z</time>
      </trkpt>
      <trkpt lat="44.7982" lon="6.93209">
        <ele>1696.38</ele>
        <time>2012-07-31T14:38:28Z</time>
      </trkpt>
      <trkpt lat="44.7979" lon="6.93192">
        <ele>1696.38</ele>
        <time>2012-07-31T14:38:53Z</time>
      </trkpt>
      <trkpt lat="44.79776" lon="6.93189">
        <ele>1693.02</ele>
        <time>2012-07-31T14:39:10Z</time>
      </trkpt>
      <trkpt lat="44.79775" lon="6.93186">
        <ele>1692.54</ele>
        <time>2012-07-31T14:39:13Z</time>
      </trkpt>
      <trkpt lat="44.79774" lon="6.93167">
        <ele>1688.69</ele>
        <time>2012-07-31T14:39:25Z</time>
      </trkpt>
      <trkpt lat="44.79767" lon="6.93146">
        <ele>1685.33</ele>
        <time>2012-07-31T14:39:38Z</time>
      </trkpt>
      <trkpt lat="44.79758" lon="6.93129">
        <ele>1682.44</ele>
        <time>2012-07-31T14:39:53Z</time>
      </trkpt>
      <trkpt lat="44.79738" lon="6.93104">
        <ele>1680.52</ele>
        <time>2012-07-31T14:40:11Z</time>
      </trkpt>
      <trkpt lat="44.79734" lon="6.93097">
        <ele>1679.56</ele>
        <time>2012-07-31T14:40:19Z</time>
      </trkpt>
      <trkpt lat="44.79731" lon="6.93085">
        <ele>1676.68</ele>
        <time>2012-07-31T14:40:29Z</time>
      </trkpt>
      <trkpt lat="44.79724" lon="6.93073">
        <ele>1674.75</ele>
        <time>2012-07-31T14:40:39Z</time>
      </trkpt>
      <trkpt lat="44.79722" lon="6.93063">
        <ele>1672.83</ele>
        <time>2012-07-31T14:40:47Z</time>
      </trkpt>
      <trkpt lat="44.79717" lon="6.93055">
        <ele>1670.43</ele>
        <time>2012-07-31T14:40:53Z</time>
      </trkpt>
      <trkpt lat="44.79713" lon="6.93053">
        <ele>1669.47</ele>
        <time>2012-07-31T14:40:58Z</time>
      </trkpt>
      <trkpt lat="44.79712" lon="6.9305">
        <ele>1669.47</ele>
        <time>2012-07-31T14:41:08Z</time>
      </trkpt>
      <trkpt lat="44.79703" lon="6.93054">
        <ele>1667.54</ele>
        <time>2012-07-31T14:41:31Z</time>
      </trkpt>
      <trkpt lat="44.79696" lon="6.93052">
        <ele>1668.02</ele>
        <time>2012-07-31T14:41:50Z</time>
      </trkpt>
      <trkpt lat="44.79692" lon="6.93047">
        <ele>1667.54</ele>
        <time>2012-07-31T14:42:07Z</time>
      </trkpt>
      <trkpt lat="44.79684" lon="6.93045">
        <ele>1666.58</ele>
        <time>2012-07-31T14:42:28Z</time>
      </trkpt>
      <trkpt lat="44.7967" lon="6.93048">
        <ele>1664.18</ele>
        <time>2012-07-31T14:42:44Z</time>
      </trkpt>
      <trkpt lat="44.79663" lon="6.93044">
        <ele>1662.26</ele>
        <time>2012-07-31T14:42:55Z</time>
      </trkpt>
      <trkpt lat="44.79658" lon="6.93039">
        <ele>1660.81</ele>
        <time>2012-07-31T14:43:01Z</time>
      </trkpt>
      <trkpt lat="44.79653" lon="6.93037">
        <ele>1658.89</ele>
        <time>2012-07-31T14:43:08Z</time>
      </trkpt>
      <trkpt lat="44.79648" lon="6.93032">
        <ele>1656.97</ele>
        <time>2012-07-31T14:43:13Z</time>
      </trkpt>
      <trkpt lat="44.79645" lon="6.93028">
        <ele>1655.53</ele>
        <time>2012-07-31T14:43:18Z</time>
      </trkpt>
      <trkpt lat="44.79642" lon="6.93024">
        <ele>1655.05</ele>
        <time>2012-07-31T14:43:21Z</time>
      </trkpt>
      <trkpt lat="44.79636" lon="6.93022">
        <ele>1653.6</ele>
        <time>2012-07-31T14:43:30Z</time>
      </trkpt>
      <trkpt lat="44.79625" lon="6.93024">
        <ele>1649.76</ele>
        <time>2012-07-31T14:43:42Z</time>
      </trkpt>
      <trkpt lat="44.79621" lon="6.93026">
        <ele>1649.76</ele>
        <time>2012-07-31T14:43:45Z</time>
      </trkpt>
      <trkpt lat="44.79612" lon="6.93027">
        <ele>1647.36</ele>
        <time>2012-07-31T14:44:03Z</time>
      </trkpt>
      <trkpt lat="44.79612" lon="6.93026">
        <ele>1647.36</ele>
        <time>2012-07-31T14:44:07Z</time>
      </trkpt>
      <trkpt lat="44.79614" lon="6.93019">
        <ele>1645.91</ele>
        <time>2012-07-31T14:44:13Z</time>
      </trkpt>
      <trkpt lat="44.79615" lon="6.93012">
        <ele>1646.4</ele>
        <time>2012-07-31T14:44:17Z</time>
      </trkpt>
      <trkpt lat="44.79617" lon="6.93009">
        <ele>1644.47</ele>
        <time>2012-07-31T14:44:21Z</time>
      </trkpt>
      <trkpt lat="44.79622" lon="6.93002">
        <ele>1642.07</ele>
        <time>2012-07-31T14:44:29Z</time>
      </trkpt>
      <trkpt lat="44.79629" lon="6.92995">
        <ele>1640.15</ele>
        <time>2012-07-31T14:44:38Z</time>
      </trkpt>
      <trkpt lat="44.79635" lon="6.92991">
        <ele>1637.74</ele>
        <time>2012-07-31T14:44:50Z</time>
      </trkpt>
      <trkpt lat="44.79645" lon="6.92981">
        <ele>1634.86</ele>
        <time>2012-07-31T14:45:00Z</time>
      </trkpt>
      <trkpt lat="44.79651" lon="6.92974">
        <ele>1633.42</ele>
        <time>2012-07-31T14:45:09Z</time>
      </trkpt>
      <trkpt lat="44.79653" lon="6.9297">
        <ele>1631.98</ele>
        <time>2012-07-31T14:45:12Z</time>
      </trkpt>
      <trkpt lat="44.79655" lon="6.92967">
        <ele>1631.49</ele>
        <time>2012-07-31T14:45:16Z</time>
      </trkpt>
      <trkpt lat="44.79663" lon="6.9296">
        <ele>1629.57</ele>
        <time>2012-07-31T14:45:25Z</time>
      </trkpt>
      <trkpt lat="44.79667" lon="6.9296">
        <ele>1629.09</ele>
        <time>2012-07-31T14:45:27Z</time>
      </trkpt>
      <trkpt lat="44.79672" lon="6.92955">
        <ele>1628.13</ele>
        <time>2012-07-31T14:45:34Z</time>
      </trkpt>
      <trkpt lat="44.79674" lon="6.92954">
        <ele>1627.65</ele>
        <time>2012-07-31T14:45:36Z</time>
      </trkpt>
      <trkpt lat="44.7968" lon="6.9295">
        <ele>1626.21</ele>
        <time>2012-07-31T14:45:44Z</time>
      </trkpt>
      <trkpt lat="44.79686" lon="6.92942">
        <ele>1625.73</ele>
        <time>2012-07-31T14:45:49Z</time>
      </trkpt>
      <trkpt lat="44.79692" lon="6.92939">
        <ele>1624.77</ele>
        <time>2012-07-31T14:45:56Z</time>
      </trkpt>
      <trkpt lat="44.79698" lon="6.92938">
        <ele>1624.28</ele>
        <time>2012-07-31T14:46:02Z</time>
      </trkpt>
      <trkpt lat="44.79709" lon="6.92934">
        <ele>1620.92</ele>
        <time>2012-07-31T14:46:17Z</time>
      </trkpt>
      <trkpt lat="44.79706" lon="6.92929">
        <ele>1619</ele>
        <time>2012-07-31T14:46:27Z</time>
      </trkpt>
      <trkpt lat="44.79699" lon="6.92923">
        <ele>1616.59</ele>
        <time>2012-07-31T14:46:35Z</time>
      </trkpt>
      <trkpt lat="44.79686" lon="6.92921">
        <ele>1614.19</ele>
        <time>2012-07-31T14:46:48Z</time>
      </trkpt>
      <trkpt lat="44.79683" lon="6.92921">
        <ele>1612.27</ele>
        <time>2012-07-31T14:46:53Z</time>
      </trkpt>
      <trkpt lat="44.79666" lon="6.92928">
        <ele>1610.83</ele>
        <time>2012-07-31T14:47:10Z</time>
      </trkpt>
      <trkpt lat="44.79665" lon="6.92928">
        <ele>1609.86</ele>
        <time>2012-07-31T14:47:12Z</time>
      </trkpt>
      <trkpt lat="44.79663" lon="6.92927">
        <ele>1609.86</ele>
        <time>2012-07-31T14:47:14Z</time>
      </trkpt>
      <trkpt lat="44.79654" lon="6.92924">
        <ele>1606.02</ele>
        <time>2012-07-31T14:47:24Z</time>
      </trkpt>
      <trkpt lat="44.79646" lon="6.92923">
        <ele>1605.06</ele>
        <time>2012-07-31T14:47:29Z</time>
      </trkpt>
      <trkpt lat="44.79635" lon="6.92918">
        <ele>1601.69</ele>
        <time>2012-07-31T14:47:39Z</time>
      </trkpt>
      <trkpt lat="44.79623" lon="6.92914">
        <ele>1598.81</ele>
        <time>2012-07-31T14:47:51Z</time>
      </trkpt>
      <trkpt lat="44.79619" lon="6.92913">
        <ele>1598.33</ele>
        <time>2012-07-31T14:48:10Z</time>
      </trkpt>
      <trkpt lat="44.79613" lon="6.92908">
        <ele>1599.77</ele>
        <time>2012-07-31T14:48:20Z</time>
      </trkpt>
      <trkpt lat="44.79596" lon="6.92908">
        <ele>1596.41</ele>
        <time>2012-07-31T14:48:36Z</time>
      </trkpt>
      <trkpt lat="44.79594" lon="6.92909">
        <ele>1595.93</ele>
        <time>2012-07-31T14:48:38Z</time>
      </trkpt>
      <trkpt lat="44.79587" lon="6.92912">
        <ele>1594.48</ele>
        <time>2012-07-31T14:48:45Z</time>
      </trkpt>
      <trkpt lat="44.79584" lon="6.92913">
        <ele>1593.52</ele>
        <time>2012-07-31T14:48:47Z</time>
      </trkpt>
      <trkpt lat="44.79577" lon="6.92916">
        <ele>1593.04</ele>
        <time>2012-07-31T14:48:51Z</time>
      </trkpt>
      <trkpt lat="44.7957" lon="6.9292">
        <ele>1590.64</ele>
        <time>2012-07-31T14:49:01Z</time>
      </trkpt>
      <trkpt lat="44.79568" lon="6.92922">
        <ele>1590.64</ele>
        <time>2012-07-31T14:49:04Z</time>
      </trkpt>
      <trkpt lat="44.79561" lon="6.92913">
        <ele>1588.72</ele>
        <time>2012-07-31T14:49:14Z</time>
      </trkpt>
      <trkpt lat="44.79562" lon="6.92907">
        <ele>1587.75</ele>
        <time>2012-07-31T14:49:20Z</time>
      </trkpt>
      <trkpt lat="44.79562" lon="6.92903">
        <ele>1587.75</ele>
        <time>2012-07-31T14:49:22Z</time>
      </trkpt>
      <trkpt lat="44.79561" lon="6.92895">
        <ele>1586.31</ele>
        <time>2012-07-31T14:49:28Z</time>
      </trkpt>
      <trkpt lat="44.79559" lon="6.92883">
        <ele>1583.91</ele>
        <time>2012-07-31T14:49:38Z</time>
      </trkpt>
      <trkpt lat="44.79557" lon="6.92879">
        <ele>1582.95</ele>
        <time>2012-07-31T14:49:44Z</time>
      </trkpt>
      <trkpt lat="44.79555" lon="6.92869">
        <ele>1581.51</ele>
        <time>2012-07-31T14:49:58Z</time>
      </trkpt>
      <trkpt lat="44.79546" lon="6.92867">
        <ele>1579.58</ele>
        <time>2012-07-31T14:50:09Z</time>
      </trkpt>
      <trkpt lat="44.7954" lon="6.92866">
        <ele>1578.62</ele>
        <time>2012-07-31T14:50:13Z</time>
      </trkpt>
      <trkpt lat="44.79529" lon="6.92863">
        <ele>1577.66</ele>
        <time>2012-07-31T14:50:22Z</time>
      </trkpt>
      <trkpt lat="44.79514" lon="6.92856">
        <ele>1575.74</ele>
        <time>2012-07-31T14:50:36Z</time>
      </trkpt>
      <trkpt lat="44.79508" lon="6.92853">
        <ele>1575.74</ele>
        <time>2012-07-31T14:50:41Z</time>
      </trkpt>
      <trkpt lat="44.79502" lon="6.92848">
        <ele>1576.22</ele>
        <time>2012-07-31T14:50:48Z</time>
      </trkpt>
      <trkpt lat="44.79503" lon="6.92831">
        <ele>1575.74</ele>
        <time>2012-07-31T14:50:58Z</time>
      </trkpt>
      <trkpt lat="44.79503" lon="6.92816">
        <ele>1574.3</ele>
        <time>2012-07-31T14:51:13Z</time>
      </trkpt>
      <trkpt lat="44.79504" lon="6.92809">
        <ele>1574.78</ele>
        <time>2012-07-31T14:51:22Z</time>
      </trkpt>
      <trkpt lat="44.79504" lon="6.92783">
        <ele>1574.3</ele>
        <time>2012-07-31T14:51:36Z</time>
      </trkpt>
      <trkpt lat="44.79502" lon="6.92776">
        <ele>1572.85</ele>
        <time>2012-07-31T14:51:44Z</time>
      </trkpt>
      <trkpt lat="44.79489" lon="6.92763">
        <ele>1571.41</ele>
        <time>2012-07-31T14:52:00Z</time>
      </trkpt>
      <trkpt lat="44.79489" lon="6.9276">
        <ele>1571.41</ele>
        <time>2012-07-31T14:52:02Z</time>
      </trkpt>
      <trkpt lat="44.7949" lon="6.92746">
        <ele>1571.41</ele>
        <time>2012-07-31T14:52:17Z</time>
      </trkpt>
      <trkpt lat="44.7949" lon="6.92745">
        <ele>1570.93</ele>
        <time>2012-07-31T14:52:37Z</time>
      </trkpt>
      <trkpt lat="44.79491" lon="6.92743">
        <ele>1570.45</ele>
        <time>2012-07-31T14:52:58Z</time>
      </trkpt>
      <trkpt lat="44.79492" lon="6.92742">
        <ele>1570.45</ele>
        <time>2012-07-31T14:53:08Z</time>
      </trkpt>
    </trkseg>
  </trk>
</gpx>